Time,TemperatureF,DewpointF,PressureIn,WindDirection,WindDirectionDegrees,WindSpeedMPH,WindSpeedGustMPH,Humidity,HourlyPrecipIn,Conditions,Clouds,dailyrainin,SoftwareType,DateUTC
2013-09-14 00:00:00,69.8,53.4,29.64,East,90,0.0,0.0,56,0.00,,SKC,0.00,VWS V14.01,2013-09-14 07:00:00,
2013-09-14 00:01:00,69.8,53.4,29.64,East,90,0.0,0.0,56,0.00,,SKC,0.00,VWS V14.01,2013-09-14 07:01:00,
2013-09-14 00:02:00,69.6,53.2,29.64,East,90,0.0,0.0,56,0.00,,SKC,0.00,VWS V14.01,2013-09-14 07:02:00,
2013-09-14 00:03:00,69.4,53.0,29.64,East,90,0.0,0.0,56,0.00,,SKC,0.00,VWS V14.01,2013-09-14 07:03:00,
2013-09-14 00:04:00,69.6,53.2,29.64,East,90,0.0,0.0,56,0.00,,SKC,0.00,VWS V14.01,2013-09-14 07:04:00,
2013-09-14 00:05:00,69.6,53.2,29.64,East,90,0.0,0.0,56,0.00,,SKC,0.00,VWS V14.01,2013-09-14 07:05:00,
2013-09-14 00:06:00,69.6,53.2,29.64,East,90,0.0,0.0,56,0.00,,SKC,0.00,VWS V14.01,2013-09-14 07:06:00,
2013-09-14 00:07:00,69.4,53.5,29.64,East,90,0.0,0.0,57,0.00,,SKC,0.00,VWS V14.01,2013-09-14 07:07:00,
2013-09-14 00:08:00,69.6,53.2,29.64,East,90,0.0,0.0,56,0.00,,SKC,0.00,VWS V14.01,2013-09-14 07:08:00,
2013-09-14 00:09:00,69.6,53.7,29.64,East,90,0.0,0.0,57,0.00,,SKC,0.00,VWS V14.01,2013-09-14 07:09:00,
2013-09-14 00:10:00,69.4,53.5,29.64,East,90,0.0,0.0,57,0.00,,SKC,0.00,VWS V14.01,2013-09-14 07:10:00,
2013-09-14 00:11:00,69.4,53.5,29.64,East,90,0.0,0.0,57,0.00,,SKC,0.00,VWS V14.01,2013-09-14 07:11:00,
2013-09-14 00:12:00,69.3,53.9,29.63,East,90,0.0,0.0,58,0.00,,SKC,0.00,VWS V14.01,2013-09-14 07:12:00,
2013-09-14 00:13:00,69.4,53.5,29.64,East,90,0.0,0.0,57,0.00,,SKC,0.00,VWS V14.01,2013-09-14 07:13:00,
2013-09-14 00:14:00,69.3,53.4,29.64,East,90,0.0,0.0,57,0.00,,SKC,0.00,VWS V14.01,2013-09-14 07:14:00,
2013-09-14 00:15:00,69.3,53.9,29.63,East,90,0.0,0.0,58,0.00,,SKC,0.00,VWS V14.01,2013-09-14 07:15:00,
2013-09-14 00:16:00,69.3,53.9,29.63,East,90,0.0,0.0,58,0.00,,SKC,0.00,VWS V14.01,2013-09-14 07:16:00,
2013-09-14 00:17:00,69.3,53.9,29.63,East,90,0.0,0.0,58,0.00,,SKC,0.00,VWS V14.01,2013-09-14 07:17:00,
2013-09-14 00:18:00,69.1,53.2,29.63,East,90,0.0,0.0,57,0.00,,SKC,0.00,VWS V14.01,2013-09-14 07:18:00,
2013-09-14 00:19:00,69.3,53.9,29.63,East,90,0.0,0.0,58,0.00,,SKC,0.00,VWS V14.01,2013-09-14 07:19:00,
2013-09-14 00:20:00,69.1,53.2,29.63,East,90,0.0,0.0,57,0.00,,SKC,0.00,VWS V14.01,2013-09-14 07:20:00,
2013-09-14 00:21:00,69.1,53.2,29.63,East,90,0.0,0.0,57,0.00,,SKC,0.00,VWS V14.01,2013-09-14 07:21:00,
2013-09-14 00:22:00,69.1,53.2,29.63,East,90,0.0,0.0,57,0.00,,SKC,0.00,VWS V14.01,2013-09-14 07:22:00,
2013-09-14 00:23:00,68.9,53.1,29.63,East,90,0.0,0.0,57,0.00,,SKC,0.00,VWS V14.01,2013-09-14 07:23:00,
2013-09-14 00:24:00,69.1,53.2,29.63,East,90,0.0,0.0,57,0.00,,SKC,0.00,VWS V14.01,2013-09-14 07:24:00,
2013-09-14 00:25:00,69.1,53.2,29.63,East,90,0.0,0.0,57,0.00,,SKC,0.00,VWS V14.01,2013-09-14 07:25:00,
2013-09-14 00:26:00,68.9,53.1,29.63,East,90,0.0,0.0,57,0.00,,SKC,0.00,VWS V14.01,2013-09-14 07:26:00,
2013-09-14 00:27:00,68.9,53.1,29.63,East,90,0.0,0.0,57,0.00,,SKC,0.00,VWS V14.01,2013-09-14 07:27:00,
2013-09-14 00:28:00,68.9,53.1,29.63,East,90,0.0,0.0,57,0.00,,SKC,0.00,VWS V14.01,2013-09-14 07:28:00,
2013-09-14 00:29:00,68.9,53.1,29.63,East,90,0.0,0.0,57,0.00,,SKC,0.00,VWS V14.01,2013-09-14 07:29:00,
2013-09-14 00:30:00,68.9,52.6,29.63,East,90,0.0,0.0,56,0.00,,SKC,0.00,VWS V14.01,2013-09-14 07:30:00,
2013-09-14 00:31:00,68.9,53.1,29.63,East,90,0.0,0.0,57,0.00,,SKC,0.00,VWS V14.01,2013-09-14 07:31:00,
2013-09-14 00:32:00,68.9,53.1,29.63,East,90,0.0,0.0,57,0.00,,SKC,0.00,VWS V14.01,2013-09-14 07:32:00,
2013-09-14 00:33:00,68.9,52.6,29.63,East,90,0.0,0.0,56,0.00,,SKC,0.00,VWS V14.01,2013-09-14 07:33:00,
2013-09-14 00:34:00,68.9,52.6,29.63,East,90,0.0,0.0,56,0.00,,SKC,0.00,VWS V14.01,2013-09-14 07:34:00,
2013-09-14 00:35:00,68.9,52.6,29.63,East,90,0.0,0.0,56,0.00,,SKC,0.00,VWS V14.01,2013-09-14 07:35:00,
2013-09-14 00:36:00,68.9,52.6,29.63,East,90,0.0,0.0,56,0.00,,SKC,0.00,VWS V14.01,2013-09-14 07:36:00,
2013-09-14 00:37:00,68.9,52.6,29.63,East,90,0.0,0.0,56,0.00,,SKC,0.00,VWS V14.01,2013-09-14 07:37:00,
2013-09-14 00:38:00,69.1,52.8,29.63,East,90,0.0,0.0,56,0.00,,SKC,0.00,VWS V14.01,2013-09-14 07:38:00,
2013-09-14 00:39:00,68.8,52.5,29.63,East,90,0.0,0.0,56,0.00,,SKC,0.00,VWS V14.01,2013-09-14 07:39:00,
2013-09-14 00:40:00,68.9,52.6,29.63,East,90,0.0,0.0,56,0.00,,SKC,0.00,VWS V14.01,2013-09-14 07:40:00,
2013-09-14 00:41:00,68.9,52.6,29.63,East,90,0.0,0.0,56,0.00,,SKC,0.00,VWS V14.01,2013-09-14 07:41:00,
2013-09-14 00:42:00,68.9,52.6,29.63,East,90,0.0,0.0,56,0.00,,SKC,0.00,VWS V14.01,2013-09-14 07:42:00,
2013-09-14 00:43:00,68.8,52.5,29.63,East,90,0.0,0.0,56,0.00,,SKC,0.00,VWS V14.01,2013-09-14 07:43:00,
2013-09-14 00:44:00,68.9,53.1,29.63,East,90,0.0,0.0,57,0.00,,SKC,0.00,VWS V14.01,2013-09-14 07:44:00,
2013-09-14 00:45:00,68.9,52.6,29.63,East,90,0.0,0.0,56,0.00,,SKC,0.00,VWS V14.01,2013-09-14 07:45:00,
2013-09-14 00:46:00,68.9,52.6,29.63,East,90,0.0,0.0,56,0.00,,SKC,0.00,VWS V14.01,2013-09-14 07:46:00,
2013-09-14 00:47:00,68.9,53.1,29.63,East,90,0.0,0.0,57,0.00,,SKC,0.00,VWS V14.01,2013-09-14 07:47:00,
2013-09-14 00:48:00,68.9,53.1,29.63,East,90,0.0,0.0,57,0.00,,SKC,0.00,VWS V14.01,2013-09-14 07:48:00,
2013-09-14 00:49:00,68.9,53.1,29.63,East,90,0.0,0.0,57,0.00,,SKC,0.00,VWS V14.01,2013-09-14 07:49:00,
2013-09-14 00:50:00,68.8,53.0,29.63,East,90,0.0,0.0,57,0.00,,SKC,0.00,VWS V14.01,2013-09-14 07:50:00,
2013-09-14 00:51:00,68.9,53.1,29.63,East,90,0.0,0.0,57,0.00,,SKC,0.00,VWS V14.01,2013-09-14 07:51:00,
2013-09-14 00:52:00,68.9,53.1,29.63,East,90,0.0,0.0,57,0.00,,SKC,0.00,VWS V14.01,2013-09-14 07:52:00,
2013-09-14 00:53:00,68.8,53.0,29.63,East,90,0.0,0.0,57,0.00,,SKC,0.00,VWS V14.01,2013-09-14 07:53:00,
2013-09-14 00:54:00,68.8,53.0,29.63,East,90,0.0,0.0,57,0.00,,SKC,0.00,VWS V14.01,2013-09-14 07:54:00,
2013-09-14 00:55:00,68.8,53.0,29.63,East,90,0.0,0.0,57,0.00,,SKC,0.00,VWS V14.01,2013-09-14 07:55:00,
2013-09-14 00:56:00,68.8,53.0,29.62,East,90,0.0,0.0,57,0.00,,SKC,0.00,VWS V14.01,2013-09-14 07:56:00,
2013-09-14 00:57:00,68.8,53.0,29.63,East,90,0.0,0.0,57,0.00,,SKC,0.00,VWS V14.01,2013-09-14 07:57:00,
2013-09-14 00:58:00,68.8,53.0,29.63,East,90,0.0,0.0,57,0.00,,SKC,0.00,VWS V14.01,2013-09-14 07:58:00,
2013-09-14 00:59:00,68.8,53.0,29.63,East,90,0.0,0.0,57,0.00,,SKC,0.00,VWS V14.01,2013-09-14 07:59:00,
2013-09-14 01:00:00,68.8,53.0,29.62,East,90,0.0,0.0,57,0.00,,SKC,0.00,VWS V14.01,2013-09-14 08:00:00,
2013-09-14 01:01:00,68.8,53.0,29.62,East,90,0.0,0.0,57,0.00,,SKC,0.00,VWS V14.01,2013-09-14 08:01:00,
2013-09-14 01:02:00,68.6,53.2,29.62,East,90,0.0,0.0,58,0.00,,SKC,0.00,VWS V14.01,2013-09-14 08:02:00,
2013-09-14 01:03:00,68.8,53.0,29.62,East,90,0.0,0.0,57,0.00,,SKC,0.00,VWS V14.01,2013-09-14 08:03:00,
2013-09-14 01:04:00,68.8,53.0,29.62,East,90,0.0,0.0,57,0.00,,SKC,0.00,VWS V14.01,2013-09-14 08:04:00,
2013-09-14 01:05:00,68.8,53.4,29.62,East,90,0.0,0.0,58,0.00,,SKC,0.00,VWS V14.01,2013-09-14 08:05:00,
2013-09-14 01:06:00,68.6,53.2,29.62,East,90,0.0,0.0,58,0.00,,SKC,0.00,VWS V14.01,2013-09-14 08:06:00,
2013-09-14 01:07:00,68.6,53.2,29.62,East,90,0.0,0.0,58,0.00,,SKC,0.00,VWS V14.01,2013-09-14 08:07:00,
2013-09-14 01:08:00,68.6,53.2,29.62,East,90,0.0,0.0,58,0.00,,SKC,0.00,VWS V14.01,2013-09-14 08:08:00,
2013-09-14 01:09:00,68.6,52.8,29.62,East,90,0.0,0.0,57,0.00,,SKC,0.00,VWS V14.01,2013-09-14 08:09:00,
2013-09-14 01:10:00,68.6,52.8,29.62,East,90,0.0,0.0,57,0.00,,SKC,0.00,VWS V14.01,2013-09-14 08:10:00,
2013-09-14 01:11:00,68.6,53.2,29.62,East,90,0.0,0.0,58,0.00,,SKC,0.00,VWS V14.01,2013-09-14 08:11:00,
2013-09-14 01:12:00,68.6,53.2,29.62,East,90,0.0,0.0,58,0.00,,SKC,0.00,VWS V14.01,2013-09-14 08:12:00,
2013-09-14 01:13:00,68.4,53.1,29.62,East,90,0.0,0.0,58,0.00,,SKC,0.00,VWS V14.01,2013-09-14 08:13:00,
2013-09-14 01:14:00,68.6,53.2,29.62,East,90,0.0,0.0,58,0.00,,SKC,0.00,VWS V14.01,2013-09-14 08:14:00,
2013-09-14 01:15:00,68.6,53.7,29.62,East,90,0.0,0.0,59,0.00,,SKC,0.00,VWS V14.01,2013-09-14 08:15:00,
2013-09-14 01:16:00,68.6,53.7,29.62,East,90,0.0,0.0,59,0.00,,SKC,0.00,VWS V14.01,2013-09-14 08:16:00,
2013-09-14 01:17:00,68.4,53.1,29.62,East,90,0.0,0.0,58,0.00,,SKC,0.00,VWS V14.01,2013-09-14 08:17:00,
2013-09-14 01:18:00,68.4,53.1,29.62,East,90,0.0,0.0,58,0.00,,SKC,0.00,VWS V14.01,2013-09-14 08:18:00,
2013-09-14 01:19:00,68.4,53.1,29.62,East,90,0.0,0.0,58,0.00,,SKC,0.00,VWS V14.01,2013-09-14 08:19:00,
2013-09-14 01:20:00,68.4,53.1,29.62,East,90,0.0,0.0,58,0.00,,SKC,0.00,VWS V14.01,2013-09-14 08:20:00,
2013-09-14 01:21:00,68.4,53.1,29.62,East,90,0.0,0.0,58,0.00,,SKC,0.00,VWS V14.01,2013-09-14 08:21:00,
2013-09-14 01:22:00,68.4,53.1,29.62,East,90,0.0,0.0,58,0.00,,SKC,0.00,VWS V14.01,2013-09-14 08:22:00,
2013-09-14 01:23:00,68.3,53.4,29.62,East,90,0.0,0.0,59,0.00,,SKC,0.00,VWS V14.01,2013-09-14 08:23:00,
2013-09-14 01:24:00,68.3,53.0,29.62,East,90,0.0,0.0,58,0.00,,SKC,0.00,VWS V14.01,2013-09-14 08:24:00,
2013-09-14 01:25:00,68.3,53.0,29.62,East,90,0.0,0.0,58,0.00,,SKC,0.00,VWS V14.01,2013-09-14 08:25:00,
2013-09-14 01:26:00,68.3,53.4,29.62,East,90,0.0,0.0,59,0.00,,SKC,0.00,VWS V14.01,2013-09-14 08:26:00,
2013-09-14 01:27:00,68.3,53.4,29.62,East,90,0.0,0.0,59,0.00,,SKC,0.00,VWS V14.01,2013-09-14 08:27:00,
2013-09-14 01:28:00,68.1,53.2,29.62,East,90,0.0,0.0,59,0.00,,SKC,0.00,VWS V14.01,2013-09-14 08:28:00,
2013-09-14 01:29:00,68.1,53.2,29.62,East,90,0.0,0.0,59,0.00,,SKC,0.00,VWS V14.01,2013-09-14 08:29:00,
2013-09-14 01:30:00,68.1,53.2,29.62,East,90,0.0,0.0,59,0.00,,SKC,0.00,VWS V14.01,2013-09-14 08:30:00,
2013-09-14 01:31:00,68.1,53.2,29.62,East,90,0.0,0.0,59,0.00,,SKC,0.00,VWS V14.01,2013-09-14 08:31:00,
2013-09-14 01:32:00,68.1,53.2,29.62,East,90,0.0,0.0,59,0.00,,SKC,0.00,VWS V14.01,2013-09-14 08:32:00,
2013-09-14 01:33:00,68.1,53.2,29.62,East,90,0.0,0.0,59,0.00,,SKC,0.00,VWS V14.01,2013-09-14 08:33:00,
2013-09-14 01:34:00,68.1,53.2,29.62,East,90,0.0,0.0,59,0.00,,SKC,0.00,VWS V14.01,2013-09-14 08:34:00,
2013-09-14 01:35:00,68.1,53.2,29.62,East,90,0.0,0.0,59,0.00,,SKC,0.00,VWS V14.01,2013-09-14 08:35:00,
2013-09-14 01:36:00,68.1,53.2,29.62,East,90,0.0,0.0,59,0.00,,SKC,0.00,VWS V14.01,2013-09-14 08:36:00,
2013-09-14 01:37:00,68.1,53.2,29.62,East,90,0.0,0.0,59,0.00,,SKC,0.00,VWS V14.01,2013-09-14 08:37:00,
2013-09-14 01:38:00,68.3,53.4,29.62,East,90,0.0,0.0,59,0.00,,SKC,0.00,VWS V14.01,2013-09-14 08:38:00,
2013-09-14 01:39:00,68.1,53.2,29.62,East,90,0.0,0.0,59,0.00,,SKC,0.00,VWS V14.01,2013-09-14 08:39:00,
2013-09-14 01:40:00,68.1,53.2,29.62,East,90,0.0,0.0,59,0.00,,SKC,0.00,VWS V14.01,2013-09-14 08:40:00,
2013-09-14 01:41:00,68.1,53.2,29.62,East,90,0.0,0.0,59,0.00,,SKC,0.00,VWS V14.01,2013-09-14 08:41:00,
2013-09-14 01:42:00,68.3,53.4,29.62,East,90,0.0,0.0,59,0.00,,SKC,0.00,VWS V14.01,2013-09-14 08:42:00,
2013-09-14 01:43:00,68.4,54.0,29.62,East,90,0.0,0.0,60,0.00,,SKC,0.00,VWS V14.01,2013-09-14 08:43:00,
2013-09-14 01:44:00,68.3,53.9,29.62,East,90,0.0,0.0,60,0.00,,SKC,0.00,VWS V14.01,2013-09-14 08:44:00,
2013-09-14 01:45:00,68.3,53.9,29.62,East,90,0.0,0.0,60,0.00,,SKC,0.00,VWS V14.01,2013-09-14 08:45:00,
2013-09-14 01:46:00,68.3,53.9,29.62,East,90,0.0,0.0,60,0.00,,SKC,0.00,VWS V14.01,2013-09-14 08:46:00,
2013-09-14 01:47:00,68.4,54.0,29.62,East,90,0.0,0.0,60,0.00,,SKC,0.00,VWS V14.01,2013-09-14 08:47:00,
2013-09-14 01:48:00,68.4,54.0,29.62,East,90,0.0,0.0,60,0.00,,SKC,0.00,VWS V14.01,2013-09-14 08:48:00,
2013-09-14 01:49:00,68.4,54.0,29.62,East,90,0.0,0.0,60,0.00,,SKC,0.00,VWS V14.01,2013-09-14 08:49:00,
2013-09-14 01:50:00,68.4,54.0,29.62,East,90,0.0,0.0,60,0.00,,FEW200,0.00,VWS V14.01,2013-09-14 08:50:00,
2013-09-14 01:51:00,68.4,54.0,29.62,East,90,0.0,0.0,60,0.00,,FEW200,0.00,VWS V14.01,2013-09-14 08:51:00,
2013-09-14 01:52:00,68.4,54.0,29.62,East,90,0.0,0.0,60,0.00,,FEW200,0.00,VWS V14.01,2013-09-14 08:52:00,
2013-09-14 01:53:00,68.4,54.0,29.62,East,90,0.0,0.0,60,0.00,,SKC,0.00,VWS V14.01,2013-09-14 08:53:00,
2013-09-14 01:54:00,68.4,54.0,29.62,East,90,0.0,0.0,60,0.00,,SKC,0.00,VWS V14.01,2013-09-14 08:54:00,
2013-09-14 01:55:00,68.6,54.2,29.62,East,90,0.0,0.0,60,0.00,,SKC,0.00,VWS V14.01,2013-09-14 08:55:00,
2013-09-14 01:56:00,68.4,54.0,29.62,East,90,0.0,0.0,60,0.00,,SKC,0.00,VWS V14.01,2013-09-14 08:56:00,
2013-09-14 01:57:00,68.6,54.2,29.62,East,90,0.0,0.0,60,0.00,,SKC,0.00,VWS V14.01,2013-09-14 08:57:00,
2013-09-14 01:58:00,68.6,54.2,29.62,East,90,0.0,0.0,60,0.00,,SKC,0.00,VWS V14.01,2013-09-14 08:58:00,
2013-09-14 01:59:00,68.6,54.2,29.62,East,90,0.0,0.0,60,0.00,,SKC,0.00,VWS V14.01,2013-09-14 08:59:00,
2013-09-14 02:00:00,68.6,54.2,29.62,East,90,0.0,0.0,60,0.00,,SKC,0.00,VWS V14.01,2013-09-14 09:00:00,
2013-09-14 02:01:00,68.6,54.2,29.62,East,90,0.0,0.0,60,0.00,,SKC,0.00,VWS V14.01,2013-09-14 09:01:00,
2013-09-14 02:02:00,68.6,54.2,29.62,East,90,0.0,0.0,60,0.00,,SKC,0.00,VWS V14.01,2013-09-14 09:02:00,
2013-09-14 02:03:00,68.6,54.2,29.62,East,90,0.0,0.0,60,0.00,,SKC,0.00,VWS V14.01,2013-09-14 09:03:00,
2013-09-14 02:04:00,68.6,54.2,29.62,East,90,0.0,0.0,60,0.00,,SKC,0.00,VWS V14.01,2013-09-14 09:04:00,
2013-09-14 02:05:00,68.4,54.0,29.62,East,90,0.0,1.0,60,0.00,,SKC,0.00,VWS V14.01,2013-09-14 09:05:00,
2013-09-14 02:06:00,68.6,53.7,29.62,East,90,0.0,0.0,59,0.00,,SKC,0.00,VWS V14.01,2013-09-14 09:06:00,
2013-09-14 02:07:00,68.6,54.2,29.62,East,90,0.0,0.0,60,0.00,,SKC,0.00,VWS V14.01,2013-09-14 09:07:00,
2013-09-14 02:08:00,68.4,54.0,29.62,East,90,0.0,0.0,60,0.00,,SKC,0.00,VWS V14.01,2013-09-14 09:08:00,
2013-09-14 02:09:00,68.4,54.0,29.62,East,90,0.0,1.0,60,0.00,,SKC,0.00,VWS V14.01,2013-09-14 09:09:00,
2013-09-14 02:10:00,68.3,53.9,29.62,East,90,0.0,0.0,60,0.00,,SKC,0.00,VWS V14.01,2013-09-14 09:10:00,
2013-09-14 02:11:00,68.4,54.0,29.62,East,90,0.0,0.0,60,0.00,,SKC,0.00,VWS V14.01,2013-09-14 09:11:00,
2013-09-14 02:12:00,68.4,54.0,29.62,East,90,0.0,0.0,60,0.00,,SKC,0.00,VWS V14.01,2013-09-14 09:12:00,
2013-09-14 02:13:00,68.4,54.0,29.62,East,90,0.0,0.0,60,0.00,,SKC,0.00,VWS V14.01,2013-09-14 09:13:00,
2013-09-14 02:14:00,68.3,53.9,29.62,East,90,0.0,0.0,60,0.00,,SKC,0.00,VWS V14.01,2013-09-14 09:14:00,
2013-09-14 02:15:00,68.1,53.7,29.62,East,90,0.0,0.0,60,0.00,,SKC,0.00,VWS V14.01,2013-09-14 09:15:00,
2013-09-14 02:16:00,68.3,53.9,29.62,East,90,0.0,0.0,60,0.00,,SKC,0.00,VWS V14.01,2013-09-14 09:16:00,
2013-09-14 02:17:00,68.3,53.9,29.62,East,90,0.0,0.0,60,0.00,,SKC,0.00,VWS V14.01,2013-09-14 09:17:00,
2013-09-14 02:18:00,68.1,53.7,29.62,East,90,0.0,0.0,60,0.00,,SKC,0.00,VWS V14.01,2013-09-14 09:18:00,
2013-09-14 02:19:00,68.1,53.7,29.62,East,90,0.0,0.0,60,0.00,,SKC,0.00,VWS V14.01,2013-09-14 09:19:00,
2013-09-14 02:20:00,68.1,53.7,29.62,East,90,0.0,0.0,60,0.00,,SKC,0.00,VWS V14.01,2013-09-14 09:20:00,
2013-09-14 02:21:00,68.1,53.7,29.62,East,90,0.0,0.0,60,0.00,,SKC,0.00,VWS V14.01,2013-09-14 09:21:00,
2013-09-14 02:22:00,68.1,53.7,29.62,East,90,0.0,0.0,60,0.00,,SKC,0.00,VWS V14.01,2013-09-14 09:22:00,
2013-09-14 02:23:00,68.1,53.7,29.62,East,90,0.0,0.0,60,0.00,,SKC,0.00,VWS V14.01,2013-09-14 09:23:00,
2013-09-14 02:24:00,68.1,53.7,29.62,East,90,0.0,0.0,60,0.00,,SKC,0.00,VWS V14.01,2013-09-14 09:24:00,
2013-09-14 02:25:00,67.9,54.0,29.62,East,90,0.0,0.0,61,0.00,,SKC,0.00,VWS V14.01,2013-09-14 09:25:00,
2013-09-14 02:26:00,68.1,53.7,29.62,East,90,0.0,0.0,60,0.00,,SKC,0.00,VWS V14.01,2013-09-14 09:26:00,
2013-09-14 02:27:00,68.1,53.7,29.62,East,90,0.0,0.0,60,0.00,,SKC,0.00,VWS V14.01,2013-09-14 09:27:00,
2013-09-14 02:28:00,67.9,53.5,29.62,East,90,0.0,0.0,60,0.00,,SKC,0.00,VWS V14.01,2013-09-14 09:28:00,
2013-09-14 02:29:00,67.9,54.0,29.62,East,90,0.0,0.0,61,0.00,,SKC,0.00,VWS V14.01,2013-09-14 09:29:00,
2013-09-14 02:30:00,67.9,54.0,29.61,East,90,0.0,0.0,61,0.00,,SKC,0.00,VWS V14.01,2013-09-14 09:30:00,
2013-09-14 02:31:00,67.9,54.0,29.61,East,90,0.0,0.0,61,0.00,,SKC,0.00,VWS V14.01,2013-09-14 09:31:00,
2013-09-14 02:32:00,67.9,54.0,29.61,East,90,0.0,0.0,61,0.00,,SKC,0.00,VWS V14.01,2013-09-14 09:32:00,
2013-09-14 02:33:00,67.9,54.0,29.61,East,90,0.0,0.0,61,0.00,,SKC,0.00,VWS V14.01,2013-09-14 09:33:00,
2013-09-14 02:34:00,67.9,54.0,29.61,East,90,0.0,0.0,61,0.00,,SKC,0.00,VWS V14.01,2013-09-14 09:34:00,
2013-09-14 02:35:00,67.8,53.9,29.61,East,90,0.0,0.0,61,0.00,,SKC,0.00,VWS V14.01,2013-09-14 09:35:00,
2013-09-14 02:36:00,67.8,53.9,29.61,East,90,0.0,0.0,61,0.00,,SKC,0.00,VWS V14.01,2013-09-14 09:36:00,
2013-09-14 02:37:00,67.8,53.9,29.61,East,90,0.0,0.0,61,0.00,,SKC,0.00,VWS V14.01,2013-09-14 09:37:00,
2013-09-14 02:38:00,67.8,53.9,29.61,East,90,0.0,0.0,61,0.00,,SKC,0.00,VWS V14.01,2013-09-14 09:38:00,
2013-09-14 02:39:00,67.8,53.9,29.61,East,90,0.0,0.0,61,0.00,,SKC,0.00,VWS V14.01,2013-09-14 09:39:00,
2013-09-14 02:40:00,67.8,53.4,29.61,East,90,0.0,0.0,60,0.00,,SKC,0.00,VWS V14.01,2013-09-14 09:40:00,
2013-09-14 02:41:00,67.6,53.2,29.62,East,90,0.0,0.0,60,0.00,,SKC,0.00,VWS V14.01,2013-09-14 09:41:00,
2013-09-14 02:42:00,67.8,53.4,29.61,East,90,0.0,0.0,60,0.00,,SKC,0.00,VWS V14.01,2013-09-14 09:42:00,
2013-09-14 02:43:00,67.6,53.2,29.61,East,90,0.0,0.0,60,0.00,,SKC,0.00,VWS V14.01,2013-09-14 09:43:00,
2013-09-14 02:44:00,67.6,53.2,29.61,East,90,0.0,0.0,60,0.00,,SKC,0.00,VWS V14.01,2013-09-14 09:44:00,
2013-09-14 02:45:00,67.6,53.2,29.62,East,90,0.0,0.0,60,0.00,,SKC,0.00,VWS V14.01,2013-09-14 09:45:00,
2013-09-14 02:46:00,67.6,53.2,29.62,East,90,0.0,0.0,60,0.00,,SKC,0.00,VWS V14.01,2013-09-14 09:46:00,
2013-09-14 02:47:00,67.6,53.2,29.62,East,90,0.0,0.0,60,0.00,,SKC,0.00,VWS V14.01,2013-09-14 09:47:00,
2013-09-14 02:48:00,67.6,53.2,29.62,East,90,0.0,0.0,60,0.00,,SKC,0.00,VWS V14.01,2013-09-14 09:48:00,
2013-09-14 02:49:00,67.6,53.2,29.62,East,90,0.0,0.0,60,0.00,,SKC,0.00,VWS V14.01,2013-09-14 09:49:00,
2013-09-14 02:50:00,67.6,53.2,29.62,East,90,0.0,0.0,60,0.00,,SKC,0.00,VWS V14.01,2013-09-14 09:50:00,
2013-09-14 02:51:00,67.4,53.5,29.62,East,90,0.0,0.0,61,0.00,,SKC,0.00,VWS V14.01,2013-09-14 09:51:00,
2013-09-14 02:52:00,67.6,53.7,29.62,East,90,0.0,0.0,61,0.00,,SKC,0.00,VWS V14.01,2013-09-14 09:52:00,
2013-09-14 02:53:00,67.4,53.5,29.62,East,90,0.0,0.0,61,0.00,,SKC,0.00,VWS V14.01,2013-09-14 09:53:00,
2013-09-14 02:54:00,67.4,53.5,29.62,East,90,0.0,0.0,61,0.00,,SKC,0.00,VWS V14.01,2013-09-14 09:54:00,
2013-09-14 02:55:00,67.4,53.5,29.62,East,90,0.0,0.0,61,0.00,,SKC,0.00,VWS V14.01,2013-09-14 09:55:00,
2013-09-14 02:56:00,67.1,53.2,29.62,East,90,0.0,0.0,61,0.00,,SKC,0.00,VWS V14.01,2013-09-14 09:56:00,
2013-09-14 02:57:00,67.3,53.8,29.62,East,90,0.0,0.0,62,0.00,,SKC,0.00,VWS V14.01,2013-09-14 09:57:00,
2013-09-14 02:58:00,67.3,53.4,29.62,East,90,0.0,0.0,61,0.00,,SKC,0.00,VWS V14.01,2013-09-14 09:58:00,
2013-09-14 02:59:00,67.3,53.4,29.62,East,90,0.0,0.0,61,0.00,,SKC,0.00,VWS V14.01,2013-09-14 09:59:00,
2013-09-14 03:00:00,67.1,53.2,29.62,East,90,0.0,0.0,61,0.00,,SKC,0.00,VWS V14.01,2013-09-14 10:00:00,
2013-09-14 03:01:00,67.1,53.2,29.62,East,90,0.0,0.0,61,0.00,,SKC,0.00,VWS V14.01,2013-09-14 10:01:00,
2013-09-14 03:02:00,66.9,53.0,29.62,East,90,0.0,0.0,61,0.00,,SKC,0.00,VWS V14.01,2013-09-14 10:02:00,
2013-09-14 03:03:00,67.1,53.2,29.62,East,90,0.0,0.0,61,0.00,,SKC,0.00,VWS V14.01,2013-09-14 10:03:00,
2013-09-14 03:04:00,67.1,53.2,29.62,East,90,0.0,0.0,61,0.00,,SKC,0.00,VWS V14.01,2013-09-14 10:04:00,
2013-09-14 03:05:00,66.9,53.0,29.62,East,90,0.0,0.0,61,0.00,,SKC,0.00,VWS V14.01,2013-09-14 10:05:00,
2013-09-14 03:06:00,66.9,53.0,29.62,East,90,0.0,0.0,61,0.00,,SKC,0.00,VWS V14.01,2013-09-14 10:06:00,
2013-09-14 03:07:00,66.9,53.0,29.62,East,90,0.0,0.0,61,0.00,,SKC,0.00,VWS V14.01,2013-09-14 10:07:00,
2013-09-14 03:08:00,66.9,53.0,29.62,East,90,0.0,0.0,61,0.00,,SKC,0.00,VWS V14.01,2013-09-14 10:08:00,
2013-09-14 03:09:00,66.9,53.0,29.62,East,90,0.0,0.0,61,0.00,,SKC,0.00,VWS V14.01,2013-09-14 10:09:00,
2013-09-14 03:10:00,66.9,53.0,29.62,East,90,0.0,0.0,61,0.00,,SKC,0.00,VWS V14.01,2013-09-14 10:10:00,
2013-09-14 03:11:00,66.9,53.0,29.62,East,90,0.0,0.0,61,0.00,,SKC,0.00,VWS V14.01,2013-09-14 10:11:00,
2013-09-14 03:12:00,66.9,53.0,29.62,East,90,0.0,0.0,61,0.00,,SKC,0.00,VWS V14.01,2013-09-14 10:12:00,
2013-09-14 03:13:00,66.8,52.9,29.62,East,90,0.0,1.0,61,0.00,,SKC,0.00,VWS V14.01,2013-09-14 10:13:00,
2013-09-14 03:14:00,66.8,53.4,29.62,East,90,0.0,0.0,62,0.00,,SKC,0.00,VWS V14.01,2013-09-14 10:14:00,
2013-09-14 03:15:00,66.8,53.4,29.62,East,90,0.0,0.0,62,0.00,,SKC,0.00,VWS V14.01,2013-09-14 10:15:00,
2013-09-14 03:16:00,66.8,52.9,29.62,East,90,1.0,1.0,61,0.00,,SKC,0.00,VWS V14.01,2013-09-14 10:16:00,
2013-09-14 03:17:00,66.8,52.9,29.62,East,90,0.0,1.0,61,0.00,,SKC,0.00,VWS V14.01,2013-09-14 10:17:00,
2013-09-14 03:18:00,66.8,52.9,29.62,East,90,0.0,0.0,61,0.00,,SKC,0.00,VWS V14.01,2013-09-14 10:18:00,
2013-09-14 03:19:00,66.8,52.9,29.62,East,90,0.0,0.0,61,0.00,,SKC,0.00,VWS V14.01,2013-09-14 10:19:00,
2013-09-14 03:20:00,66.8,52.9,29.62,East,90,0.0,0.0,61,0.00,,SKC,0.00,VWS V14.01,2013-09-14 10:20:00,
2013-09-14 03:21:00,66.8,52.9,29.62,East,90,0.0,0.0,61,0.00,,SKC,0.00,VWS V14.01,2013-09-14 10:21:00,
2013-09-14 03:22:00,66.8,52.9,29.62,East,90,0.0,0.0,61,0.00,,SKC,0.00,VWS V14.01,2013-09-14 10:22:00,
2013-09-14 03:23:00,66.8,52.9,29.62,East,90,0.0,0.0,61,0.00,,SKC,0.00,VWS V14.01,2013-09-14 10:23:00,
2013-09-14 03:24:00,66.6,53.2,29.62,East,90,0.0,0.0,62,0.00,,SKC,0.00,VWS V14.01,2013-09-14 10:24:00,
2013-09-14 03:25:00,66.8,53.4,29.62,East,90,0.0,0.0,62,0.00,,SKC,0.00,VWS V14.01,2013-09-14 10:25:00,
2013-09-14 03:26:00,66.8,53.4,29.62,East,90,0.0,0.0,62,0.00,,SKC,0.00,VWS V14.01,2013-09-14 10:26:00,
2013-09-14 03:27:00,66.6,53.2,29.62,East,90,0.0,0.0,62,0.00,,SKC,0.00,VWS V14.01,2013-09-14 10:27:00,
2013-09-14 03:28:00,66.6,53.2,29.62,East,90,0.0,0.0,62,0.00,,SKC,0.00,VWS V14.01,2013-09-14 10:28:00,
2013-09-14 03:29:00,66.6,53.2,29.61,East,90,0.0,0.0,62,0.00,,SKC,0.00,VWS V14.01,2013-09-14 10:29:00,
2013-09-14 03:30:00,66.6,53.2,29.61,East,90,0.0,0.0,62,0.00,,SKC,0.00,VWS V14.01,2013-09-14 10:30:00,
2013-09-14 03:31:00,66.6,53.2,29.61,East,90,0.0,0.0,62,0.00,,SKC,0.00,VWS V14.01,2013-09-14 10:31:00,
2013-09-14 03:32:00,66.6,53.2,29.61,East,90,0.0,0.0,62,0.00,,SKC,0.00,VWS V14.01,2013-09-14 10:32:00,
2013-09-14 03:33:00,66.6,53.2,29.61,East,90,0.0,0.0,62,0.00,,SKC,0.00,VWS V14.01,2013-09-14 10:33:00,
2013-09-14 03:34:00,66.6,53.2,29.61,East,90,0.0,0.0,62,0.00,,SKC,0.00,VWS V14.01,2013-09-14 10:34:00,
2013-09-14 03:35:00,66.6,53.6,29.61,East,90,0.0,0.0,63,0.00,,SKC,0.00,VWS V14.01,2013-09-14 10:35:00,
2013-09-14 03:36:00,66.6,53.6,29.61,East,90,0.0,0.0,63,0.00,,SKC,0.00,VWS V14.01,2013-09-14 10:36:00,
2013-09-14 03:37:00,66.6,53.6,29.61,East,90,0.0,0.0,63,0.00,,SKC,0.00,VWS V14.01,2013-09-14 10:37:00,
2013-09-14 03:38:00,66.6,53.6,29.61,East,90,0.0,0.0,63,0.00,,SKC,0.00,VWS V14.01,2013-09-14 10:38:00,
2013-09-14 03:39:00,66.6,53.6,29.61,East,90,0.0,0.0,63,0.00,,SKC,0.00,VWS V14.01,2013-09-14 10:39:00,
2013-09-14 03:40:00,66.6,53.6,29.61,East,90,0.0,0.0,63,0.00,,SKC,0.00,VWS V14.01,2013-09-14 10:40:00,
2013-09-14 03:41:00,66.6,53.6,29.61,East,90,0.0,0.0,63,0.00,,SKC,0.00,VWS V14.01,2013-09-14 10:41:00,
2013-09-14 03:42:00,66.6,53.6,29.61,East,90,0.0,0.0,63,0.00,,SKC,0.00,VWS V14.01,2013-09-14 10:42:00,
2013-09-14 03:43:00,66.6,53.6,29.61,East,90,0.0,0.0,63,0.00,,SKC,0.00,VWS V14.01,2013-09-14 10:43:00,
2013-09-14 03:44:00,66.6,53.6,29.61,East,90,0.0,0.0,63,0.00,,SKC,0.00,VWS V14.01,2013-09-14 10:44:00,
2013-09-14 03:45:00,66.6,53.6,29.62,East,90,0.0,0.0,63,0.00,,SKC,0.00,VWS V14.01,2013-09-14 10:45:00,
2013-09-14 03:46:00,66.6,53.2,29.62,East,90,0.0,0.0,62,0.00,,SKC,0.00,VWS V14.01,2013-09-14 10:46:00,
2013-09-14 03:47:00,66.6,53.2,29.62,East,90,0.0,0.0,62,0.00,,SKC,0.00,VWS V14.01,2013-09-14 10:47:00,
2013-09-14 03:48:00,66.6,53.2,29.62,East,90,0.0,0.0,62,0.00,,SKC,0.00,VWS V14.01,2013-09-14 10:48:00,
2013-09-14 03:49:00,66.6,53.6,29.62,East,90,0.0,0.0,63,0.00,,SKC,0.00,VWS V14.01,2013-09-14 10:49:00,
2013-09-14 03:50:00,66.4,53.4,29.62,East,90,0.0,0.0,63,0.00,,SKC,0.00,VWS V14.01,2013-09-14 10:50:00,
2013-09-14 03:51:00,66.6,53.6,29.62,East,90,0.0,0.0,63,0.00,,SKC,0.00,VWS V14.01,2013-09-14 10:51:00,
2013-09-14 03:52:00,66.4,53.4,29.62,East,90,0.0,0.0,63,0.00,,SKC,0.00,VWS V14.01,2013-09-14 10:52:00,
2013-09-14 03:53:00,66.4,53.4,29.62,East,90,0.0,0.0,63,0.00,,SKC,0.00,VWS V14.01,2013-09-14 10:53:00,
2013-09-14 03:54:00,66.4,53.4,29.62,East,90,0.0,0.0,63,0.00,,SKC,0.00,VWS V14.01,2013-09-14 10:54:00,
2013-09-14 03:55:00,66.4,53.0,29.62,East,90,0.0,0.0,62,0.00,,SKC,0.00,VWS V14.01,2013-09-14 10:55:00,
2013-09-14 03:56:00,66.4,53.0,29.62,East,90,0.0,0.0,62,0.00,,SKC,0.00,VWS V14.01,2013-09-14 10:56:00,
2013-09-14 03:57:00,66.4,53.0,29.62,East,90,0.0,0.0,62,0.00,,SKC,0.00,VWS V14.01,2013-09-14 10:57:00,
2013-09-14 03:58:00,66.4,53.0,29.62,East,90,0.0,0.0,62,0.00,,SKC,0.00,VWS V14.01,2013-09-14 10:58:00,
2013-09-14 03:59:00,66.4,53.0,29.62,East,90,0.0,0.0,62,0.00,,SKC,0.00,VWS V14.01,2013-09-14 10:59:00,
2013-09-14 04:00:00,66.4,53.0,29.62,East,90,0.0,0.0,62,0.00,,SKC,0.00,VWS V14.01,2013-09-14 11:00:00,
2013-09-14 04:01:00,66.3,53.3,29.62,East,90,0.0,0.0,63,0.00,,SKC,0.00,VWS V14.01,2013-09-14 11:01:00,
2013-09-14 04:02:00,66.3,53.3,29.62,East,90,0.0,0.0,63,0.00,,SKC,0.00,VWS V14.01,2013-09-14 11:02:00,
2013-09-14 04:03:00,66.3,52.9,29.62,East,90,0.0,0.0,62,0.00,,SKC,0.00,VWS V14.01,2013-09-14 11:03:00,
2013-09-14 04:04:00,66.3,52.9,29.62,East,90,0.0,0.0,62,0.00,,SKC,0.00,VWS V14.01,2013-09-14 11:04:00,
2013-09-14 04:05:00,66.3,53.3,29.62,East,90,0.0,0.0,63,0.00,,SKC,0.00,VWS V14.01,2013-09-14 11:05:00,
2013-09-14 04:06:00,66.1,53.6,29.62,East,90,0.0,0.0,64,0.00,,SKC,0.00,VWS V14.01,2013-09-14 11:06:00,
2013-09-14 04:07:00,66.3,53.3,29.62,East,90,0.0,0.0,63,0.00,,SKC,0.00,VWS V14.01,2013-09-14 11:07:00,
2013-09-14 04:08:00,66.1,53.2,29.62,East,90,0.0,0.0,63,0.00,,SKC,0.00,VWS V14.01,2013-09-14 11:08:00,
2013-09-14 04:09:00,66.1,53.2,29.62,East,90,0.0,0.0,63,0.00,,SKC,0.00,VWS V14.01,2013-09-14 11:09:00,
2013-09-14 04:10:00,66.1,53.6,29.62,East,90,0.0,0.0,64,0.00,,SKC,0.00,VWS V14.01,2013-09-14 11:10:00,
2013-09-14 04:11:00,66.1,53.6,29.62,East,90,0.0,0.0,64,0.00,,SKC,0.00,VWS V14.01,2013-09-14 11:11:00,
2013-09-14 04:12:00,66.1,53.2,29.62,East,90,0.0,0.0,63,0.00,,SKC,0.00,VWS V14.01,2013-09-14 11:12:00,
2013-09-14 04:13:00,66.1,53.6,29.62,East,90,0.0,0.0,64,0.00,,SKC,0.00,VWS V14.01,2013-09-14 11:13:00,
2013-09-14 04:14:00,66.1,53.6,29.62,East,90,0.0,0.0,64,0.00,,SKC,0.00,VWS V14.01,2013-09-14 11:14:00,
2013-09-14 04:15:00,66.1,53.6,29.62,East,90,0.0,0.0,64,0.00,,SKC,0.00,VWS V14.01,2013-09-14 11:15:00,
2013-09-14 04:16:00,66.1,53.2,29.62,East,90,0.0,0.0,63,0.00,,SKC,0.00,VWS V14.01,2013-09-14 11:16:00,
2013-09-14 04:17:00,66.1,53.2,29.62,East,90,0.0,0.0,63,0.00,,SKC,0.00,VWS V14.01,2013-09-14 11:17:00,
2013-09-14 04:18:00,66.0,53.5,29.62,East,90,0.0,0.0,64,0.00,,SKC,0.00,VWS V14.01,2013-09-14 11:18:00,
2013-09-14 04:19:00,66.1,53.6,29.62,East,90,0.0,0.0,64,0.00,,SKC,0.00,VWS V14.01,2013-09-14 11:19:00,
2013-09-14 04:20:00,66.1,53.6,29.62,East,90,0.0,0.0,64,0.00,,SKC,0.00,VWS V14.01,2013-09-14 11:20:00,
2013-09-14 04:21:00,66.1,53.6,29.62,East,90,0.0,0.0,64,0.00,,SKC,0.00,VWS V14.01,2013-09-14 11:21:00,
2013-09-14 04:22:00,66.0,53.5,29.62,East,90,0.0,0.0,64,0.00,,SKC,0.00,VWS V14.01,2013-09-14 11:22:00,
2013-09-14 04:23:00,66.0,53.5,29.62,East,93,0.0,0.0,64,0.00,,SKC,0.00,VWS V14.01,2013-09-14 11:23:00,
2013-09-14 04:24:00,66.0,53.5,29.62,East,90,0.0,0.0,64,0.00,,SKC,0.00,VWS V14.01,2013-09-14 11:24:00,
2013-09-14 04:25:00,66.0,53.5,29.62,East,90,0.0,0.0,64,0.00,,SKC,0.00,VWS V14.01,2013-09-14 11:25:00,
2013-09-14 04:26:00,66.0,53.5,29.62,East,90,0.0,0.0,64,0.00,,SKC,0.00,VWS V14.01,2013-09-14 11:26:00,
2013-09-14 04:27:00,66.0,53.5,29.62,East,93,0.0,0.0,64,0.00,,SKC,0.00,VWS V14.01,2013-09-14 11:27:00,
2013-09-14 04:28:00,66.0,53.5,29.62,East,93,0.0,0.0,64,0.00,,SKC,0.00,VWS V14.01,2013-09-14 11:28:00,
2013-09-14 04:29:00,66.0,53.5,29.62,East,93,0.0,0.0,64,0.00,,SKC,0.00,VWS V14.01,2013-09-14 11:29:00,
2013-09-14 04:30:00,66.0,53.5,29.62,East,93,0.0,0.0,64,0.00,,SKC,0.00,VWS V14.01,2013-09-14 11:30:00,
2013-09-14 04:31:00,66.0,53.5,29.62,East,93,0.0,0.0,64,0.00,,SKC,0.00,VWS V14.01,2013-09-14 11:31:00,
2013-09-14 04:32:00,66.0,53.5,29.62,East,93,0.0,0.0,64,0.00,,SKC,0.00,VWS V14.01,2013-09-14 11:32:00,
2013-09-14 04:33:00,66.0,53.5,29.62,East,93,0.0,0.0,64,0.00,,SKC,0.00,VWS V14.01,2013-09-14 11:33:00,
2013-09-14 04:34:00,66.0,53.5,29.62,East,93,0.0,0.0,64,0.00,,SKC,0.00,VWS V14.01,2013-09-14 11:34:00,
2013-09-14 04:35:00,66.0,53.5,29.62,East,93,0.0,0.0,64,0.00,,SKC,0.00,VWS V14.01,2013-09-14 11:35:00,
2013-09-14 04:36:00,66.0,53.5,29.62,East,93,0.0,0.0,64,0.00,,SKC,0.00,VWS V14.01,2013-09-14 11:36:00,
2013-09-14 04:37:00,66.0,53.5,29.62,East,93,0.0,0.0,64,0.00,,SKC,0.00,VWS V14.01,2013-09-14 11:37:00,
2013-09-14 04:38:00,66.0,53.5,29.62,East,93,0.0,0.0,64,0.00,,SKC,0.00,VWS V14.01,2013-09-14 11:38:00,
2013-09-14 04:39:00,65.8,53.3,29.62,East,93,0.0,1.0,64,0.00,,SKC,0.00,VWS V14.01,2013-09-14 11:39:00,
2013-09-14 04:40:00,66.0,53.5,29.62,East,93,0.0,0.0,64,0.00,,SKC,0.00,VWS V14.01,2013-09-14 11:40:00,
2013-09-14 04:41:00,65.8,53.3,29.62,East,93,0.0,0.0,64,0.00,,SKC,0.00,VWS V14.01,2013-09-14 11:41:00,
2013-09-14 04:42:00,65.8,53.3,29.62,East,93,0.0,0.0,64,0.00,,SKC,0.00,VWS V14.01,2013-09-14 11:42:00,
2013-09-14 04:43:00,65.8,53.3,29.62,East,93,0.0,1.0,64,0.00,,SKC,0.00,VWS V14.01,2013-09-14 11:43:00,
2013-09-14 04:44:00,65.8,53.3,29.62,East,93,0.0,0.0,64,0.00,,SKC,0.00,VWS V14.01,2013-09-14 11:44:00,
2013-09-14 04:45:00,65.6,53.1,29.62,East,93,0.0,0.0,64,0.00,,SKC,0.00,VWS V14.01,2013-09-14 11:45:00,
2013-09-14 04:46:00,65.8,53.3,29.62,East,93,0.0,0.0,64,0.00,,SKC,0.00,VWS V14.01,2013-09-14 11:46:00,
2013-09-14 04:47:00,65.8,53.3,29.62,East,93,0.0,0.0,64,0.00,,SKC,0.00,VWS V14.01,2013-09-14 11:47:00,
2013-09-14 04:48:00,65.6,53.1,29.62,East,93,0.0,0.0,64,0.00,,SKC,0.00,VWS V14.01,2013-09-14 11:48:00,
2013-09-14 04:49:00,65.6,53.1,29.62,East,93,0.0,0.0,64,0.00,,SKC,0.00,VWS V14.01,2013-09-14 11:49:00,
2013-09-14 04:50:00,65.6,53.1,29.62,East,93,0.0,0.0,64,0.00,,SKC,0.00,VWS V14.01,2013-09-14 11:50:00,
2013-09-14 04:51:00,65.5,53.0,29.62,East,93,0.0,0.0,64,0.00,,SKC,0.00,VWS V14.01,2013-09-14 11:51:00,
2013-09-14 04:52:00,65.6,53.1,29.62,East,93,0.0,0.0,64,0.00,,SKC,0.00,VWS V14.01,2013-09-14 11:52:00,
2013-09-14 04:53:00,65.6,53.1,29.62,East,93,0.0,0.0,64,0.00,,SKC,0.00,VWS V14.01,2013-09-14 11:53:00,
2013-09-14 04:54:00,65.6,53.1,29.62,East,93,0.0,0.0,64,0.00,,SKC,0.00,VWS V14.01,2013-09-14 11:54:00,
2013-09-14 04:55:00,65.5,53.0,29.62,East,93,0.0,0.0,64,0.00,,SKC,0.00,VWS V14.01,2013-09-14 11:55:00,
2013-09-14 04:56:00,65.5,53.0,29.62,East,93,0.0,0.0,64,0.00,,SKC,0.00,VWS V14.01,2013-09-14 11:56:00,
2013-09-14 04:57:00,65.5,53.4,29.62,East,93,0.0,0.0,65,0.00,,SKC,0.00,VWS V14.01,2013-09-14 11:57:00,
2013-09-14 04:58:00,65.5,53.0,29.62,East,93,0.0,0.0,64,0.00,,SKC,0.00,VWS V14.01,2013-09-14 11:58:00,
2013-09-14 04:59:00,65.5,53.0,29.62,East,93,0.0,0.0,64,0.00,,SKC,0.00,VWS V14.01,2013-09-14 11:59:00,
2013-09-14 05:00:00,65.5,53.0,29.62,East,93,0.0,0.0,64,0.00,,SKC,0.00,VWS V14.01,2013-09-14 12:00:00,
2013-09-14 05:01:00,65.5,53.4,29.62,East,93,0.0,0.0,65,0.00,,SKC,0.00,VWS V14.01,2013-09-14 12:01:00,
2013-09-14 05:02:00,65.3,53.2,29.62,East,93,0.0,0.0,65,0.00,,SKC,0.00,VWS V14.01,2013-09-14 12:02:00,
2013-09-14 05:03:00,65.3,53.2,29.62,East,93,0.0,0.0,65,0.00,,SKC,0.00,VWS V14.01,2013-09-14 12:03:00,
2013-09-14 05:04:00,65.3,53.2,29.62,East,93,0.0,0.0,65,0.00,,SKC,0.00,VWS V14.01,2013-09-14 12:04:00,
2013-09-14 05:05:00,65.3,53.2,29.62,East,93,0.0,0.0,65,0.00,,SKC,0.00,VWS V14.01,2013-09-14 12:05:00,
2013-09-14 05:06:00,65.3,53.2,29.62,East,93,0.0,0.0,65,0.00,,SKC,0.00,VWS V14.01,2013-09-14 12:06:00,
2013-09-14 05:07:00,65.2,53.2,29.62,East,93,0.0,0.0,65,0.00,,SKC,0.00,VWS V14.01,2013-09-14 12:07:00,
2013-09-14 05:08:00,65.2,53.2,29.62,East,93,0.0,0.0,65,0.00,,SKC,0.00,VWS V14.01,2013-09-14 12:08:00,
2013-09-14 05:09:00,65.2,53.2,29.62,East,93,0.0,0.0,65,0.00,,SKC,0.00,VWS V14.01,2013-09-14 12:09:00,
2013-09-14 05:10:00,65.2,53.2,29.62,East,93,0.0,0.0,65,0.00,,SKC,0.00,VWS V14.01,2013-09-14 12:10:00,
2013-09-14 05:11:00,65.2,53.2,29.62,East,93,0.0,0.0,65,0.00,,SKC,0.00,VWS V14.01,2013-09-14 12:11:00,
2013-09-14 05:12:00,64.8,52.8,29.62,East,93,0.0,0.0,65,0.00,,SKC,0.00,VWS V14.01,2013-09-14 12:12:00,
2013-09-14 05:13:00,65.0,53.0,29.62,East,93,0.0,0.0,65,0.00,,SKC,0.00,VWS V14.01,2013-09-14 12:13:00,
2013-09-14 05:14:00,65.0,53.0,29.62,East,93,0.0,0.0,65,0.00,,SKC,0.00,VWS V14.01,2013-09-14 12:14:00,
2013-09-14 05:15:00,65.0,53.0,29.62,East,93,0.0,0.0,65,0.00,,SKC,0.00,VWS V14.01,2013-09-14 12:15:00,
2013-09-14 05:16:00,64.8,52.8,29.62,East,93,0.0,0.0,65,0.00,,SKC,0.00,VWS V14.01,2013-09-14 12:16:00,
2013-09-14 05:17:00,64.8,52.8,29.62,East,93,0.0,0.0,65,0.00,,SKC,0.00,VWS V14.01,2013-09-14 12:17:00,
2013-09-14 05:18:00,64.7,52.7,29.62,East,93,0.0,0.0,65,0.00,,SKC,0.00,VWS V14.01,2013-09-14 12:18:00,
2013-09-14 05:19:00,64.7,52.7,29.62,East,93,0.0,0.0,65,0.00,,SKC,0.00,VWS V14.01,2013-09-14 12:19:00,
2013-09-14 05:20:00,64.7,52.7,29.62,East,93,0.0,0.0,65,0.00,,SKC,0.00,VWS V14.01,2013-09-14 12:20:00,
2013-09-14 05:21:00,64.7,52.7,29.62,East,93,0.0,0.0,65,0.00,,SKC,0.00,VWS V14.01,2013-09-14 12:21:00,
2013-09-14 05:22:00,64.7,52.7,29.62,East,93,0.0,0.0,65,0.00,,SKC,0.00,VWS V14.01,2013-09-14 12:22:00,
2013-09-14 05:23:00,64.3,52.3,29.62,ESE,106,0.0,0.0,65,0.00,,SKC,0.00,VWS V14.01,2013-09-14 12:23:00,
2013-09-14 05:24:00,64.5,52.5,29.62,ESE,106,0.0,0.0,65,0.00,,SKC,0.00,VWS V14.01,2013-09-14 12:24:00,
2013-09-14 05:25:00,64.3,52.3,29.62,ESE,106,0.0,0.0,65,0.00,,SKC,0.00,VWS V14.01,2013-09-14 12:25:00,
2013-09-14 05:26:00,64.3,52.3,29.62,ESE,106,0.0,0.0,65,0.00,,SKC,0.00,VWS V14.01,2013-09-14 12:26:00,
2013-09-14 05:27:00,64.3,52.3,29.62,ESE,106,0.0,0.0,65,0.00,,SKC,0.00,VWS V14.01,2013-09-14 12:27:00,
2013-09-14 05:28:00,64.0,52.0,29.64,ESE,109,0.0,0.0,65,0.00,,SKC,0.00,VWS V14.01,2013-09-14 12:28:00,
2013-09-14 05:29:00,64.2,52.2,29.62,ESE,109,0.0,0.0,65,0.00,,SKC,0.00,VWS V14.01,2013-09-14 12:29:00,
2013-09-14 05:30:00,64.2,52.2,29.64,ESE,109,0.0,0.0,65,0.00,,SKC,0.00,VWS V14.01,2013-09-14 12:30:00,
2013-09-14 05:31:00,64.0,52.0,29.64,ESE,109,0.0,0.0,65,0.00,,SKC,0.00,VWS V14.01,2013-09-14 12:31:00,
2013-09-14 05:32:00,64.0,52.0,29.64,ESE,109,0.0,0.0,65,0.00,,SKC,0.00,VWS V14.01,2013-09-14 12:32:00,
2013-09-14 05:33:00,63.7,51.7,29.64,ESE,109,0.0,0.0,65,0.00,,SKC,0.00,VWS V14.01,2013-09-14 12:33:00,
2013-09-14 05:34:00,63.9,51.9,29.64,ESE,109,0.0,0.0,65,0.00,,SKC,0.00,VWS V14.01,2013-09-14 12:34:00,
2013-09-14 05:35:00,63.9,51.9,29.64,ESE,109,0.0,0.0,65,0.00,,SKC,0.00,VWS V14.01,2013-09-14 12:35:00,
2013-09-14 05:36:00,63.7,51.7,29.64,ESE,109,0.0,0.0,65,0.00,,SKC,0.00,VWS V14.01,2013-09-14 12:36:00,
2013-09-14 05:37:00,63.7,51.7,29.64,ESE,109,0.0,0.0,65,0.00,,SKC,0.00,VWS V14.01,2013-09-14 12:37:00,
2013-09-14 05:38:00,63.7,51.7,29.64,ESE,109,0.0,0.0,65,0.00,,SKC,0.00,VWS V14.01,2013-09-14 12:38:00,
2013-09-14 05:39:00,63.4,51.0,29.64,East,96,0.0,0.0,64,0.00,,SKC,0.00,VWS V14.01,2013-09-14 12:39:00,
2013-09-14 05:40:00,63.5,51.5,29.64,ESE,109,0.0,0.0,65,0.00,,SKC,0.00,VWS V14.01,2013-09-14 12:40:00,
2013-09-14 05:41:00,63.5,51.5,29.64,ESE,109,0.0,0.0,65,0.00,,SKC,0.00,VWS V14.01,2013-09-14 12:41:00,
2013-09-14 05:42:00,63.4,51.4,29.64,East,96,0.0,2.0,65,0.00,,SKC,0.00,VWS V14.01,2013-09-14 12:42:00,
2013-09-14 05:43:00,63.4,51.0,29.64,East,96,0.0,0.0,64,0.00,,SKC,0.00,VWS V14.01,2013-09-14 12:43:00,
2013-09-14 05:44:00,63.4,51.0,29.64,East,96,0.0,0.0,64,0.00,,SKC,0.00,VWS V14.01,2013-09-14 12:44:00,
2013-09-14 05:45:00,63.2,51.2,29.64,East,96,0.0,0.0,65,0.00,,SKC,0.00,VWS V14.01,2013-09-14 12:45:00,
2013-09-14 05:46:00,63.2,51.2,29.64,East,96,0.0,0.0,65,0.00,,SKC,0.00,VWS V14.01,2013-09-14 12:46:00,
2013-09-14 05:47:00,63.2,51.2,29.64,East,96,0.0,0.0,65,0.00,,SKC,0.00,VWS V14.01,2013-09-14 12:47:00,
2013-09-14 05:48:00,63.2,51.2,29.64,East,96,0.0,0.0,65,0.00,,SKC,0.00,VWS V14.01,2013-09-14 12:48:00,
2013-09-14 05:49:00,63.2,51.2,29.64,East,96,0.0,0.0,65,0.00,,SKC,0.00,VWS V14.01,2013-09-14 12:49:00,
2013-09-14 05:50:00,62.9,51.0,29.64,East,97,0.0,0.0,65,0.00,,SKC,0.00,VWS V14.01,2013-09-14 12:50:00,
2013-09-14 05:51:00,63.1,51.2,29.64,East,96,0.0,0.0,65,0.00,,SKC,0.00,VWS V14.01,2013-09-14 12:51:00,
2013-09-14 05:52:00,63.1,51.2,29.64,East,95,0.0,0.0,65,0.00,,SKC,0.00,VWS V14.01,2013-09-14 12:52:00,
2013-09-14 05:53:00,62.9,51.0,29.64,East,97,0.0,0.0,65,0.00,,SKC,0.00,VWS V14.01,2013-09-14 12:53:00,
2013-09-14 05:54:00,62.9,51.0,29.64,East,97,0.0,0.0,65,0.00,,SKC,0.00,VWS V14.01,2013-09-14 12:54:00,
2013-09-14 05:55:00,62.7,50.8,29.64,East,97,0.0,0.0,65,0.00,,SKC,0.00,VWS V14.01,2013-09-14 12:55:00,
2013-09-14 05:56:00,62.9,51.0,29.64,East,97,0.0,0.0,65,0.00,,SKC,0.00,VWS V14.01,2013-09-14 12:56:00,
2013-09-14 05:57:00,62.9,51.0,29.64,East,97,0.0,0.0,65,0.00,,SKC,0.00,VWS V14.01,2013-09-14 12:57:00,
2013-09-14 05:58:00,62.7,50.8,29.64,East,97,0.0,0.0,65,0.00,,SKC,0.00,VWS V14.01,2013-09-14 12:58:00,
2013-09-14 05:59:00,62.7,50.8,29.64,East,97,0.0,0.0,65,0.00,,SKC,0.00,VWS V14.01,2013-09-14 12:59:00,
2013-09-14 06:00:00,62.7,50.8,29.64,East,97,0.0,0.0,65,0.00,,SKC,0.00,VWS V14.01,2013-09-14 13:00:00,
2013-09-14 06:01:00,62.6,51.1,29.64,East,93,0.0,0.0,66,0.00,,SKC,0.00,VWS V14.01,2013-09-14 13:01:00,
2013-09-14 06:02:00,62.6,51.1,29.64,East,99,0.0,0.0,66,0.00,,SKC,0.00,VWS V14.01,2013-09-14 13:02:00,
2013-09-14 06:03:00,62.6,51.1,29.64,East,96,0.0,0.0,66,0.00,,SKC,0.00,VWS V14.01,2013-09-14 13:03:00,
2013-09-14 06:04:00,62.6,51.1,29.64,East,96,0.0,0.0,66,0.00,,SKC,0.00,VWS V14.01,2013-09-14 13:04:00,
2013-09-14 06:05:00,62.6,51.1,29.64,East,93,0.0,0.0,66,0.00,,SKC,0.00,VWS V14.01,2013-09-14 13:05:00,
2013-09-14 06:06:00,62.4,50.9,29.64,East,93,0.0,0.0,66,0.00,,SKC,0.00,VWS V14.01,2013-09-14 13:06:00,
2013-09-14 06:07:00,62.3,50.8,29.64,East,97,0.0,0.0,66,0.00,,SKC,0.00,VWS V14.01,2013-09-14 13:07:00,
2013-09-14 06:08:00,62.3,50.8,29.64,ENE,71,0.0,0.0,66,0.00,,SKC,0.00,VWS V14.01,2013-09-14 13:08:00,
2013-09-14 06:09:00,62.3,50.8,29.64,East,97,0.0,1.0,66,0.00,,SKC,0.00,VWS V14.01,2013-09-14 13:09:00,
2013-09-14 06:10:00,62.3,50.8,29.64,East,97,0.0,0.0,66,0.00,,SKC,0.00,VWS V14.01,2013-09-14 13:10:00,
2013-09-14 06:11:00,62.3,50.8,29.64,East,97,0.0,0.0,66,0.00,,SKC,0.00,VWS V14.01,2013-09-14 13:11:00,
2013-09-14 06:12:00,62.1,50.6,29.64,East,96,0.0,2.0,66,0.00,,SKC,0.00,VWS V14.01,2013-09-14 13:12:00,
2013-09-14 06:13:00,62.3,50.8,29.64,East,83,0.0,2.0,66,0.00,,SKC,0.00,VWS V14.01,2013-09-14 13:13:00,
2013-09-14 06:14:00,62.1,50.6,29.64,East,83,0.0,0.0,66,0.00,,SKC,0.00,VWS V14.01,2013-09-14 13:14:00,
2013-09-14 06:15:00,62.1,50.6,29.64,East,83,0.0,0.0,66,0.00,,SKC,0.00,VWS V14.01,2013-09-14 13:15:00,
2013-09-14 06:16:00,62.1,50.6,29.64,East,96,0.0,2.0,66,0.00,,SKC,0.00,VWS V14.01,2013-09-14 13:16:00,
2013-09-14 06:17:00,62.0,50.5,29.64,East,96,0.0,0.0,66,0.00,,SKC,0.00,VWS V14.01,2013-09-14 13:17:00,
2013-09-14 06:18:00,62.1,50.6,29.64,ESE,102,0.0,1.0,66,0.00,,SKC,0.00,VWS V14.01,2013-09-14 13:18:00,
2013-09-14 06:19:00,62.0,50.5,29.64,ENE,76,0.0,0.0,66,0.00,,SKC,0.00,VWS V14.01,2013-09-14 13:19:00,
2013-09-14 06:20:00,62.0,50.5,29.64,East,96,0.0,0.0,66,0.00,,SKC,0.00,VWS V14.01,2013-09-14 13:20:00,
2013-09-14 06:21:00,62.0,50.5,29.64,East,96,0.0,0.0,66,0.00,,SKC,0.00,VWS V14.01,2013-09-14 13:21:00,
2013-09-14 06:22:00,62.0,50.5,29.64,ESE,120,0.0,0.0,66,0.00,,SKC,0.00,VWS V14.01,2013-09-14 13:22:00,
2013-09-14 06:23:00,62.0,50.5,29.64,ENE,76,0.0,0.0,66,0.00,,SKC,0.00,VWS V14.01,2013-09-14 13:23:00,
2013-09-14 06:24:00,62.0,50.5,29.64,ESE,106,0.0,0.0,66,0.00,,SKC,0.00,VWS V14.01,2013-09-14 13:24:00,
2013-09-14 06:25:00,62.0,50.5,29.64,ENE,76,0.0,1.0,66,0.00,,SKC,0.00,VWS V14.01,2013-09-14 13:25:00,
2013-09-14 06:26:00,62.0,50.5,29.64,ENE,76,0.0,0.0,66,0.00,,SKC,0.00,VWS V14.01,2013-09-14 13:26:00,
2013-09-14 06:27:00,62.0,50.5,29.64,ENE,76,0.0,0.0,66,0.00,,SKC,0.00,VWS V14.01,2013-09-14 13:27:00,
2013-09-14 06:28:00,62.0,50.9,29.64,East,97,1.0,2.0,67,0.00,,SKC,0.00,VWS V14.01,2013-09-14 13:28:00,
2013-09-14 06:29:00,62.0,50.5,29.64,ENE,76,0.0,0.0,66,0.00,,SKC,0.00,VWS V14.01,2013-09-14 13:29:00,
2013-09-14 06:30:00,62.0,50.5,29.64,East,79,0.0,0.0,66,0.00,,SKC,0.00,VWS V14.01,2013-09-14 13:30:00,
2013-09-14 06:31:00,62.0,50.5,29.64,East,79,0.0,0.0,66,0.00,,SKC,0.00,VWS V14.01,2013-09-14 13:31:00,
2013-09-14 06:32:00,62.0,50.9,29.64,East,97,1.0,2.0,67,0.00,,SKC,0.00,VWS V14.01,2013-09-14 13:32:00,
2013-09-14 06:33:00,61.8,50.7,29.64,NNE,16,0.0,0.0,67,0.00,,SKC,0.00,VWS V14.01,2013-09-14 13:33:00,
2013-09-14 06:34:00,61.8,50.7,29.64,NNE,16,0.0,0.0,67,0.00,,SKC,0.00,VWS V14.01,2013-09-14 13:34:00,
2013-09-14 06:35:00,62.0,50.9,29.64,NNE,16,0.0,0.0,67,0.00,,SKC,0.00,VWS V14.01,2013-09-14 13:35:00,
2013-09-14 06:36:00,61.8,50.7,29.64,NNE,16,0.0,0.0,67,0.00,,SKC,0.00,VWS V14.01,2013-09-14 13:36:00,
2013-09-14 06:37:00,61.8,50.7,29.64,NNE,16,0.0,0.0,67,0.00,,SKC,0.00,VWS V14.01,2013-09-14 13:37:00,
2013-09-14 06:38:00,61.8,51.1,29.64,East,89,0.0,0.0,68,0.00,,SKC,0.00,VWS V14.01,2013-09-14 13:38:00,
2013-09-14 06:39:00,61.8,50.7,29.64,NNE,16,0.0,0.0,67,0.00,,SKC,0.00,VWS V14.01,2013-09-14 13:39:00,
2013-09-14 06:40:00,61.8,50.7,29.64,East,82,0.0,2.0,67,0.00,,SKC,0.00,VWS V14.01,2013-09-14 13:40:00,
2013-09-14 06:41:00,61.8,51.1,29.64,East,80,0.0,0.0,68,0.00,,SKC,0.00,VWS V14.01,2013-09-14 13:41:00,
2013-09-14 06:42:00,61.8,51.1,29.64,East,89,0.0,0.0,68,0.00,,SKC,0.00,VWS V14.01,2013-09-14 13:42:00,
2013-09-14 06:43:00,61.8,51.1,29.65,ESE,116,0.0,0.0,68,0.00,,SKC,0.00,VWS V14.01,2013-09-14 13:43:00,
2013-09-14 06:44:00,61.8,51.1,29.64,East,86,0.0,0.0,68,0.00,,SKC,0.00,VWS V14.01,2013-09-14 13:44:00,
2013-09-14 06:45:00,61.8,51.1,29.65,ESE,103,0.0,0.0,68,0.00,,SKC,0.00,VWS V14.01,2013-09-14 13:45:00,
2013-09-14 06:46:00,61.8,51.1,29.65,ESE,116,0.0,0.0,68,0.00,,SKC,0.00,VWS V14.01,2013-09-14 13:46:00,
2013-09-14 06:47:00,61.8,51.1,29.65,ESE,116,0.0,0.0,68,0.00,,SKC,0.00,VWS V14.01,2013-09-14 13:47:00,
2013-09-14 06:48:00,61.8,51.1,29.65,ESE,116,0.0,0.0,68,0.00,,SKC,0.00,VWS V14.01,2013-09-14 13:48:00,
2013-09-14 06:49:00,61.6,51.0,29.65,East,97,0.0,0.0,68,0.00,,SKC,0.00,VWS V14.01,2013-09-14 13:49:00,
2013-09-14 06:50:00,61.8,51.1,29.65,ESE,116,0.0,0.0,68,0.00,,SKC,0.00,VWS V14.01,2013-09-14 13:50:00,
2013-09-14 06:51:00,61.6,51.0,29.65,ESE,116,0.0,0.0,68,0.00,,SKC,0.00,VWS V14.01,2013-09-14 13:51:00,
2013-09-14 06:52:00,61.6,51.0,29.65,ESE,116,0.0,0.0,68,0.00,,SKC,0.00,VWS V14.01,2013-09-14 13:52:00,
2013-09-14 06:53:00,61.6,51.0,29.65,East,97,0.0,0.0,68,0.00,,SKC,0.00,VWS V14.01,2013-09-14 13:53:00,
2013-09-14 06:54:00,61.6,51.0,29.65,ESE,103,0.0,0.0,68,0.00,,SKC,0.00,VWS V14.01,2013-09-14 13:54:00,
2013-09-14 06:55:00,61.8,51.1,29.65,ESE,109,0.0,0.0,68,0.00,,SKC,0.00,VWS V14.01,2013-09-14 13:55:00,
2013-09-14 06:56:00,61.6,51.0,29.65,ESE,107,0.0,1.0,68,0.00,,SKC,0.00,VWS V14.01,2013-09-14 13:56:00,
2013-09-14 06:57:00,61.6,51.0,29.65,ESE,107,0.0,1.0,68,0.00,,SKC,0.00,VWS V14.01,2013-09-14 13:57:00,
2013-09-14 06:58:00,61.6,51.3,29.65,ESE,109,0.0,0.0,69,0.00,,SKC,0.00,VWS V14.01,2013-09-14 13:58:00,
2013-09-14 06:59:00,61.8,51.1,29.65,ESE,109,0.0,0.0,68,0.00,,SKC,0.00,VWS V14.01,2013-09-14 13:59:00,
2013-09-14 07:00:00,61.8,51.5,29.65,ESE,109,0.0,0.0,69,0.00,,SKC,0.00,VWS V14.01,2013-09-14 14:00:00,
2013-09-14 07:01:00,61.8,51.1,29.65,ESE,109,0.0,0.0,68,0.00,,SKC,0.00,VWS V14.01,2013-09-14 14:01:00,
2013-09-14 07:02:00,61.8,51.5,29.65,ESE,109,0.0,0.0,69,0.00,,SKC,0.00,VWS V14.01,2013-09-14 14:02:00,
2013-09-14 07:03:00,61.8,51.5,29.65,ESE,109,0.0,0.0,69,0.00,,SKC,0.00,VWS V14.01,2013-09-14 14:03:00,
2013-09-14 07:04:00,61.8,51.5,29.65,ESE,109,0.0,0.0,69,0.00,,SKC,0.00,VWS V14.01,2013-09-14 14:04:00,
2013-09-14 07:05:00,61.8,51.5,29.65,ESE,109,0.0,0.0,69,0.00,,SKC,0.00,VWS V14.01,2013-09-14 14:05:00,
2013-09-14 07:06:00,61.8,51.5,29.65,ESE,109,0.0,0.0,69,0.00,,SKC,0.00,VWS V14.01,2013-09-14 14:06:00,
2013-09-14 07:07:00,61.8,51.5,29.65,ESE,109,0.0,0.0,69,0.00,,SKC,0.00,VWS V14.01,2013-09-14 14:07:00,
2013-09-14 07:08:00,61.8,51.5,29.65,ESE,109,0.0,0.0,69,0.00,,SKC,0.00,VWS V14.01,2013-09-14 14:08:00,
2013-09-14 07:09:00,61.8,51.5,29.65,ESE,109,0.0,0.0,69,0.00,,SKC,0.00,VWS V14.01,2013-09-14 14:09:00,
2013-09-14 07:10:00,61.8,51.5,29.65,ESE,109,0.0,0.0,69,0.00,,SKC,0.00,VWS V14.01,2013-09-14 14:10:00,
2013-09-14 07:11:00,61.8,51.5,29.65,ESE,109,0.0,0.0,69,0.00,,SKC,0.00,VWS V14.01,2013-09-14 14:11:00,
2013-09-14 07:12:00,61.8,51.5,29.65,ESE,109,0.0,0.0,69,0.00,,SKC,0.00,VWS V14.01,2013-09-14 14:12:00,
2013-09-14 07:13:00,61.8,51.5,29.65,ESE,109,0.0,0.0,69,0.00,,SKC,0.00,VWS V14.01,2013-09-14 14:13:00,
2013-09-14 07:14:00,61.8,51.5,29.65,ESE,109,0.0,0.0,69,0.00,,SKC,0.00,VWS V14.01,2013-09-14 14:14:00,
2013-09-14 07:15:00,61.8,51.5,29.67,ESE,109,0.0,0.0,69,0.00,,SKC,0.00,VWS V14.01,2013-09-14 14:15:00,
2013-09-14 07:16:00,62.0,51.7,29.67,ESE,109,0.0,0.0,69,0.00,,SKC,0.00,VWS V14.01,2013-09-14 14:16:00,
2013-09-14 07:17:00,61.8,51.5,29.67,ESE,109,0.0,0.0,69,0.00,,SKC,0.00,VWS V14.01,2013-09-14 14:17:00,
2013-09-14 07:18:00,61.8,51.5,29.67,ESE,109,0.0,0.0,69,0.00,,SKC,0.00,VWS V14.01,2013-09-14 14:18:00,
2013-09-14 07:19:00,61.8,51.5,29.67,ESE,109,0.0,0.0,69,0.00,,SKC,0.00,VWS V14.01,2013-09-14 14:19:00,
2013-09-14 07:20:00,62.0,51.7,29.67,ESE,109,0.0,0.0,69,0.00,,SKC,0.00,VWS V14.01,2013-09-14 14:20:00,
2013-09-14 07:21:00,62.0,51.7,29.67,ESE,109,0.0,0.0,69,0.00,,SKC,0.00,VWS V14.01,2013-09-14 14:21:00,
2013-09-14 07:22:00,62.0,51.7,29.67,ESE,109,0.0,0.0,69,0.00,,SKC,0.00,VWS V14.01,2013-09-14 14:22:00,
2013-09-14 07:23:00,62.0,51.7,29.67,ESE,109,0.0,0.0,69,0.00,,SKC,0.00,VWS V14.01,2013-09-14 14:23:00,
2013-09-14 07:24:00,62.0,51.7,29.67,ESE,109,0.0,0.0,69,0.00,,SKC,0.00,VWS V14.01,2013-09-14 14:24:00,
2013-09-14 07:25:00,62.0,51.7,29.67,ESE,109,0.0,0.0,69,0.00,,SKC,0.00,VWS V14.01,2013-09-14 14:25:00,
2013-09-14 07:26:00,62.0,51.7,29.67,ESE,109,0.0,0.0,69,0.00,,SKC,0.00,VWS V14.01,2013-09-14 14:26:00,
2013-09-14 07:27:00,62.0,51.7,29.67,East,85,0.0,1.0,69,0.00,,SKC,0.00,VWS V14.01,2013-09-14 14:27:00,
2013-09-14 07:28:00,62.1,51.8,29.67,SSE,167,0.0,1.0,69,0.00,,SKC,0.00,VWS V14.01,2013-09-14 14:28:00,
2013-09-14 07:29:00,62.0,51.7,29.67,East,85,0.0,0.0,69,0.00,,SKC,0.00,VWS V14.01,2013-09-14 14:29:00,
2013-09-14 07:30:00,62.0,51.7,29.67,ESE,102,0.0,1.0,69,0.00,,SKC,0.00,VWS V14.01,2013-09-14 14:30:00,
2013-09-14 07:31:00,62.1,51.8,29.67,SSE,167,0.0,1.0,69,0.00,,SKC,0.00,VWS V14.01,2013-09-14 14:31:00,
2013-09-14 07:32:00,62.1,51.8,29.67,SSE,167,0.0,1.0,69,0.00,,SKC,0.00,VWS V14.01,2013-09-14 14:32:00,
2013-09-14 07:33:00,62.3,51.6,29.67,SSE,168,0.0,1.0,68,0.00,,SKC,0.00,VWS V14.01,2013-09-14 14:33:00,
2013-09-14 07:34:00,62.1,51.8,29.67,SSE,167,0.0,0.0,69,0.00,,SKC,0.00,VWS V14.01,2013-09-14 14:34:00,
2013-09-14 07:35:00,62.1,51.8,29.67,SSE,167,0.0,1.0,69,0.00,,SKC,0.00,VWS V14.01,2013-09-14 14:35:00,
2013-09-14 07:36:00,62.3,51.6,29.67,SSE,167,0.0,0.0,68,0.00,,SKC,0.00,VWS V14.01,2013-09-14 14:36:00,
2013-09-14 07:37:00,62.3,51.6,29.67,SSE,168,0.0,1.0,68,0.00,,SKC,0.00,VWS V14.01,2013-09-14 14:37:00,
2013-09-14 07:38:00,62.4,51.7,29.67,SSE,168,0.0,1.0,68,0.00,,SKC,0.00,VWS V14.01,2013-09-14 14:38:00,
2013-09-14 07:39:00,62.3,51.6,29.67,SSE,168,0.0,0.0,68,0.00,,SKC,0.00,VWS V14.01,2013-09-14 14:39:00,
2013-09-14 07:40:00,62.4,51.7,29.67,SSE,168,0.0,1.0,68,0.00,,SKC,0.00,VWS V14.01,2013-09-14 14:40:00,
2013-09-14 07:41:00,62.4,51.7,29.67,SSE,168,1.0,1.0,68,0.00,,SKC,0.00,VWS V14.01,2013-09-14 14:41:00,
2013-09-14 07:42:00,62.4,51.7,29.67,SSE,168,0.0,1.0,68,0.00,,SKC,0.00,VWS V14.01,2013-09-14 14:42:00,
2013-09-14 07:43:00,62.4,51.7,29.67,SSE,168,0.0,0.0,68,0.00,,SKC,0.00,VWS V14.01,2013-09-14 14:43:00,
2013-09-14 07:44:00,62.6,51.9,29.67,South,172,0.0,1.0,68,0.00,,SKC,0.00,VWS V14.01,2013-09-14 14:44:00,
2013-09-14 07:45:00,62.6,51.9,29.67,SSE,168,0.0,0.0,68,0.00,,SKC,0.00,VWS V14.01,2013-09-14 14:45:00,
2013-09-14 07:46:00,62.6,51.9,29.67,SSE,168,0.0,0.0,68,0.00,,SKC,0.00,VWS V14.01,2013-09-14 14:46:00,
2013-09-14 07:47:00,62.6,51.9,29.67,SSE,168,1.0,1.0,68,0.00,,SKC,0.00,VWS V14.01,2013-09-14 14:47:00,
2013-09-14 07:48:00,62.7,52.0,29.67,South,172,0.0,1.0,68,0.00,,SKC,0.00,VWS V14.01,2013-09-14 14:48:00,
2013-09-14 07:49:00,62.6,51.5,29.67,South,172,0.0,1.0,67,0.00,,SKC,0.00,VWS V14.01,2013-09-14 14:49:00,
2013-09-14 07:50:00,62.7,51.6,29.67,South,172,1.0,1.0,67,0.00,,SKC,0.00,VWS V14.01,2013-09-14 14:50:00,
2013-09-14 07:51:00,62.7,51.6,29.67,South,172,0.0,1.0,67,0.00,,SKC,0.00,VWS V14.01,2013-09-14 14:51:00,
2013-09-14 07:52:00,62.6,51.5,29.67,South,172,1.0,1.0,67,0.00,,SKC,0.00,VWS V14.01,2013-09-14 14:52:00,
2013-09-14 07:53:00,62.6,51.5,29.67,South,172,0.0,1.0,67,0.00,,SKC,0.00,VWS V14.01,2013-09-14 14:53:00,
2013-09-14 07:54:00,62.9,51.8,29.67,South,172,0.0,0.0,67,0.00,,SKC,0.00,VWS V14.01,2013-09-14 14:54:00,
2013-09-14 07:55:00,63.1,51.6,29.67,SSE,157,1.0,1.0,66,0.00,,SKC,0.00,VWS V14.01,2013-09-14 14:55:00,
2013-09-14 07:56:00,62.9,51.4,29.67,SSE,157,0.0,0.0,66,0.00,,SKC,0.00,VWS V14.01,2013-09-14 14:56:00,
2013-09-14 07:57:00,62.9,51.4,29.67,SSE,157,0.0,0.0,66,0.00,,SKC,0.00,VWS V14.01,2013-09-14 14:57:00,
2013-09-14 07:58:00,63.1,51.6,29.67,SSE,157,0.0,0.0,66,0.00,,SKC,0.00,VWS V14.01,2013-09-14 14:58:00,
2013-09-14 07:59:00,63.1,51.6,29.67,SSE,157,1.0,1.0,66,0.00,,SKC,0.00,VWS V14.01,2013-09-14 14:59:00,
2013-09-14 08:00:00,63.4,51.9,29.67,East,88,0.0,0.0,66,0.00,,SKC,0.00,VWS V14.01,2013-09-14 15:00:00,
2013-09-14 08:01:00,63.2,51.2,29.67,East,88,0.0,0.0,65,0.00,,SKC,0.00,VWS V14.01,2013-09-14 15:01:00,
2013-09-14 08:02:00,63.2,51.7,29.67,East,88,0.0,0.0,66,0.00,,SKC,0.00,VWS V14.01,2013-09-14 15:02:00,
2013-09-14 08:03:00,63.4,51.9,29.67,East,88,0.0,0.0,66,0.00,,SKC,0.00,VWS V14.01,2013-09-14 15:03:00,
2013-09-14 08:04:00,63.4,51.9,29.67,East,88,0.0,0.0,66,0.00,,SKC,0.00,VWS V14.01,2013-09-14 15:04:00,
2013-09-14 08:05:00,63.7,51.7,29.67,SSE,150,0.0,0.0,65,0.00,,SKC,0.00,VWS V14.01,2013-09-14 15:05:00,
2013-09-14 08:06:00,63.5,51.5,29.67,SE,141,0.0,0.0,65,0.00,,SKC,0.00,VWS V14.01,2013-09-14 15:06:00,
2013-09-14 08:07:00,63.5,51.5,29.67,SSE,150,0.0,0.0,65,0.00,,SKC,0.00,VWS V14.01,2013-09-14 15:07:00,
2013-09-14 08:08:00,63.5,51.5,29.67,SSE,150,0.0,0.0,65,0.00,,SKC,0.00,VWS V14.01,2013-09-14 15:08:00,
2013-09-14 08:09:00,63.7,51.7,29.67,SSE,150,0.0,0.0,65,0.00,,SKC,0.00,VWS V14.01,2013-09-14 15:09:00,
2013-09-14 08:10:00,63.7,51.7,29.67,SSE,148,0.0,2.0,65,0.00,,SKC,0.00,VWS V14.01,2013-09-14 15:10:00,
2013-09-14 08:11:00,63.9,51.5,29.68,South,176,0.0,0.0,64,0.00,,SKC,0.00,VWS V14.01,2013-09-14 15:11:00,
2013-09-14 08:12:00,63.9,51.5,29.67,South,176,0.0,0.0,64,0.00,,SKC,0.00,VWS V14.01,2013-09-14 15:12:00,
2013-09-14 08:13:00,63.9,51.5,29.67,South,176,0.0,0.0,64,0.00,,SKC,0.00,VWS V14.01,2013-09-14 15:13:00,
2013-09-14 08:14:00,63.9,51.5,29.67,South,176,0.0,0.0,64,0.00,,SKC,0.00,VWS V14.01,2013-09-14 15:14:00,
2013-09-14 08:15:00,63.9,51.5,29.68,South,176,0.0,0.0,64,0.00,,SKC,0.00,VWS V14.01,2013-09-14 15:15:00,
2013-09-14 08:16:00,64.2,51.4,29.68,South,176,0.0,0.0,63,0.00,,SKC,0.00,VWS V14.01,2013-09-14 15:16:00,
2013-09-14 08:17:00,64.0,51.6,29.68,South,176,0.0,0.0,64,0.00,,SKC,0.00,VWS V14.01,2013-09-14 15:17:00,
2013-09-14 08:18:00,64.0,51.6,29.68,South,176,0.0,0.0,64,0.00,,SKC,0.00,VWS V14.01,2013-09-14 15:18:00,
2013-09-14 08:19:00,64.2,51.8,29.68,South,176,0.0,0.0,64,0.00,,SKC,0.00,VWS V14.01,2013-09-14 15:19:00,
2013-09-14 08:20:00,64.2,51.4,29.68,South,176,0.0,0.0,63,0.00,,SKC,0.00,VWS V14.01,2013-09-14 15:20:00,
2013-09-14 08:21:00,64.3,51.5,29.68,South,176,0.0,0.0,63,0.00,,SKC,0.00,VWS V14.01,2013-09-14 15:21:00,
2013-09-14 08:22:00,64.2,51.4,29.68,South,176,0.0,0.0,63,0.00,,SKC,0.00,VWS V14.01,2013-09-14 15:22:00,
2013-09-14 08:23:00,64.3,51.5,29.68,South,176,0.0,0.0,63,0.00,,SKC,0.00,VWS V14.01,2013-09-14 15:23:00,
2013-09-14 08:24:00,64.3,51.5,29.68,South,176,0.0,0.0,63,0.00,,SKC,0.00,VWS V14.01,2013-09-14 15:24:00,
2013-09-14 08:25:00,64.3,51.5,29.68,South,176,0.0,0.0,63,0.00,,SKC,0.00,VWS V14.01,2013-09-14 15:25:00,
2013-09-14 08:26:00,64.3,51.0,29.68,South,176,0.0,0.0,62,0.00,,SKC,0.00,VWS V14.01,2013-09-14 15:26:00,
2013-09-14 08:27:00,64.5,51.2,29.68,South,176,0.0,0.0,62,0.00,,SKC,0.00,VWS V14.01,2013-09-14 15:27:00,
2013-09-14 08:28:00,64.5,51.2,29.68,South,176,0.0,0.0,62,0.00,,SKC,0.00,VWS V14.01,2013-09-14 15:28:00,
2013-09-14 08:29:00,64.5,51.2,29.68,South,176,0.0,0.0,62,0.00,,SKC,0.00,VWS V14.01,2013-09-14 15:29:00,
2013-09-14 08:30:00,64.5,51.2,29.68,South,176,0.0,0.0,62,0.00,,SKC,0.00,VWS V14.01,2013-09-14 15:30:00,
2013-09-14 08:31:00,64.5,51.2,29.68,South,176,0.0,0.0,62,0.00,,SKC,0.00,VWS V14.01,2013-09-14 15:31:00,
2013-09-14 08:32:00,64.8,51.5,29.68,South,176,0.0,1.0,62,0.00,,SKC,0.00,VWS V14.01,2013-09-14 15:32:00,
2013-09-14 08:33:00,64.5,51.2,29.68,South,176,0.0,1.0,62,0.00,,SKC,0.00,VWS V14.01,2013-09-14 15:33:00,
2013-09-14 08:34:00,64.7,51.4,29.68,South,176,0.0,0.0,62,0.00,,SKC,0.00,VWS V14.01,2013-09-14 15:34:00,
2013-09-14 08:35:00,64.8,51.5,29.68,South,176,0.0,0.0,62,0.00,,SKC,0.00,VWS V14.01,2013-09-14 15:35:00,
2013-09-14 08:36:00,64.8,51.5,29.68,South,176,0.0,1.0,62,0.00,,SKC,0.00,VWS V14.01,2013-09-14 15:36:00,
2013-09-14 08:37:00,64.8,51.0,29.68,South,176,0.0,0.0,61,0.00,,SKC,0.00,VWS V14.01,2013-09-14 15:37:00,
2013-09-14 08:38:00,65.3,51.5,29.68,South,176,0.0,0.0,61,0.00,,SKC,0.00,VWS V14.01,2013-09-14 15:38:00,
2013-09-14 08:39:00,65.0,51.7,29.68,South,176,0.0,0.0,62,0.00,,SKC,0.00,VWS V14.01,2013-09-14 15:39:00,
2013-09-14 08:40:00,65.2,51.9,29.68,South,176,0.0,0.0,62,0.00,,SKC,0.00,VWS V14.01,2013-09-14 15:40:00,
2013-09-14 08:41:00,65.2,51.4,29.68,South,176,0.0,0.0,61,0.00,,SKC,0.00,VWS V14.01,2013-09-14 15:41:00,
2013-09-14 08:42:00,65.3,51.5,29.68,South,176,0.0,0.0,61,0.00,,SKC,0.00,VWS V14.01,2013-09-14 15:42:00,
2013-09-14 08:43:00,65.3,51.5,29.68,South,176,0.0,0.0,61,0.00,,SKC,0.00,VWS V14.01,2013-09-14 15:43:00,
2013-09-14 08:44:00,65.6,51.8,29.68,South,176,0.0,0.0,61,0.00,,SKC,0.00,VWS V14.01,2013-09-14 15:44:00,
2013-09-14 08:45:00,65.5,51.7,29.68,South,176,0.0,0.0,61,0.00,,SKC,0.00,VWS V14.01,2013-09-14 15:45:00,
2013-09-14 08:46:00,65.5,51.7,29.68,South,176,0.0,0.0,61,0.00,,SKC,0.00,VWS V14.01,2013-09-14 15:46:00,
2013-09-14 08:47:00,65.6,51.8,29.68,South,176,0.0,0.0,61,0.00,,SKC,0.00,VWS V14.01,2013-09-14 15:47:00,
2013-09-14 08:48:00,65.8,52.0,29.68,South,176,0.0,0.0,61,0.00,,SKC,0.00,VWS V14.01,2013-09-14 15:48:00,
2013-09-14 08:49:00,66.0,51.7,29.68,South,176,0.0,0.0,60,0.00,,SKC,0.00,VWS V14.01,2013-09-14 15:49:00,
2013-09-14 08:50:00,65.8,51.5,29.68,South,176,0.0,0.0,60,0.00,,SKC,0.00,VWS V14.01,2013-09-14 15:50:00,
2013-09-14 08:51:00,66.0,52.2,29.68,South,176,0.0,0.0,61,0.00,,SKC,0.00,VWS V14.01,2013-09-14 15:51:00,
2013-09-14 08:52:00,66.0,51.7,29.68,South,176,0.0,0.0,60,0.00,,SKC,0.00,VWS V14.01,2013-09-14 15:52:00,
2013-09-14 08:53:00,66.0,51.7,29.68,South,176,0.0,0.0,60,0.00,,SKC,0.00,VWS V14.01,2013-09-14 15:53:00,
2013-09-14 08:54:00,66.3,52.0,29.68,South,176,0.0,0.0,60,0.00,,SKC,0.00,VWS V14.01,2013-09-14 15:54:00,
2013-09-14 08:55:00,66.1,51.8,29.68,South,176,0.0,0.0,60,0.00,,SKC,0.00,VWS V14.01,2013-09-14 15:55:00,
2013-09-14 08:56:00,66.1,51.8,29.68,South,176,0.0,0.0,60,0.00,,SKC,0.00,VWS V14.01,2013-09-14 15:56:00,
2013-09-14 08:57:00,66.3,52.0,29.68,South,176,0.0,0.0,60,0.00,,SKC,0.00,VWS V14.01,2013-09-14 15:57:00,
2013-09-14 08:58:00,66.3,52.0,29.68,South,176,0.0,0.0,60,0.00,,SKC,0.00,VWS V14.01,2013-09-14 15:58:00,
2013-09-14 08:59:00,66.3,52.0,29.68,South,176,0.0,0.0,60,0.00,,SKC,0.00,VWS V14.01,2013-09-14 15:59:00,
2013-09-14 09:00:00,66.8,52.5,29.68,South,176,0.0,0.0,60,0.00,,SKC,0.00,VWS V14.01,2013-09-14 16:00:00,
2013-09-14 09:01:00,66.4,52.1,29.68,South,176,0.0,0.0,60,0.00,,SKC,0.00,VWS V14.01,2013-09-14 16:01:00,
2013-09-14 09:02:00,66.6,52.3,29.68,South,176,0.0,0.0,60,0.00,,SKC,0.00,VWS V14.01,2013-09-14 16:02:00,
2013-09-14 09:03:00,66.6,52.3,29.68,South,176,0.0,0.0,60,0.00,,SKC,0.00,VWS V14.01,2013-09-14 16:03:00,
2013-09-14 09:04:00,66.8,52.5,29.68,South,176,0.0,0.0,60,0.00,,SKC,0.00,VWS V14.01,2013-09-14 16:04:00,
2013-09-14 09:05:00,67.1,52.8,29.68,South,176,0.0,0.0,60,0.00,,SKC,0.00,VWS V14.01,2013-09-14 16:05:00,
2013-09-14 09:06:00,66.9,52.1,29.68,South,176,0.0,0.0,59,0.00,,SKC,0.00,VWS V14.01,2013-09-14 16:06:00,
2013-09-14 09:07:00,66.9,52.6,29.68,South,176,0.0,0.0,60,0.00,,SKC,0.00,VWS V14.01,2013-09-14 16:07:00,
2013-09-14 09:08:00,67.1,52.3,29.68,South,176,0.0,0.0,59,0.00,,SKC,0.00,VWS V14.01,2013-09-14 16:08:00,
2013-09-14 09:09:00,67.1,52.8,29.68,South,176,0.0,0.0,60,0.00,,SKC,0.00,VWS V14.01,2013-09-14 16:09:00,
2013-09-14 09:10:00,67.3,52.0,29.68,South,176,0.0,0.0,58,0.00,,SKC,0.00,VWS V14.01,2013-09-14 16:10:00,
2013-09-14 09:11:00,67.6,52.3,29.68,South,176,0.0,0.0,58,0.00,,SKC,0.00,VWS V14.01,2013-09-14 16:11:00,
2013-09-14 09:12:00,67.4,52.1,29.68,South,176,0.0,0.0,58,0.00,,SKC,0.00,VWS V14.01,2013-09-14 16:12:00,
2013-09-14 09:13:00,67.4,52.1,29.68,South,176,0.0,0.0,58,0.00,,SKC,0.00,VWS V14.01,2013-09-14 16:13:00,
2013-09-14 09:14:00,67.6,52.3,29.68,South,176,0.0,0.0,58,0.00,,SKC,0.00,VWS V14.01,2013-09-14 16:14:00,
2013-09-14 09:15:00,67.6,52.3,29.68,South,176,0.0,0.0,58,0.00,,SKC,0.00,VWS V14.01,2013-09-14 16:15:00,
2013-09-14 09:16:00,68.1,52.8,29.68,South,176,0.0,0.0,58,0.00,,SKC,0.00,VWS V14.01,2013-09-14 16:16:00,
2013-09-14 09:17:00,67.8,52.5,29.68,South,176,0.0,0.0,58,0.00,,SKC,0.00,VWS V14.01,2013-09-14 16:17:00,
2013-09-14 09:18:00,67.9,52.6,29.68,South,176,0.0,1.0,58,0.00,,SKC,0.00,VWS V14.01,2013-09-14 16:18:00,
2013-09-14 09:19:00,67.9,52.6,29.68,South,176,0.0,0.0,58,0.00,,SKC,0.00,VWS V14.01,2013-09-14 16:19:00,
2013-09-14 09:20:00,68.1,52.8,29.68,South,176,0.0,0.0,58,0.00,,SKC,0.00,VWS V14.01,2013-09-14 16:20:00,
2013-09-14 09:21:00,68.6,53.2,29.68,South,176,0.0,0.0,58,0.00,,SKC,0.00,VWS V14.01,2013-09-14 16:21:00,
2013-09-14 09:22:00,68.3,53.0,29.68,South,176,0.0,0.0,58,0.00,,SKC,0.00,VWS V14.01,2013-09-14 16:22:00,
2013-09-14 09:23:00,68.3,53.0,29.68,South,176,0.0,0.0,58,0.00,,SKC,0.00,VWS V14.01,2013-09-14 16:23:00,
2013-09-14 09:24:00,68.4,53.1,29.68,South,176,0.0,0.0,58,0.00,,SKC,0.00,VWS V14.01,2013-09-14 16:24:00,
2013-09-14 09:25:00,68.6,53.2,29.68,South,176,0.0,0.0,58,0.00,,SKC,0.00,VWS V14.01,2013-09-14 16:25:00,
2013-09-14 09:26:00,69.1,51.8,29.68,South,176,0.0,0.0,54,0.00,,SKC,0.00,VWS V14.01,2013-09-14 16:26:00,
2013-09-14 09:27:00,68.8,52.5,29.68,South,176,0.0,0.0,56,0.00,,SKC,0.00,VWS V14.01,2013-09-14 16:27:00,
2013-09-14 09:28:00,68.9,52.1,29.68,South,176,0.0,0.0,55,0.00,,SKC,0.00,VWS V14.01,2013-09-14 16:28:00,
2013-09-14 09:29:00,68.9,51.6,29.68,South,176,0.0,0.0,54,0.00,,SKC,0.00,VWS V14.01,2013-09-14 16:29:00,
2013-09-14 09:30:00,69.1,51.8,29.68,South,176,0.0,0.0,54,0.00,,SKC,0.00,VWS V14.01,2013-09-14 16:30:00,
2013-09-14 09:31:00,69.8,52.4,29.68,South,176,0.0,0.0,54,0.00,,SKC,0.00,VWS V14.01,2013-09-14 16:31:00,
2013-09-14 09:32:00,69.3,52.0,29.68,South,176,0.0,0.0,54,0.00,,SKC,0.00,VWS V14.01,2013-09-14 16:32:00,
2013-09-14 09:33:00,69.3,52.0,29.68,South,176,0.0,0.0,54,0.00,,SKC,0.00,VWS V14.01,2013-09-14 16:33:00,
2013-09-14 09:34:00,69.6,52.2,29.68,South,176,0.0,0.0,54,0.00,,SKC,0.00,VWS V14.01,2013-09-14 16:34:00,
2013-09-14 09:35:00,69.8,52.4,29.68,South,176,0.0,0.0,54,0.00,,SKC,0.00,VWS V14.01,2013-09-14 16:35:00,
2013-09-14 09:36:00,70.3,52.9,29.68,South,176,0.0,1.0,54,0.00,,SKC,0.00,VWS V14.01,2013-09-14 16:36:00,
2013-09-14 09:37:00,69.9,52.5,29.68,South,176,0.0,0.0,54,0.00,,SKC,0.00,VWS V14.01,2013-09-14 16:37:00,
2013-09-14 09:38:00,70.1,52.7,29.68,South,176,0.0,0.0,54,0.00,,SKC,0.00,VWS V14.01,2013-09-14 16:38:00,
2013-09-14 09:39:00,70.1,52.7,29.68,South,176,0.0,1.0,54,0.00,,SKC,0.00,VWS V14.01,2013-09-14 16:39:00,
2013-09-14 09:40:00,70.3,52.9,29.68,South,176,0.0,1.0,54,0.00,,SKC,0.00,VWS V14.01,2013-09-14 16:40:00,
2013-09-14 09:41:00,70.9,52.9,29.68,South,186,0.0,0.0,53,0.00,,SKC,0.00,VWS V14.01,2013-09-14 16:41:00,
2013-09-14 09:42:00,70.4,52.0,29.68,South,185,0.0,1.0,52,0.00,,SKC,0.00,VWS V14.01,2013-09-14 16:42:00,
2013-09-14 09:43:00,70.6,52.1,29.68,South,186,0.0,1.0,52,0.00,,SKC,0.00,VWS V14.01,2013-09-14 16:43:00,
2013-09-14 09:44:00,70.8,52.3,29.68,South,186,0.0,0.0,52,0.00,,SKC,0.00,VWS V14.01,2013-09-14 16:44:00,
2013-09-14 09:45:00,70.9,52.9,29.68,South,186,0.0,0.0,53,0.00,,SKC,0.00,VWS V14.01,2013-09-14 16:45:00,
2013-09-14 09:46:00,71.6,52.0,29.68,WSW,250,2.0,2.0,50,0.00,,SKC,0.00,VWS V14.01,2013-09-14 16:46:00,
2013-09-14 09:47:00,71.1,52.1,29.68,South,186,0.0,0.0,51,0.00,,SKC,0.00,VWS V14.01,2013-09-14 16:47:00,
2013-09-14 09:48:00,71.3,52.8,29.68,SW,224,1.0,3.0,52,0.00,,SKC,0.00,VWS V14.01,2013-09-14 16:48:00,
2013-09-14 09:49:00,71.5,53.0,29.68,SW,224,0.0,1.0,52,0.00,,SKC,0.00,VWS V14.01,2013-09-14 16:49:00,
2013-09-14 09:50:00,71.6,52.0,29.68,WSW,250,2.0,2.0,50,0.00,,SKC,0.00,VWS V14.01,2013-09-14 16:50:00,
2013-09-14 09:51:00,72.1,52.5,29.68,SW,234,0.0,0.0,50,0.00,,SKC,0.00,VWS V14.01,2013-09-14 16:51:00,
2013-09-14 09:52:00,72.0,52.4,29.68,SW,234,0.0,2.0,50,0.00,,SKC,0.00,VWS V14.01,2013-09-14 16:52:00,
2013-09-14 09:53:00,72.0,52.4,29.68,SW,234,0.0,1.0,50,0.00,,SKC,0.00,VWS V14.01,2013-09-14 16:53:00,
2013-09-14 09:54:00,72.1,52.5,29.68,SW,234,0.0,0.0,50,0.00,,SKC,0.00,VWS V14.01,2013-09-14 16:54:00,
2013-09-14 09:55:00,72.1,52.5,29.68,SW,234,0.0,0.0,50,0.00,,SKC,0.00,VWS V14.01,2013-09-14 16:55:00,
2013-09-14 09:56:00,72.7,53.0,29.68,SW,234,0.0,0.0,50,0.00,,SKC,0.00,VWS V14.01,2013-09-14 16:56:00,
2013-09-14 09:57:00,72.3,52.6,29.68,SW,234,0.0,0.0,50,0.00,,SKC,0.00,VWS V14.01,2013-09-14 16:57:00,
2013-09-14 09:58:00,72.5,52.8,29.68,SW,234,0.0,0.0,50,0.00,,SKC,0.00,VWS V14.01,2013-09-14 16:58:00,
2013-09-14 09:59:00,72.7,53.0,29.68,SW,234,0.0,0.0,50,0.00,,SKC,0.00,VWS V14.01,2013-09-14 16:59:00,
2013-09-14 10:00:00,72.7,53.0,29.68,SW,234,0.0,0.0,50,0.00,,SKC,0.00,VWS V14.01,2013-09-14 17:00:00,
2013-09-14 10:01:00,73.2,51.8,29.68,SW,236,0.0,1.0,47,0.00,,SKC,0.00,VWS V14.01,2013-09-14 17:01:00,
2013-09-14 10:02:00,73.0,53.3,29.68,SW,234,0.0,0.0,50,0.00,,SKC,0.00,VWS V14.01,2013-09-14 17:02:00,
2013-09-14 10:03:00,73.0,52.7,29.68,SW,234,2.0,2.0,49,0.00,,SKC,0.00,VWS V14.01,2013-09-14 17:03:00,
2013-09-14 10:04:00,73.2,52.9,29.68,SW,236,1.0,2.0,49,0.00,,SKC,0.00,VWS V14.01,2013-09-14 17:04:00,
2013-09-14 10:05:00,73.2,51.8,29.68,SW,236,0.0,1.0,47,0.00,,SKC,0.00,VWS V14.01,2013-09-14 17:05:00,
2013-09-14 10:06:00,73.3,51.9,29.68,SW,236,0.0,1.0,47,0.00,,SKC,0.00,VWS V14.01,2013-09-14 17:06:00,
2013-09-14 10:07:00,73.9,52.4,29.68,SW,222,3.0,3.0,47,0.00,,SKC,0.00,VWS V14.01,2013-09-14 17:07:00,
2013-09-14 10:08:00,73.5,53.2,29.68,South,189,0.0,2.0,49,0.00,,SKC,0.00,VWS V14.01,2013-09-14 17:08:00,
2013-09-14 10:09:00,73.7,53.4,29.68,SW,233,2.0,3.0,49,0.00,,SKC,0.00,VWS V14.01,2013-09-14 17:09:00,
2013-09-14 10:10:00,73.7,52.8,29.68,SW,233,0.0,2.0,48,0.00,,SKC,0.00,VWS V14.01,2013-09-14 17:10:00,
2013-09-14 10:11:00,73.9,52.4,29.68,SW,222,3.0,3.0,47,0.00,,SKC,0.00,VWS V14.01,2013-09-14 17:11:00,
2013-09-14 10:12:00,73.9,52.4,29.68,SSW,209,3.0,3.0,47,0.00,,SKC,0.00,VWS V14.01,2013-09-14 17:12:00,
2013-09-14 10:13:00,74.4,52.9,29.68,SW,229,0.0,0.0,47,0.00,,SKC,0.00,VWS V14.01,2013-09-14 17:13:00,
2013-09-14 10:14:00,74.0,51.9,29.68,SW,224,0.0,2.0,46,0.00,,SKC,0.00,VWS V14.01,2013-09-14 17:14:00,
2013-09-14 10:15:00,74.2,52.1,29.68,SW,227,0.0,2.0,46,0.00,,SKC,0.00,VWS V14.01,2013-09-14 17:15:00,
2013-09-14 10:16:00,74.2,52.1,29.68,SW,227,0.0,0.0,46,0.00,,SKC,0.00,VWS V14.01,2013-09-14 17:16:00,
2013-09-14 10:17:00,74.4,52.9,29.68,SW,229,0.0,0.0,47,0.00,,SKC,0.00,VWS V14.01,2013-09-14 17:17:00,
2013-09-14 10:18:00,74.7,52.0,29.68,SW,222,0.0,1.0,45,0.00,,SKC,0.00,VWS V14.01,2013-09-14 17:18:00,
2013-09-14 10:19:00,74.4,52.9,29.68,SW,229,0.0,0.0,47,0.00,,SKC,0.00,VWS V14.01,2013-09-14 17:19:00,
2013-09-14 10:20:00,74.6,51.9,29.68,SW,222,1.0,1.0,45,0.00,,SKC,0.00,VWS V14.01,2013-09-14 17:20:00,
2013-09-14 10:21:00,74.6,51.9,29.68,SW,222,1.0,1.0,45,0.00,,SKC,0.00,VWS V14.01,2013-09-14 17:21:00,
2013-09-14 10:22:00,74.7,52.0,29.68,SW,222,0.0,1.0,45,0.00,,SKC,0.00,VWS V14.01,2013-09-14 17:22:00,
2013-09-14 10:23:00,75.3,53.1,29.68,SSE,165,0.0,1.0,46,0.00,,SKC,0.00,VWS V14.01,2013-09-14 17:23:00,
2013-09-14 10:24:00,74.7,52.0,29.68,SW,222,1.0,1.0,45,0.00,,SKC,0.00,VWS V14.01,2013-09-14 17:24:00,
2013-09-14 10:25:00,74.9,52.8,29.68,SW,223,0.0,1.0,46,0.00,,SKC,0.00,VWS V14.01,2013-09-14 17:25:00,
2013-09-14 10:26:00,74.9,52.8,29.68,SW,223,0.0,0.0,46,0.00,,SKC,0.00,VWS V14.01,2013-09-14 17:26:00,
2013-09-14 10:27:00,75.3,53.1,29.68,SSE,165,0.0,1.0,46,0.00,,SKC,0.00,VWS V14.01,2013-09-14 17:27:00,
2013-09-14 10:28:00,75.6,52.2,29.68,SSE,165,0.0,1.0,44,0.00,,SKC,0.00,VWS V14.01,2013-09-14 17:28:00,
2013-09-14 10:29:00,77.6,52.1,29.67,WSW,237,0.0,1.0,41,0.00,,SKC,0.00,VWS V14.01,2013-09-14 17:29:00,
2013-09-14 10:30:00,76.7,52.5,29.67,SW,216,1.0,2.0,43,0.00,,SKC,0.00,VWS V14.01,2013-09-14 17:30:00,
2013-09-14 10:31:00,77.2,52.3,29.67,WSW,246,2.0,3.0,42,0.00,,SKC,0.00,VWS V14.01,2013-09-14 17:31:00,
2013-09-14 10:32:00,77.4,51.9,29.67,SW,236,0.0,2.0,41,0.00,,SKC,0.00,VWS V14.01,2013-09-14 17:32:00,
2013-09-14 10:33:00,77.6,52.1,29.67,WSW,237,0.0,1.0,41,0.00,,SKC,0.00,VWS V14.01,2013-09-14 17:33:00,
2013-09-14 10:34:00,77.9,51.7,29.67,SW,227,2.0,3.0,40,0.00,,SKC,0.00,VWS V14.01,2013-09-14 17:34:00,
2013-09-14 10:35:00,78.3,51.3,29.67,WSW,240,0.0,3.0,39,0.00,,SKC,0.00,VWS V14.01,2013-09-14 17:35:00,
2013-09-14 10:36:00,78.1,51.8,29.67,SSW,199,4.0,6.0,40,0.00,,SKC,0.00,VWS V14.01,2013-09-14 17:36:00,
2013-09-14 10:37:00,78.3,52.0,29.67,SW,227,2.0,5.0,40,0.00,,FEW200,0.00,VWS V14.01,2013-09-14 17:37:00,
2013-09-14 10:38:00,78.3,52.0,29.67,SSW,202,2.0,4.0,40,0.00,,FEW200,0.00,VWS V14.01,2013-09-14 17:38:00,
2013-09-14 10:39:00,78.3,51.3,29.67,WSW,240,0.0,3.0,39,0.00,,FEW200,0.00,VWS V14.01,2013-09-14 17:39:00,
2013-09-14 10:40:00,78.5,51.5,29.67,SW,233,7.0,7.0,39,0.00,,SKC,0.00,VWS V14.01,2013-09-14 17:40:00,
2013-09-14 10:41:00,78.6,51.6,29.67,West,261,3.0,5.0,39,0.00,,SKC,0.00,VWS V14.01,2013-09-14 17:41:00,
2013-09-14 10:42:00,78.6,51.6,29.67,West,265,6.0,7.0,39,0.00,,SKC,0.00,VWS V14.01,2013-09-14 17:42:00,
2013-09-14 10:43:00,78.6,51.6,29.67,WSW,247,1.0,7.0,39,0.00,,SKC,0.00,VWS V14.01,2013-09-14 17:43:00,
2013-09-14 10:44:00,78.5,51.5,29.67,SW,233,7.0,7.0,39,0.00,,SKC,0.00,VWS V14.01,2013-09-14 17:44:00,
2013-09-14 10:45:00,78.3,51.3,29.68,SW,236,6.0,7.0,39,0.00,,SKC,0.00,VWS V14.01,2013-09-14 17:45:00,
2013-09-14 10:46:00,77.2,51.7,29.68,SW,232,5.0,7.0,41,0.00,,SKC,0.00,VWS V14.01,2013-09-14 17:46:00,
2013-09-14 10:47:00,77.7,51.5,29.68,SW,234,1.0,7.0,40,0.00,,SKC,0.00,VWS V14.01,2013-09-14 17:47:00,
2013-09-14 10:48:00,77.6,51.4,29.68,SSW,198,5.0,5.0,40,0.00,,SKC,0.00,VWS V14.01,2013-09-14 17:48:00,
2013-09-14 10:49:00,77.4,51.2,29.68,WSW,244,3.0,6.0,40,0.00,,SKC,0.00,VWS V14.01,2013-09-14 17:49:00,
2013-09-14 10:50:00,77.2,51.7,29.68,SW,232,5.0,7.0,41,0.00,,SKC,0.00,VWS V14.01,2013-09-14 17:50:00,
2013-09-14 10:51:00,76.8,51.3,29.68,WSW,241,5.0,8.0,41,0.00,,SKC,0.00,VWS V14.01,2013-09-14 17:51:00,
2013-09-14 10:52:00,77.0,51.5,29.68,SW,236,2.0,8.0,41,0.00,,SKC,0.00,VWS V14.01,2013-09-14 17:52:00,
2013-09-14 10:53:00,76.8,51.3,29.68,WSW,246,3.0,7.0,41,0.00,,SKC,0.00,VWS V14.01,2013-09-14 17:53:00,
2013-09-14 10:54:00,76.8,51.3,29.68,WSW,258,2.0,6.0,41,0.00,,SKC,0.00,VWS V14.01,2013-09-14 17:54:00,
2013-09-14 10:55:00,76.8,51.3,29.68,WSW,241,5.0,8.0,41,0.00,,SKC,0.00,VWS V14.01,2013-09-14 17:55:00,
2013-09-14 10:56:00,77.2,51.7,29.68,WNW,285,5.0,5.0,41,0.00,,SKC,0.00,VWS V14.01,2013-09-14 17:56:00,
2013-09-14 10:57:00,76.8,51.3,29.68,WSW,247,5.0,7.0,41,0.00,,SKC,0.00,VWS V14.01,2013-09-14 17:57:00,
2013-09-14 10:58:00,76.8,51.3,29.68,West,274,2.0,7.0,41,0.00,,SKC,0.00,VWS V14.01,2013-09-14 17:58:00,
2013-09-14 10:59:00,77.0,51.5,29.68,SW,227,1.0,4.0,41,0.00,,SKC,0.00,VWS V14.01,2013-09-14 17:59:00,
2013-09-14 11:00:00,77.2,51.7,29.68,WNW,285,5.0,5.0,41,0.00,,SKC,0.00,VWS V14.01,2013-09-14 18:00:00,
2013-09-14 11:01:00,77.2,51.7,29.68,South,184,0.0,6.0,41,0.00,,SKC,0.00,VWS V14.01,2013-09-14 18:01:00,
2013-09-14 11:02:00,77.6,51.4,29.68,WSW,237,4.0,6.0,40,0.00,,SKC,0.00,VWS V14.01,2013-09-14 18:02:00,
2013-09-14 11:03:00,77.4,51.9,29.68,WSW,241,3.0,4.0,41,0.00,,SKC,0.00,VWS V14.01,2013-09-14 18:03:00,
2013-09-14 11:04:00,77.4,51.2,29.68,WSW,247,0.0,4.0,40,0.00,,SKC,0.00,VWS V14.01,2013-09-14 18:04:00,
2013-09-14 11:05:00,77.6,51.4,29.68,WSW,239,1.0,5.0,40,0.00,,SKC,0.00,VWS V14.01,2013-09-14 18:05:00,
2013-09-14 11:06:00,77.6,51.4,29.68,WSW,237,4.0,6.0,40,0.00,,SKC,0.00,VWS V14.01,2013-09-14 18:06:00,
2013-09-14 11:07:00,79.2,52.1,29.68,South,171,0.0,2.0,39,0.00,,SKC,0.00,VWS V14.01,2013-09-14 18:07:00,
2013-09-14 11:08:00,77.9,52.3,29.68,SSE,155,2.0,2.0,41,0.00,,SKC,0.00,VWS V14.01,2013-09-14 18:08:00,
2013-09-14 11:09:00,78.3,52.0,29.68,SSE,155,0.0,2.0,40,0.00,,SKC,0.00,VWS V14.01,2013-09-14 18:09:00,
2013-09-14 11:10:00,78.8,52.5,29.68,South,171,0.0,1.0,40,0.00,,SKC,0.00,VWS V14.01,2013-09-14 18:10:00,
2013-09-14 11:11:00,79.2,52.1,29.68,South,171,0.0,2.0,39,0.00,,SKC,0.00,VWS V14.01,2013-09-14 18:11:00,
2013-09-14 11:12:00,80.5,51.9,29.67,SW,216,1.0,2.0,37,0.00,,SKC,0.00,VWS V14.01,2013-09-14 18:12:00,
2013-09-14 11:13:00,79.8,51.2,29.68,WSW,250,1.0,1.0,37,0.00,,SKC,0.00,VWS V14.01,2013-09-14 18:13:00,
2013-09-14 11:14:00,80.3,52.4,29.68,SSE,162,0.0,2.0,38,0.00,,SKC,0.00,VWS V14.01,2013-09-14 18:14:00,
2013-09-14 11:15:00,80.3,51.7,29.67,South,184,0.0,2.0,37,0.00,,SKC,0.00,VWS V14.01,2013-09-14 18:15:00,
2013-09-14 11:16:00,80.5,51.9,29.67,SW,216,1.0,2.0,37,0.00,,SKC,0.00,VWS V14.01,2013-09-14 18:16:00,
2013-09-14 11:17:00,80.5,51.9,29.67,SW,230,2.0,5.0,37,0.00,,SKC,0.00,VWS V14.01,2013-09-14 18:17:00,
2013-09-14 11:18:00,80.3,51.7,29.67,South,185,1.0,3.0,37,0.00,,SKC,0.00,VWS V14.01,2013-09-14 18:18:00,
2013-09-14 11:19:00,80.9,51.5,29.67,SSW,196,2.0,2.0,36,0.00,,SKC,0.00,VWS V14.01,2013-09-14 18:19:00,
2013-09-14 11:20:00,80.7,51.3,29.67,SW,232,0.0,6.0,36,0.00,,SKC,0.00,VWS V14.01,2013-09-14 18:20:00,
2013-09-14 11:21:00,80.3,50.9,29.67,SSW,212,0.0,3.0,36,0.00,,SKC,0.00,VWS V14.01,2013-09-14 18:21:00,
2013-09-14 11:22:00,80.3,51.7,29.67,South,185,1.0,3.0,37,0.00,,SKC,0.00,VWS V14.01,2013-09-14 18:22:00,
2013-09-14 11:23:00,80.5,51.9,29.67,SW,215,0.0,6.0,37,0.00,,SKC,0.00,VWS V14.01,2013-09-14 18:23:00,
2013-09-14 11:24:00,80.5,51.9,29.67,SSW,205,0.0,4.0,37,0.00,,SKC,0.00,VWS V14.01,2013-09-14 18:24:00,
2013-09-14 11:25:00,80.3,50.9,29.67,West,280,0.0,2.0,36,0.00,,SKC,0.00,VWS V14.01,2013-09-14 18:25:00,
2013-09-14 11:26:00,80.3,51.7,29.67,WSW,243,2.0,2.0,37,0.00,,SKC,0.00,VWS V14.01,2013-09-14 18:26:00,
2013-09-14 11:27:00,80.5,51.9,29.67,SW,215,0.0,6.0,37,0.00,,SKC,0.00,VWS V14.01,2013-09-14 18:27:00,
2013-09-14 11:28:00,80.7,51.3,29.67,WSW,251,3.0,3.0,36,0.00,,SKC,0.00,VWS V14.01,2013-09-14 18:28:00,
2013-09-14 11:29:00,80.5,51.1,29.67,WSW,240,1.0,4.0,36,0.00,,SKC,0.00,VWS V14.01,2013-09-14 18:29:00,
2013-09-14 11:30:00,80.3,50.9,29.67,SSE,150,0.0,6.0,36,0.00,,SKC,0.00,VWS V14.01,2013-09-14 18:30:00,
2013-09-14 11:31:00,80.5,51.9,29.67,SSW,198,1.0,3.0,37,0.00,,SKC,0.00,VWS V14.01,2013-09-14 18:31:00,
2013-09-14 11:32:00,80.7,51.3,29.67,WSW,251,3.0,3.0,36,0.00,,SKC,0.00,VWS V14.01,2013-09-14 18:32:00,
2013-09-14 11:33:00,80.7,51.3,29.67,SSW,198,1.0,3.0,36,0.00,,SKC,0.00,VWS V14.01,2013-09-14 18:33:00,
2013-09-14 11:34:00,81.1,50.9,29.67,SW,229,4.0,6.0,35,0.00,,SKC,0.00,VWS V14.01,2013-09-14 18:34:00,
2013-09-14 11:35:00,80.9,51.5,29.67,SSW,210,2.0,3.0,36,0.00,,SKC,0.00,VWS V14.01,2013-09-14 18:35:00,
2013-09-14 11:36:00,80.9,51.5,29.67,South,182,0.0,2.0,36,0.00,,SKC,0.00,VWS V14.01,2013-09-14 18:36:00,
2013-09-14 11:37:00,81.1,51.7,29.67,South,185,0.0,1.0,36,0.00,,SKC,0.00,VWS V14.01,2013-09-14 18:37:00,
2013-09-14 11:38:00,81.1,50.9,29.67,SW,229,4.0,6.0,35,0.00,,SKC,0.00,VWS V14.01,2013-09-14 18:38:00,
2013-09-14 11:39:00,80.5,51.1,29.67,SSW,208,6.0,7.0,36,0.00,,SKC,0.00,VWS V14.01,2013-09-14 18:39:00,
2013-09-14 11:40:00,80.9,50.7,29.67,SW,234,2.0,7.0,35,0.00,,SKC,0.00,VWS V14.01,2013-09-14 18:40:00,
2013-09-14 11:41:00,80.7,50.5,29.67,SW,216,1.0,7.0,35,0.00,,SKC,0.00,VWS V14.01,2013-09-14 18:41:00,
2013-09-14 11:42:00,80.5,50.4,29.67,WSW,246,2.0,5.0,35,0.00,,SKC,0.00,VWS V14.01,2013-09-14 18:42:00,
2013-09-14 11:43:00,80.5,51.1,29.67,SSW,208,6.0,7.0,36,0.00,,SKC,0.00,VWS V14.01,2013-09-14 18:43:00,
2013-09-14 11:44:00,80.7,50.5,29.67,SW,219,4.0,7.0,35,0.00,,SKC,0.00,VWS V14.01,2013-09-14 18:44:00,
2013-09-14 11:45:00,80.5,51.9,29.67,SSW,195,0.0,0.0,37,0.00,,SKC,0.00,VWS V14.01,2013-09-14 18:45:00,
2013-09-14 11:46:00,80.7,51.3,29.67,SSW,196,0.0,1.0,36,0.00,,SKC,0.00,VWS V14.01,2013-09-14 18:46:00,
2013-09-14 11:47:00,80.7,50.5,29.67,WSW,243,1.0,5.0,35,0.00,,SKC,0.00,VWS V14.01,2013-09-14 18:47:00,
2013-09-14 11:48:00,80.7,50.5,29.67,SW,219,4.0,7.0,35,0.00,,SKC,0.00,VWS V14.01,2013-09-14 18:48:00,
2013-09-14 11:49:00,80.5,50.4,29.67,SSW,193,4.0,4.0,35,0.00,,SKC,0.00,VWS V14.01,2013-09-14 18:49:00,
2013-09-14 11:50:00,80.9,51.5,29.67,WSW,239,4.0,6.0,36,0.00,,SKC,0.00,VWS V14.01,2013-09-14 18:50:00,
2013-09-14 11:51:00,80.1,51.5,29.67,WSW,240,4.0,7.0,37,0.00,,SKC,0.00,VWS V14.01,2013-09-14 18:51:00,
2013-09-14 11:52:00,80.3,51.7,29.67,SSE,150,0.0,4.0,37,0.00,,SKC,0.00,VWS V14.01,2013-09-14 18:52:00,
2013-09-14 11:53:00,80.7,52.0,29.67,SSW,205,0.0,1.0,37,0.00,,SKC,0.00,VWS V14.01,2013-09-14 18:53:00,
2013-09-14 11:54:00,80.9,51.5,29.67,WSW,239,4.0,6.0,36,0.00,,SKC,0.00,VWS V14.01,2013-09-14 18:54:00,
2013-09-14 11:55:00,82.0,51.7,29.67,SSW,210,1.0,3.0,35,0.00,,SKC,0.00,VWS V14.01,2013-09-14 18:55:00,
2013-09-14 11:56:00,81.1,51.7,29.67,SSE,162,0.0,2.0,36,0.00,,SKC,0.00,VWS V14.01,2013-09-14 18:56:00,
2013-09-14 11:57:00,81.4,51.9,29.67,SSE,147,0.0,2.0,36,0.00,,SKC,0.00,VWS V14.01,2013-09-14 18:57:00,
2013-09-14 11:58:00,81.6,51.3,29.67,West,261,1.0,1.0,35,0.00,,SKC,0.00,VWS V14.01,2013-09-14 18:58:00,
2013-09-14 11:59:00,82.0,51.7,29.67,SSW,210,1.0,3.0,35,0.00,,SKC,0.00,VWS V14.01,2013-09-14 18:59:00,
2013-09-14 12:00:00,82.0,50.9,29.67,WSW,244,1.0,6.0,34,0.00,,SKC,0.00,VWS V14.01,2013-09-14 19:00:00,
2013-09-14 12:01:00,81.4,51.2,29.67,SW,215,2.0,8.0,35,0.00,,SKC,0.00,VWS V14.01,2013-09-14 19:01:00,
2013-09-14 12:02:00,81.8,50.7,29.67,SW,233,5.0,5.0,34,0.00,,SKC,0.00,VWS V14.01,2013-09-14 19:02:00,
2013-09-14 12:03:00,81.6,50.5,29.67,WSW,254,3.0,7.0,34,0.00,,SKC,0.00,VWS V14.01,2013-09-14 19:03:00,
2013-09-14 12:04:00,81.6,50.5,29.67,SW,226,6.0,6.0,34,0.00,,SKC,0.00,VWS V14.01,2013-09-14 19:04:00,
2013-09-14 12:05:00,81.4,51.2,29.67,SW,215,2.0,8.0,35,0.00,,SKC,0.00,VWS V14.01,2013-09-14 19:05:00,
2013-09-14 12:06:00,81.2,51.0,29.67,WSW,253,1.0,2.0,35,0.00,,SKC,0.00,VWS V14.01,2013-09-14 19:06:00,
2013-09-14 12:07:00,82.2,51.8,29.67,WSW,240,8.0,8.0,35,0.00,,SKC,0.00,VWS V14.01,2013-09-14 19:07:00,
2013-09-14 12:08:00,81.4,51.9,29.67,WSW,240,1.0,1.0,36,0.00,,SKC,0.00,VWS V14.01,2013-09-14 19:08:00,
2013-09-14 12:09:00,81.8,51.5,29.67,SSW,203,0.0,3.0,35,0.00,,SKC,0.00,VWS V14.01,2013-09-14 19:09:00,
2013-09-14 12:10:00,82.2,51.8,29.67,South,185,2.0,5.0,35,0.00,,SKC,0.00,VWS V14.01,2013-09-14 19:10:00,
2013-09-14 12:11:00,82.2,51.8,29.67,WSW,240,8.0,8.0,35,0.00,,SKC,0.00,VWS V14.01,2013-09-14 19:11:00,
2013-09-14 12:12:00,82.0,50.9,29.67,WSW,247,2.0,7.0,34,0.00,,SKC,0.00,VWS V14.01,2013-09-14 19:12:00,
2013-09-14 12:13:00,82.4,51.2,29.67,SW,226,4.0,6.0,34,0.00,,SKC,0.00,VWS V14.01,2013-09-14 19:13:00,
2013-09-14 12:14:00,82.4,50.4,29.67,WSW,251,5.0,6.0,33,0.00,,SKC,0.00,VWS V14.01,2013-09-14 19:14:00,
2013-09-14 12:15:00,82.2,51.1,29.67,WSW,239,3.0,7.0,34,0.00,,SKC,0.00,VWS V14.01,2013-09-14 19:15:00,
2013-09-14 12:16:00,82.0,50.9,29.67,WSW,247,2.0,7.0,34,0.00,,SKC,0.00,VWS V14.01,2013-09-14 19:16:00,
2013-09-14 12:17:00,81.8,52.3,29.67,SE,131,2.0,4.0,36,0.00,,SKC,0.00,VWS V14.01,2013-09-14 19:17:00,
2013-09-14 12:18:00,81.6,51.3,29.67,WSW,248,3.0,6.0,35,0.00,,SKC,0.00,VWS V14.01,2013-09-14 19:18:00,
2013-09-14 12:19:00,81.6,51.3,29.67,WSW,248,2.0,5.0,35,0.00,,SKC,0.00,VWS V14.01,2013-09-14 19:19:00,
2013-09-14 12:20:00,81.6,52.1,29.67,South,184,3.0,3.0,36,0.00,,SKC,0.00,VWS V14.01,2013-09-14 19:20:00,
2013-09-14 12:21:00,81.8,52.3,29.67,SE,131,2.0,4.0,36,0.00,,SKC,0.00,VWS V14.01,2013-09-14 19:21:00,
2013-09-14 12:22:00,83.0,51.0,29.67,SSE,164,0.0,3.0,33,0.00,,SKC,0.00,VWS V14.01,2013-09-14 19:22:00,
2013-09-14 12:23:00,82.4,52.0,29.67,SW,232,2.0,3.0,35,0.00,,SKC,0.00,VWS V14.01,2013-09-14 19:23:00,
2013-09-14 12:24:00,82.4,51.2,29.67,South,171,0.0,3.0,34,0.00,,SKC,0.00,VWS V14.01,2013-09-14 19:24:00,
2013-09-14 12:25:00,82.6,51.4,29.67,SSE,164,0.0,3.0,34,0.00,,SKC,0.00,VWS V14.01,2013-09-14 19:25:00,
2013-09-14 12:26:00,83.0,51.0,29.67,SSE,164,0.0,3.0,33,0.00,,SKC,0.00,VWS V14.01,2013-09-14 19:26:00,
2013-09-14 12:27:00,83.2,51.1,29.67,SE,141,2.0,2.0,33,0.00,,SKC,0.00,VWS V14.01,2013-09-14 19:27:00,
2013-09-14 12:28:00,83.2,51.9,29.66,SSW,192,0.0,1.0,34,0.00,,SKC,0.00,VWS V14.01,2013-09-14 19:28:00,
2013-09-14 12:29:00,83.4,51.3,29.67,South,185,1.0,5.0,33,0.00,,SKC,0.00,VWS V14.01,2013-09-14 19:29:00,
2013-09-14 12:30:00,83.4,51.3,29.66,SW,227,3.0,6.0,33,0.00,,SKC,0.00,VWS V14.01,2013-09-14 19:30:00,
2013-09-14 12:31:00,83.2,51.1,29.66,SSW,213,0.0,3.0,33,0.00,,SKC,0.00,VWS V14.01,2013-09-14 19:31:00,
2013-09-14 12:32:00,83.2,51.9,29.66,SSW,192,0.0,1.0,34,0.00,,SKC,0.00,VWS V14.01,2013-09-14 19:32:00,
2013-09-14 12:33:00,83.4,52.1,29.66,SSE,165,0.0,4.0,34,0.00,,SKC,0.00,VWS V14.01,2013-09-14 19:33:00,
2013-09-14 12:34:00,83.4,51.3,29.66,SSE,157,0.0,3.0,33,0.00,,SKC,0.00,VWS V14.01,2013-09-14 19:34:00,
2013-09-14 12:35:00,83.4,51.3,29.66,SSW,200,1.0,3.0,33,0.00,,SKC,0.00,VWS V14.01,2013-09-14 19:35:00,
2013-09-14 12:36:00,83.4,52.1,29.66,South,182,0.0,4.0,34,0.00,,SKC,0.00,VWS V14.01,2013-09-14 19:36:00,
2013-09-14 12:37:00,83.4,51.3,29.66,SW,220,1.0,2.0,33,0.00,,SKC,0.00,VWS V14.01,2013-09-14 19:37:00,
2013-09-14 12:38:00,83.4,51.3,29.66,SSE,157,0.0,3.0,33,0.00,,SKC,0.00,VWS V14.01,2013-09-14 19:38:00,
2013-09-14 12:39:00,84.1,51.1,29.66,SSW,212,0.0,2.0,32,0.00,,SKC,0.00,VWS V14.01,2013-09-14 19:39:00,
2013-09-14 12:40:00,83.8,51.7,29.66,SSE,148,2.0,3.0,33,0.00,,SKC,0.00,VWS V14.01,2013-09-14 19:40:00,
2013-09-14 12:41:00,83.8,51.7,29.66,South,171,0.0,2.0,33,0.00,,SKC,0.00,VWS V14.01,2013-09-14 19:41:00,
2013-09-14 12:42:00,84.0,51.8,29.66,SSW,196,0.0,2.0,33,0.00,,SKC,0.00,VWS V14.01,2013-09-14 19:42:00,
2013-09-14 12:43:00,84.1,51.1,29.66,SSW,212,0.0,2.0,32,0.00,,SKC,0.00,VWS V14.01,2013-09-14 19:43:00,
2013-09-14 12:44:00,83.6,51.5,29.66,WNW,282,5.0,6.0,33,0.00,,SKC,0.00,VWS V14.01,2013-09-14 19:44:00,
2013-09-14 12:45:00,84.3,51.3,29.66,WSW,240,6.0,6.0,32,0.00,,SKC,0.00,VWS V14.01,2013-09-14 19:45:00,
2013-09-14 12:46:00,84.0,51.8,29.66,SSW,205,3.0,7.0,33,0.00,,SKC,0.00,VWS V14.01,2013-09-14 19:46:00,
2013-09-14 12:47:00,84.0,51.8,29.66,WSW,239,3.0,4.0,33,0.00,,SKC,0.00,VWS V14.01,2013-09-14 19:47:00,
2013-09-14 12:48:00,83.8,51.7,29.66,WSW,246,6.0,7.0,33,0.00,,SKC,0.00,VWS V14.01,2013-09-14 19:48:00,
2013-09-14 12:49:00,83.6,51.5,29.66,SW,236,1.0,6.0,33,0.00,,SKC,0.00,VWS V14.01,2013-09-14 19:49:00,
2013-09-14 12:50:00,83.2,51.1,29.66,SW,226,0.0,3.0,33,0.00,,SKC,0.00,VWS V14.01,2013-09-14 19:50:00,
2013-09-14 12:51:00,83.4,51.3,29.66,WSW,246,6.0,11.0,33,0.00,,SKC,0.00,VWS V14.01,2013-09-14 19:51:00,
2013-09-14 12:52:00,83.4,51.3,29.66,SW,222,5.0,10.0,33,0.00,,SKC,0.00,VWS V14.01,2013-09-14 19:52:00,
2013-09-14 12:53:00,83.2,51.1,29.66,SSW,208,3.0,5.0,33,0.00,,SKC,0.00,VWS V14.01,2013-09-14 19:53:00,
2013-09-14 12:54:00,83.2,51.1,29.66,SW,226,0.0,3.0,33,0.00,,SKC,0.00,VWS V14.01,2013-09-14 19:54:00,
2013-09-14 12:55:00,83.8,51.7,29.66,SSW,213,0.0,1.0,33,0.00,,SKC,0.00,VWS V14.01,2013-09-14 19:55:00,
2013-09-14 12:56:00,82.8,51.6,29.66,SW,222,0.0,0.0,34,0.00,,SKC,0.00,VWS V14.01,2013-09-14 19:56:00,
2013-09-14 12:57:00,83.0,51.8,29.66,SW,227,6.0,6.0,34,0.00,,SKC,0.00,VWS V14.01,2013-09-14 19:57:00,
2013-09-14 12:58:00,83.4,52.1,29.66,SSE,165,1.0,6.0,34,0.00,,SKC,0.00,VWS V14.01,2013-09-14 19:58:00,
2013-09-14 12:59:00,83.8,51.7,29.66,SSW,213,0.0,1.0,33,0.00,,SKC,0.00,VWS V14.01,2013-09-14 19:59:00,
2013-09-14 13:00:00,84.3,52.1,29.65,South,172,0.0,2.0,33,0.00,,SKC,0.00,VWS V14.01,2013-09-14 20:00:00,
2013-09-14 13:01:00,84.0,51.8,29.65,SW,232,0.0,3.0,33,0.00,,SKC,0.00,VWS V14.01,2013-09-14 20:01:00,
2013-09-14 13:02:00,84.7,51.6,29.65,WSW,251,0.0,7.0,32,0.00,,SKC,0.00,VWS V14.01,2013-09-14 20:02:00,
2013-09-14 13:03:00,84.5,51.4,29.65,WSW,250,3.0,5.0,32,0.00,,SKC,0.00,VWS V14.01,2013-09-14 20:03:00,
2013-09-14 13:04:00,84.1,51.1,29.65,SW,230,3.0,3.0,32,0.00,,SKC,0.00,VWS V14.01,2013-09-14 20:04:00,
2013-09-14 13:05:00,84.0,51.8,29.65,SW,232,0.0,3.0,33,0.00,,SKC,0.00,VWS V14.01,2013-09-14 20:05:00,
2013-09-14 13:06:00,84.1,51.9,29.65,SSE,160,0.0,8.0,33,0.00,,SKC,0.00,VWS V14.01,2013-09-14 20:06:00,
2013-09-14 13:07:00,83.8,51.7,29.65,WSW,258,5.0,5.0,33,0.00,,SKC,0.00,VWS V14.01,2013-09-14 20:07:00,
2013-09-14 13:08:00,83.8,51.7,29.65,SW,222,1.0,7.0,33,0.00,,SKC,0.00,VWS V14.01,2013-09-14 20:08:00,
2013-09-14 13:09:00,84.0,51.8,29.65,SSW,205,0.0,2.0,33,0.00,,SKC,0.00,VWS V14.01,2013-09-14 20:09:00,
2013-09-14 13:10:00,84.1,51.9,29.65,SSE,160,0.0,8.0,33,0.00,,SKC,0.00,VWS V14.01,2013-09-14 20:10:00,
2013-09-14 13:11:00,84.9,51.8,29.65,WSW,250,5.0,5.0,32,0.00,,SKC,0.00,VWS V14.01,2013-09-14 20:11:00,
2013-09-14 13:12:00,84.7,52.4,29.65,SSW,203,3.0,3.0,33,0.00,,SKC,0.00,VWS V14.01,2013-09-14 20:12:00,
2013-09-14 13:13:00,84.7,51.6,29.65,SSE,165,2.0,4.0,32,0.00,,SKC,0.00,VWS V14.01,2013-09-14 20:13:00,
2013-09-14 13:14:00,84.9,51.8,29.65,South,174,0.0,5.0,32,0.00,,SKC,0.00,VWS V14.01,2013-09-14 20:14:00,
2013-09-14 13:15:00,84.9,51.8,29.65,WSW,250,5.0,5.0,32,0.00,,SKC,0.00,VWS V14.01,2013-09-14 20:15:00,
2013-09-14 13:16:00,85.1,51.1,29.65,SW,234,5.0,6.0,31,0.00,,SKC,0.00,VWS V14.01,2013-09-14 20:16:00,
2013-09-14 13:17:00,84.9,52.6,29.65,WSW,246,6.0,6.0,33,0.00,,SKC,0.00,VWS V14.01,2013-09-14 20:17:00,
2013-09-14 13:18:00,84.7,51.6,29.65,SW,234,0.0,6.0,32,0.00,,SKC,0.00,VWS V14.01,2013-09-14 20:18:00,
2013-09-14 13:19:00,84.7,51.6,29.65,WSW,240,0.0,3.0,32,0.00,,SKC,0.00,VWS V14.01,2013-09-14 20:19:00,
2013-09-14 13:20:00,84.5,52.3,29.65,SW,222,0.0,2.0,33,0.00,,SKC,0.00,VWS V14.01,2013-09-14 20:20:00,
2013-09-14 13:21:00,84.9,52.6,29.65,WSW,246,6.0,6.0,33,0.00,,SKC,0.00,VWS V14.01,2013-09-14 20:21:00,
2013-09-14 13:22:00,84.9,53.4,29.65,SSE,167,0.0,0.0,34,0.00,,SKC,0.00,VWS V14.01,2013-09-14 20:22:00,
2013-09-14 13:23:00,85.1,52.0,29.65,SW,234,6.0,7.0,32,0.00,,SKC,0.00,VWS V14.01,2013-09-14 20:23:00,
2013-09-14 13:24:00,85.1,52.0,29.65,WSW,248,1.0,7.0,32,0.00,,SKC,0.00,VWS V14.01,2013-09-14 20:24:00,
2013-09-14 13:25:00,84.9,51.8,29.65,SW,232,0.0,6.0,32,0.00,,SKC,0.00,VWS V14.01,2013-09-14 20:25:00,
2013-09-14 13:26:00,84.9,53.4,29.65,SSE,167,0.0,0.0,34,0.00,,SKC,0.00,VWS V14.01,2013-09-14 20:26:00,
2013-09-14 13:27:00,85.7,52.5,29.65,WSW,237,4.0,8.0,32,0.00,,SKC,0.00,VWS V14.01,2013-09-14 20:27:00,
2013-09-14 13:28:00,85.3,53.0,29.65,SSE,154,6.0,6.0,33,0.00,,SKC,0.00,VWS V14.01,2013-09-14 20:28:00,
2013-09-14 13:29:00,85.5,52.3,29.65,SSE,168,0.0,6.0,32,0.00,,SKC,0.00,VWS V14.01,2013-09-14 20:29:00,
2013-09-14 13:30:00,85.7,52.5,29.65,West,263,4.0,5.0,32,0.00,,SKC,0.00,VWS V14.01,2013-09-14 20:30:00,
2013-09-14 13:31:00,85.7,52.5,29.65,WSW,237,4.0,8.0,32,0.00,,SKC,0.00,VWS V14.01,2013-09-14 20:31:00,
2013-09-14 13:32:00,85.3,52.1,29.65,South,189,1.0,2.0,32,0.00,,SKC,0.00,VWS V14.01,2013-09-14 20:32:00,
2013-09-14 13:33:00,85.7,52.5,29.65,SSW,198,0.0,3.0,32,0.00,,SKC,0.00,VWS V14.01,2013-09-14 20:33:00,
2013-09-14 13:34:00,85.3,51.3,29.65,SSW,202,2.0,6.0,31,0.00,,SKC,0.00,VWS V14.01,2013-09-14 20:34:00,
2013-09-14 13:35:00,85.3,52.1,29.65,WSW,241,2.0,5.0,32,0.00,,SKC,0.00,VWS V14.01,2013-09-14 20:35:00,
2013-09-14 13:36:00,85.3,52.1,29.65,South,189,1.0,2.0,32,0.00,,SKC,0.00,VWS V14.01,2013-09-14 20:36:00,
2013-09-14 13:37:00,85.9,51.8,29.65,SW,223,7.0,7.0,31,0.00,,SKC,0.00,VWS V14.01,2013-09-14 20:37:00,
2013-09-14 13:38:00,85.7,52.5,29.65,SW,234,4.0,5.0,32,0.00,,SKC,0.00,VWS V14.01,2013-09-14 20:38:00,
2013-09-14 13:39:00,85.7,52.5,29.65,SSW,208,7.0,7.0,32,0.00,,SKC,0.00,VWS V14.01,2013-09-14 20:39:00,
2013-09-14 13:40:00,86.1,52.8,29.65,SW,217,5.0,7.0,32,0.00,,SKC,0.00,VWS V14.01,2013-09-14 20:40:00,
2013-09-14 13:41:00,85.9,51.8,29.65,SW,223,7.0,7.0,31,0.00,,SKC,0.00,VWS V14.01,2013-09-14 20:41:00,
2013-09-14 13:42:00,85.7,51.6,29.64,South,176,0.0,2.0,31,0.00,,SKC,0.00,VWS V14.01,2013-09-14 20:42:00,
2013-09-14 13:43:00,85.7,51.6,29.65,SW,234,7.0,10.0,31,0.00,,SKC,0.00,VWS V14.01,2013-09-14 20:43:00,
2013-09-14 13:44:00,85.7,51.6,29.65,WSW,251,1.0,7.0,31,0.00,,SKC,0.00,VWS V14.01,2013-09-14 20:44:00,
2013-09-14 13:45:00,85.7,51.6,29.64,SW,222,2.0,3.0,31,0.00,,SKC,0.00,VWS V14.01,2013-09-14 20:45:00,
2013-09-14 13:46:00,85.7,51.6,29.64,South,176,0.0,2.0,31,0.00,,SKC,0.00,VWS V14.01,2013-09-14 20:46:00,
2013-09-14 13:47:00,86.1,52.8,29.64,SSW,213,1.0,6.0,32,0.00,,SKC,0.00,VWS V14.01,2013-09-14 20:47:00,
2013-09-14 13:48:00,86.1,52.0,29.64,SW,234,1.0,3.0,31,0.00,,SKC,0.00,VWS V14.01,2013-09-14 20:48:00,
2013-09-14 13:49:00,86.1,52.0,29.64,SSW,213,5.0,6.0,31,0.00,,SKC,0.00,VWS V14.01,2013-09-14 20:49:00,
2013-09-14 13:50:00,86.1,52.0,29.64,SSW,212,0.0,5.0,31,0.00,,SKC,0.00,VWS V14.01,2013-09-14 20:50:00,
2013-09-14 13:51:00,86.1,52.8,29.64,SSW,213,1.0,6.0,32,0.00,,SKC,0.00,VWS V14.01,2013-09-14 20:51:00,
2013-09-14 13:52:00,86.1,52.0,29.64,WSW,239,2.0,5.0,31,0.00,,SKC,0.00,VWS V14.01,2013-09-14 20:52:00,
2013-09-14 13:53:00,86.5,51.4,29.64,SW,222,2.0,2.0,30,0.00,,SKC,0.00,VWS V14.01,2013-09-14 20:53:00,
2013-09-14 13:54:00,86.3,52.1,29.64,South,189,1.0,6.0,31,0.00,,SKC,0.00,VWS V14.01,2013-09-14 20:54:00,
2013-09-14 13:55:00,86.5,51.4,29.64,SSW,206,3.0,3.0,30,0.00,,SKC,0.00,VWS V14.01,2013-09-14 20:55:00,
2013-09-14 13:56:00,86.5,51.4,29.64,SW,215,2.0,3.0,30,0.00,,SKC,0.00,VWS V14.01,2013-09-14 20:56:00,
2013-09-14 13:57:00,86.5,51.4,29.64,SW,222,2.0,2.0,30,0.00,,SKC,0.00,VWS V14.01,2013-09-14 20:57:00,
2013-09-14 13:58:00,86.3,52.1,29.64,SW,232,4.0,8.0,31,0.00,,SKC,0.00,VWS V14.01,2013-09-14 20:58:00,
2013-09-14 13:59:00,86.3,52.1,29.64,SW,222,2.0,5.0,31,0.00,,SKC,0.00,VWS V14.01,2013-09-14 20:59:00,
2013-09-14 14:00:00,86.1,52.0,29.64,SSW,195,0.0,6.0,31,0.00,,SKC,0.00,VWS V14.01,2013-09-14 21:00:00,
2013-09-14 14:01:00,86.1,52.0,29.64,SW,217,3.0,3.0,31,0.00,,SKC,0.00,VWS V14.01,2013-09-14 21:01:00,
2013-09-14 14:02:00,86.3,52.1,29.64,SW,232,4.0,8.0,31,0.00,,SKC,0.00,VWS V14.01,2013-09-14 21:02:00,
2013-09-14 14:03:00,86.3,52.1,29.64,SW,222,4.0,6.0,31,0.00,,SKC,0.00,VWS V14.01,2013-09-14 21:03:00,
2013-09-14 14:04:00,86.5,52.3,29.64,South,184,2.0,6.0,31,0.00,,SKC,0.00,VWS V14.01,2013-09-14 21:04:00,
2013-09-14 14:05:00,86.5,52.3,29.64,SW,215,3.0,7.0,31,0.00,,SKC,0.00,VWS V14.01,2013-09-14 21:05:00,
2013-09-14 14:06:00,86.3,51.2,29.64,WSW,246,3.0,4.0,30,0.00,,SKC,0.00,VWS V14.01,2013-09-14 21:06:00,
2013-09-14 14:07:00,86.5,51.4,29.64,SW,226,0.0,3.0,30,0.00,,SKC,0.00,VWS V14.01,2013-09-14 21:07:00,
2013-09-14 14:08:00,86.5,52.3,29.64,South,184,2.0,6.0,31,0.00,,SKC,0.00,VWS V14.01,2013-09-14 21:08:00,
2013-09-14 14:09:00,87.2,52.9,29.64,SSE,152,2.0,3.0,31,0.00,,SKC,0.00,VWS V14.01,2013-09-14 21:09:00,
2013-09-14 14:10:00,86.5,50.5,29.64,SSE,160,1.0,5.0,29,0.00,,SKC,0.00,VWS V14.01,2013-09-14 21:10:00,
2013-09-14 14:11:00,86.5,52.3,29.64,SSE,157,0.0,1.0,31,0.00,,SKC,0.00,VWS V14.01,2013-09-14 21:11:00,
2013-09-14 14:12:00,87.0,52.7,29.64,SW,223,0.0,3.0,31,0.00,,SKC,0.00,VWS V14.01,2013-09-14 21:12:00,
2013-09-14 14:13:00,87.2,52.9,29.64,SSE,152,2.0,3.0,31,0.00,,SKC,0.00,VWS V14.01,2013-09-14 21:13:00,
2013-09-14 14:14:00,87.2,50.2,29.63,West,261,0.0,1.0,28,0.00,,SKC,0.00,VWS V14.01,2013-09-14 21:14:00,
2013-09-14 14:15:00,87.4,52.2,29.63,South,171,2.0,2.0,30,0.00,,SKC,0.00,VWS V14.01,2013-09-14 21:15:00,
2013-09-14 14:16:00,87.4,51.3,29.63,SSE,164,1.0,11.0,29,0.00,,SKC,0.00,VWS V14.01,2013-09-14 21:16:00,
2013-09-14 14:17:00,87.4,50.3,29.63,WSW,239,1.0,6.0,28,0.00,,SKC,0.00,VWS V14.01,2013-09-14 21:17:00,
2013-09-14 14:18:00,87.2,50.2,29.63,West,261,0.0,1.0,28,0.00,,SKC,0.00,VWS V14.01,2013-09-14 21:18:00,
2013-09-14 14:19:00,87.0,51.8,29.63,SW,234,2.0,3.0,30,0.00,,SKC,0.00,VWS V14.01,2013-09-14 21:19:00,
2013-09-14 14:20:00,86.5,50.5,29.63,SW,229,7.0,8.0,29,0.00,,SKC,0.00,VWS V14.01,2013-09-14 21:20:00,
2013-09-14 14:21:00,87.0,50.9,29.63,SSW,209,6.0,6.0,29,0.00,,SKC,0.00,VWS V14.01,2013-09-14 21:21:00,
2013-09-14 14:22:00,86.7,50.7,29.63,SW,227,7.0,8.0,29,0.00,,SKC,0.00,VWS V14.01,2013-09-14 21:22:00,
2013-09-14 14:23:00,86.7,50.7,29.63,SSW,198,2.0,8.0,29,0.00,,SKC,0.00,VWS V14.01,2013-09-14 21:23:00,
2013-09-14 14:24:00,86.5,50.5,29.63,SW,229,7.0,8.0,29,0.00,,SKC,0.00,VWS V14.01,2013-09-14 21:24:00,
2013-09-14 14:25:00,86.5,50.5,29.63,WSW,246,3.0,6.0,29,0.00,,SKC,0.00,VWS V14.01,2013-09-14 21:25:00,
2013-09-14 14:26:00,86.1,51.1,29.63,SW,236,5.0,5.0,30,0.00,,SKC,0.00,VWS V14.01,2013-09-14 21:26:00,
2013-09-14 14:27:00,86.3,51.2,29.63,SW,222,5.0,5.0,30,0.00,,SKC,0.00,VWS V14.01,2013-09-14 21:27:00,
2013-09-14 14:28:00,86.5,50.5,29.63,SSW,212,6.0,7.0,29,0.00,,SKC,0.00,VWS V14.01,2013-09-14 21:28:00,
2013-09-14 14:29:00,86.5,50.5,29.63,WSW,246,3.0,6.0,29,0.00,,SKC,0.00,VWS V14.01,2013-09-14 21:29:00,
2013-09-14 14:30:00,87.2,51.1,29.63,SSE,147,2.0,5.0,29,0.00,,SKC,0.00,VWS V14.01,2013-09-14 21:30:00,
2013-09-14 14:31:00,86.7,51.6,29.63,SSW,208,5.0,5.0,30,0.00,,SKC,0.00,VWS V14.01,2013-09-14 21:31:00,
2013-09-14 14:32:00,87.0,50.9,29.63,SW,216,0.0,8.0,29,0.00,,SKC,0.00,VWS V14.01,2013-09-14 21:32:00,
2013-09-14 14:33:00,87.2,51.1,29.63,SE,143,3.0,5.0,29,0.00,,SKC,0.00,VWS V14.01,2013-09-14 21:33:00,
2013-09-14 14:34:00,87.2,51.1,29.63,SSE,147,2.0,5.0,29,0.00,,SKC,0.00,VWS V14.01,2013-09-14 21:34:00,
2013-09-14 14:35:00,87.4,50.3,29.63,WSW,239,6.0,8.0,28,0.00,,SKC,0.00,VWS V14.01,2013-09-14 21:35:00,
2013-09-14 14:36:00,87.4,50.3,29.63,SSW,195,0.0,5.0,28,0.00,,SKC,0.00,VWS V14.01,2013-09-14 21:36:00,
2013-09-14 14:37:00,87.6,51.5,29.63,WSW,244,7.0,7.0,29,0.00,,SKC,0.00,VWS V14.01,2013-09-14 21:37:00,
2013-09-14 14:38:00,87.6,50.5,29.63,WSW,253,3.0,7.0,28,0.00,,SKC,0.00,VWS V14.01,2013-09-14 21:38:00,
2013-09-14 14:39:00,87.4,50.3,29.63,WSW,239,6.0,8.0,28,0.00,,SKC,0.00,VWS V14.01,2013-09-14 21:39:00,
2013-09-14 14:40:00,87.4,50.3,29.63,SW,215,3.0,3.0,28,0.00,,SKC,0.00,VWS V14.01,2013-09-14 21:40:00,
2013-09-14 14:41:00,87.4,50.3,29.63,SSE,162,1.0,5.0,28,0.00,,SKC,0.00,VWS V14.01,2013-09-14 21:41:00,
2013-09-14 14:42:00,87.4,50.3,29.63,SSW,202,0.0,1.0,28,0.00,,SKC,0.00,VWS V14.01,2013-09-14 21:42:00,
2013-09-14 14:43:00,87.4,50.3,29.63,SW,222,2.0,5.0,28,0.00,,SKC,0.00,VWS V14.01,2013-09-14 21:43:00,
2013-09-14 14:44:00,87.4,50.3,29.63,SW,215,3.0,3.0,28,0.00,,SKC,0.00,VWS V14.01,2013-09-14 21:44:00,
2013-09-14 14:45:00,87.2,51.1,29.63,SW,223,3.0,7.0,29,0.00,,SKC,0.00,VWS V14.01,2013-09-14 21:45:00,
2013-09-14 14:46:00,87.6,50.5,29.63,SSW,210,6.0,6.0,28,0.00,,SKC,0.00,VWS V14.01,2013-09-14 21:46:00,
2013-09-14 14:47:00,87.4,49.3,29.63,WSW,257,0.0,6.0,27,0.00,,SKC,0.00,VWS V14.01,2013-09-14 21:47:00,
2013-09-14 14:48:00,87.2,49.2,29.63,WSW,243,0.0,8.0,27,0.00,,SKC,0.00,VWS V14.01,2013-09-14 21:48:00,
2013-09-14 14:49:00,87.2,51.1,29.63,SW,223,3.0,7.0,29,0.00,,SKC,0.00,VWS V14.01,2013-09-14 21:49:00,
2013-09-14 14:50:00,86.3,50.3,29.63,South,184,0.0,7.0,29,0.00,,SKC,0.00,VWS V14.01,2013-09-14 21:50:00,
2013-09-14 14:51:00,87.2,50.2,29.63,SW,224,2.0,6.0,28,0.00,,SKC,0.00,VWS V14.01,2013-09-14 21:51:00,
2013-09-14 14:52:00,86.7,50.7,29.63,WSW,237,5.0,7.0,29,0.00,,SKC,0.00,VWS V14.01,2013-09-14 21:52:00,
2013-09-14 14:53:00,86.3,50.3,29.63,SW,219,7.0,8.0,29,0.00,,SKC,0.00,VWS V14.01,2013-09-14 21:53:00,
2013-09-14 14:54:00,86.3,50.3,29.63,South,184,0.0,7.0,29,0.00,,SKC,0.00,VWS V14.01,2013-09-14 21:54:00,
2013-09-14 14:55:00,87.2,51.1,29.63,SSW,195,0.0,1.0,29,0.00,,SKC,0.00,VWS V14.01,2013-09-14 21:55:00,
2013-09-14 14:56:00,87.0,50.9,29.63,WSW,239,2.0,5.0,29,0.00,,SKC,0.00,VWS V14.01,2013-09-14 21:56:00,
2013-09-14 14:57:00,87.2,50.2,29.63,SSW,210,0.0,5.0,28,0.00,,SKC,0.00,VWS V14.01,2013-09-14 21:57:00,
2013-09-14 14:58:00,87.0,49.0,29.63,SSE,158,0.0,3.0,27,0.00,,SKC,0.00,VWS V14.01,2013-09-14 21:58:00,
2013-09-14 14:59:00,87.2,51.1,29.63,SSW,195,0.0,1.0,29,0.00,,SKC,0.00,VWS V14.01,2013-09-14 21:59:00,
2013-09-14 15:00:00,87.8,50.7,29.62,SSW,213,4.0,4.0,28,0.00,,SKC,0.00,VWS V14.01,2013-09-14 22:00:00,
2013-09-14 15:01:00,87.4,50.3,29.62,South,182,0.0,1.0,28,0.00,,SKC,0.00,VWS V14.01,2013-09-14 22:01:00,
2013-09-14 15:02:00,87.6,50.5,29.62,SE,137,1.0,3.0,28,0.00,,SKC,0.00,VWS V14.01,2013-09-14 22:02:00,
2013-09-14 15:03:00,87.6,50.5,29.62,SSE,158,1.0,2.0,28,0.00,,SKC,0.00,VWS V14.01,2013-09-14 22:03:00,
2013-09-14 15:04:00,87.8,50.7,29.62,SSW,213,4.0,4.0,28,0.00,,SKC,0.00,VWS V14.01,2013-09-14 22:04:00,
2013-09-14 15:05:00,88.4,51.2,29.62,West,264,2.0,4.0,28,0.00,,SKC,0.00,VWS V14.01,2013-09-14 22:05:00,
2013-09-14 15:06:00,88.0,49.9,29.62,South,179,0.0,5.0,27,0.00,,SKC,0.00,VWS V14.01,2013-09-14 22:06:00,
2013-09-14 15:07:00,88.2,50.0,29.62,South,171,0.0,1.0,27,0.00,,SKC,0.00,VWS V14.01,2013-09-14 22:07:00,
2013-09-14 15:08:00,88.4,51.2,29.62,SSE,164,2.0,2.0,28,0.00,,SKC,0.00,VWS V14.01,2013-09-14 22:08:00,
2013-09-14 15:09:00,88.4,51.2,29.62,West,264,2.0,4.0,28,0.00,,SKC,0.00,VWS V14.01,2013-09-14 22:09:00,
2013-09-14 15:10:00,88.6,51.4,29.62,SSW,210,1.0,2.0,28,0.00,,SKC,0.00,VWS V14.01,2013-09-14 22:10:00,
2013-09-14 15:11:00,88.2,51.0,29.62,South,178,1.0,1.0,28,0.00,,SKC,0.00,VWS V14.01,2013-09-14 22:11:00,
2013-09-14 15:12:00,88.2,51.0,29.62,South,191,3.0,6.0,28,0.00,,SKC,0.00,VWS V14.01,2013-09-14 22:12:00,
2013-09-14 15:13:00,88.2,51.0,29.62,South,189,0.0,3.0,28,0.00,,SKC,0.00,VWS V14.01,2013-09-14 22:13:00,
2013-09-14 15:14:00,88.2,51.0,29.62,SSW,206,1.0,1.0,28,0.00,,SKC,0.00,VWS V14.01,2013-09-14 22:14:00,
2013-09-14 15:15:00,88.2,51.0,29.62,South,178,1.0,1.0,28,0.00,,SKC,0.00,VWS V14.01,2013-09-14 22:15:00,
2013-09-14 15:16:00,88.6,51.4,29.62,South,184,2.0,2.0,28,0.00,,SKC,0.00,VWS V14.01,2013-09-14 22:16:00,
2013-09-14 15:17:00,88.6,51.4,29.62,WNW,287,3.0,3.0,28,0.00,,SKC,0.00,VWS V14.01,2013-09-14 22:17:00,
2013-09-14 15:18:00,88.4,51.2,29.62,ESE,104,0.0,3.0,28,0.00,,SKC,0.00,VWS V14.01,2013-09-14 22:18:00,
2013-09-14 15:19:00,88.6,51.4,29.62,South,184,2.0,2.0,28,0.00,,SKC,0.00,VWS V14.01,2013-09-14 22:19:00,
2013-09-14 15:20:00,88.6,51.4,29.62,South,184,2.0,2.0,28,0.00,,SKC,0.00,VWS V14.01,2013-09-14 22:20:00,
2013-09-14 15:21:00,88.6,51.4,29.62,South,189,0.0,2.0,28,0.00,,SKC,0.00,VWS V14.01,2013-09-14 22:21:00,
2013-09-14 15:22:00,88.0,51.8,29.62,WSW,240,0.0,0.0,29,0.00,,SKC,0.00,VWS V14.01,2013-09-14 22:22:00,
2013-09-14 15:23:00,88.6,50.4,29.62,SW,215,5.0,6.0,27,0.00,,SKC,0.00,VWS V14.01,2013-09-14 22:23:00,
2013-09-14 15:24:00,88.4,50.2,29.62,SW,234,0.0,5.0,27,0.00,,SKC,0.00,VWS V14.01,2013-09-14 22:24:00,
2013-09-14 15:25:00,88.2,52.0,29.62,South,178,0.0,0.0,29,0.00,,SKC,0.00,VWS V14.01,2013-09-14 22:25:00,
2013-09-14 15:26:00,88.0,51.8,29.62,WSW,240,0.0,0.0,29,0.00,,SKC,0.00,VWS V14.01,2013-09-14 22:26:00,
2013-09-14 15:27:00,88.0,49.9,29.62,WSW,257,3.0,7.0,27,0.00,,SKC,0.00,VWS V14.01,2013-09-14 22:27:00,
2013-09-14 15:28:00,87.8,50.7,29.62,West,263,1.0,5.0,28,0.00,,SKC,0.00,VWS V14.01,2013-09-14 22:28:00,
2013-09-14 15:29:00,87.8,49.7,29.62,SSW,202,4.0,4.0,27,0.00,,SKC,0.00,VWS V14.01,2013-09-14 22:29:00,
2013-09-14 15:30:00,88.0,49.9,29.62,SW,230,2.0,8.0,27,0.00,,SKC,0.00,VWS V14.01,2013-09-14 22:30:00,
2013-09-14 15:31:00,88.0,49.9,29.62,WSW,257,3.0,7.0,27,0.00,,SKC,0.00,VWS V14.01,2013-09-14 22:31:00,
2013-09-14 15:32:00,87.8,49.7,29.62,SSW,206,1.0,5.0,27,0.00,,SKC,0.00,VWS V14.01,2013-09-14 22:32:00,
2013-09-14 15:33:00,87.8,49.7,29.62,WSW,248,2.0,5.0,27,0.00,,SKC,0.00,VWS V14.01,2013-09-14 22:33:00,
2013-09-14 15:34:00,87.8,50.7,29.62,SW,234,5.0,5.0,28,0.00,,SKC,0.00,VWS V14.01,2013-09-14 22:34:00,
2013-09-14 15:35:00,87.8,49.7,29.62,SSW,202,0.0,8.0,27,0.00,,SKC,0.00,VWS V14.01,2013-09-14 22:35:00,
2013-09-14 15:36:00,87.8,49.7,29.62,SSW,210,0.0,0.0,27,0.00,,SKC,0.00,VWS V14.01,2013-09-14 22:36:00,
2013-09-14 15:37:00,87.8,49.7,29.62,WSW,248,2.0,5.0,27,0.00,,SKC,0.00,VWS V14.01,2013-09-14 22:37:00,
2013-09-14 15:38:00,88.0,50.8,29.62,SW,217,3.0,3.0,28,0.00,,SKC,0.00,VWS V14.01,2013-09-14 22:38:00,
2013-09-14 15:39:00,87.8,50.7,29.62,SSW,213,0.0,2.0,28,0.00,,SKC,0.00,VWS V14.01,2013-09-14 22:39:00,
2013-09-14 15:40:00,88.0,50.8,29.62,SSE,161,1.0,1.0,28,0.00,,SKC,0.00,VWS V14.01,2013-09-14 22:40:00,
2013-09-14 15:41:00,88.0,49.9,29.62,SSW,198,2.0,10.0,27,0.00,,SKC,0.00,VWS V14.01,2013-09-14 22:41:00,
2013-09-14 15:42:00,88.0,50.8,29.62,SW,217,3.0,3.0,28,0.00,,SKC,0.00,VWS V14.01,2013-09-14 22:42:00,
2013-09-14 15:43:00,88.2,51.0,29.61,WSW,246,0.0,0.0,28,0.00,,SKC,0.00,VWS V14.01,2013-09-14 22:43:00,
2013-09-14 15:44:00,88.2,50.0,29.62,SW,216,3.0,7.0,27,0.00,,SKC,0.00,VWS V14.01,2013-09-14 22:44:00,
2013-09-14 15:45:00,88.4,50.2,29.61,SW,223,0.0,7.0,27,0.00,,SKC,0.00,VWS V14.01,2013-09-14 22:45:00,
2013-09-14 15:46:00,88.2,51.0,29.61,WSW,246,0.0,1.0,28,0.00,,SKC,0.00,VWS V14.01,2013-09-14 22:46:00,
2013-09-14 15:47:00,88.2,51.0,29.61,WSW,246,0.0,0.0,28,0.00,,SKC,0.00,VWS V14.01,2013-09-14 22:47:00,
2013-09-14 15:48:00,88.2,50.0,29.61,SSW,210,0.0,1.0,27,0.00,,SKC,0.00,VWS V14.01,2013-09-14 22:48:00,
2013-09-14 15:49:00,89.3,52.0,29.61,South,185,0.0,1.0,28,0.00,,SKC,0.00,VWS V14.01,2013-09-14 22:49:00,
2013-09-14 15:50:00,88.6,50.4,29.61,SSE,164,2.0,2.0,27,0.00,,SKC,0.00,VWS V14.01,2013-09-14 22:50:00,
2013-09-14 15:51:00,88.8,51.5,29.61,South,185,0.0,3.0,28,0.00,,SKC,0.00,VWS V14.01,2013-09-14 22:51:00,
2013-09-14 15:52:00,89.0,50.7,29.61,South,185,0.0,1.0,27,0.00,,SKC,0.00,VWS V14.01,2013-09-14 22:52:00,
2013-09-14 15:53:00,89.3,52.0,29.61,South,185,0.0,1.0,28,0.00,,SKC,0.00,VWS V14.01,2013-09-14 22:53:00,
2013-09-14 15:54:00,88.6,50.4,29.61,SW,217,7.0,7.0,27,0.00,,SKC,0.00,VWS V14.01,2013-09-14 22:54:00,
2013-09-14 15:55:00,89.3,51.0,29.61,SW,220,2.0,6.0,27,0.00,,SKC,0.00,VWS V14.01,2013-09-14 22:55:00,
2013-09-14 15:56:00,89.0,50.7,29.61,SSW,210,0.0,5.0,27,0.00,,SKC,0.00,VWS V14.01,2013-09-14 22:56:00,
2013-09-14 15:57:00,88.8,50.5,29.61,SW,215,5.0,5.0,27,0.00,,SKC,0.00,VWS V14.01,2013-09-14 22:57:00,
2013-09-14 15:58:00,88.6,50.4,29.61,SW,217,7.0,7.0,27,0.00,,SKC,0.00,VWS V14.01,2013-09-14 22:58:00,
2013-09-14 15:59:00,88.2,50.0,29.61,SSW,192,0.0,0.0,27,0.00,,SKC,0.00,VWS V14.01,2013-09-14 22:59:00,
2013-09-14 16:00:00,88.2,50.0,29.61,SW,234,2.0,2.0,27,0.00,,SKC,0.00,VWS V14.01,2013-09-14 23:00:00,
2013-09-14 16:01:00,88.0,49.9,29.61,SW,220,1.0,4.0,27,0.00,,SKC,0.00,VWS V14.01,2013-09-14 23:01:00,
2013-09-14 16:02:00,88.0,49.9,29.61,SSW,192,0.0,3.0,27,0.00,,SKC,0.00,VWS V14.01,2013-09-14 23:02:00,
2013-09-14 16:03:00,88.2,50.0,29.61,SSW,192,0.0,0.0,27,0.00,,SKC,0.00,VWS V14.01,2013-09-14 23:03:00,
2013-09-14 16:04:00,88.2,51.0,29.61,West,261,2.0,2.0,28,0.00,,SKC,0.00,VWS V14.01,2013-09-14 23:04:00,
2013-09-14 16:05:00,88.4,51.2,29.61,SW,232,3.0,6.0,28,0.00,,SKC,0.00,VWS V14.01,2013-09-14 23:05:00,
2013-09-14 16:06:00,88.4,50.2,29.61,WSW,244,0.0,3.0,27,0.00,,SKC,0.00,VWS V14.01,2013-09-14 23:06:00,
2013-09-14 16:07:00,88.2,51.0,29.61,SSE,154,2.0,2.0,28,0.00,,SKC,0.00,VWS V14.01,2013-09-14 23:07:00,
2013-09-14 16:08:00,88.2,51.0,29.61,West,261,2.0,2.0,28,0.00,,SKC,0.00,VWS V14.01,2013-09-14 23:08:00,
2013-09-14 16:09:00,88.2,50.0,29.61,South,189,0.0,2.0,27,0.00,,SKC,0.00,VWS V14.01,2013-09-14 23:09:00,
2013-09-14 16:10:00,88.2,52.0,29.61,SSE,150,2.0,2.0,29,0.00,,SKC,0.00,VWS V14.01,2013-09-14 23:10:00,
2013-09-14 16:11:00,88.4,51.2,29.61,SSE,147,3.0,5.0,28,0.00,,SKC,0.00,VWS V14.01,2013-09-14 23:11:00,
2013-09-14 16:12:00,88.4,50.2,29.61,SSE,151,0.0,3.0,27,0.00,,SKC,0.00,VWS V14.01,2013-09-14 23:12:00,
2013-09-14 16:13:00,88.2,51.0,29.61,SSE,151,0.0,0.0,28,0.00,,SKC,0.00,VWS V14.01,2013-09-14 23:13:00,
2013-09-14 16:14:00,88.2,52.0,29.61,SSE,150,2.0,2.0,29,0.00,,SKC,0.00,VWS V14.01,2013-09-14 23:14:00,
2013-09-14 16:15:00,88.4,51.2,29.60,WSW,247,6.0,6.0,28,0.00,,SKC,0.00,VWS V14.01,2013-09-14 23:15:00,
2013-09-14 16:16:00,88.2,52.0,29.60,SE,140,0.0,1.0,29,0.00,,SKC,0.00,VWS V14.01,2013-09-14 23:16:00,
2013-09-14 16:17:00,88.2,52.0,29.60,SW,224,6.0,6.0,29,0.00,,SKC,0.00,VWS V14.01,2013-09-14 23:17:00,
2013-09-14 16:18:00,88.4,50.2,29.60,SSW,193,1.0,6.0,27,0.00,,SKC,0.00,VWS V14.01,2013-09-14 23:18:00,
2013-09-14 16:19:00,88.4,51.2,29.60,WSW,247,6.0,6.0,28,0.00,,SKC,0.00,VWS V14.01,2013-09-14 23:19:00,
2013-09-14 16:20:00,88.0,49.9,29.60,WSW,248,0.0,0.0,27,0.00,,SKC,0.00,VWS V14.01,2013-09-14 23:20:00,
2013-09-14 16:21:00,88.2,51.0,29.60,SW,215,7.0,7.0,28,0.00,,SKC,0.00,VWS V14.01,2013-09-14 23:21:00,
2013-09-14 16:22:00,88.2,51.0,29.60,West,261,5.0,7.0,28,0.00,,SKC,0.00,VWS V14.01,2013-09-14 23:22:00,
2013-09-14 16:23:00,88.2,51.0,29.60,WSW,248,0.0,5.0,28,0.00,,SKC,0.00,VWS V14.01,2013-09-14 23:23:00,
2013-09-14 16:24:00,88.0,49.9,29.60,WSW,248,0.0,0.0,27,0.00,,SKC,0.00,VWS V14.01,2013-09-14 23:24:00,
2013-09-14 16:25:00,87.8,50.7,29.60,SSW,202,0.0,3.0,28,0.00,,SKC,0.00,VWS V14.01,2013-09-14 23:25:00,
2013-09-14 16:26:00,87.8,51.6,29.60,SSW,199,0.0,3.0,29,0.00,,SKC,0.00,VWS V14.01,2013-09-14 23:26:00,
2013-09-14 16:27:00,87.6,50.5,29.60,SW,224,2.0,5.0,28,0.00,,SKC,0.00,VWS V14.01,2013-09-14 23:27:00,
2013-09-14 16:28:00,87.6,50.5,29.60,SW,227,0.0,3.0,28,0.00,,SKC,0.00,VWS V14.01,2013-09-14 23:28:00,
2013-09-14 16:29:00,87.6,51.5,29.60,SW,220,3.0,4.0,29,0.00,,SKC,0.00,VWS V14.01,2013-09-14 23:29:00,
2013-09-14 16:30:00,87.8,51.6,29.60,SSW,199,0.0,3.0,29,0.00,,SKC,0.00,VWS V14.01,2013-09-14 23:30:00,
2013-09-14 16:31:00,88.2,50.0,29.60,WSW,247,0.0,2.0,27,0.00,,SKC,0.00,VWS V14.01,2013-09-14 23:31:00,
2013-09-14 16:32:00,88.2,51.0,29.60,South,186,0.0,1.0,28,0.00,,SKC,0.00,VWS V14.01,2013-09-14 23:32:00,
2013-09-14 16:33:00,88.2,51.0,29.60,South,179,1.0,2.0,28,0.00,,SKC,0.00,VWS V14.01,2013-09-14 23:33:00,
2013-09-14 16:34:00,88.2,51.0,29.60,SSW,196,1.0,6.0,28,0.00,,SKC,0.00,VWS V14.01,2013-09-14 23:34:00,
2013-09-14 16:35:00,88.2,50.0,29.60,WSW,247,0.0,2.0,27,0.00,,SKC,0.00,VWS V14.01,2013-09-14 23:35:00,
2013-09-14 16:36:00,88.0,50.8,29.60,SW,223,4.0,7.0,28,0.00,,SKC,0.00,VWS V14.01,2013-09-14 23:36:00,
2013-09-14 16:37:00,88.2,50.0,29.60,SSW,210,0.0,1.0,27,0.00,,SKC,0.00,VWS V14.01,2013-09-14 23:37:00,
2013-09-14 16:38:00,88.0,50.8,29.60,South,171,2.0,2.0,28,0.00,,SKC,0.00,VWS V14.01,2013-09-14 23:38:00,
2013-09-14 16:39:00,88.0,51.8,29.60,SW,220,2.0,5.0,29,0.00,,SKC,0.00,VWS V14.01,2013-09-14 23:39:00,
2013-09-14 16:40:00,88.0,50.8,29.60,SSW,195,0.0,5.0,28,0.00,,SKC,0.00,VWS V14.01,2013-09-14 23:40:00,
2013-09-14 16:41:00,88.2,50.0,29.60,SSW,210,0.0,1.0,27,0.00,,SKC,0.00,VWS V14.01,2013-09-14 23:41:00,
2013-09-14 16:42:00,88.2,51.0,29.60,SSE,155,2.0,3.0,28,0.00,,SKC,0.00,VWS V14.01,2013-09-14 23:42:00,
2013-09-14 16:43:00,88.2,50.0,29.60,SSW,202,1.0,2.0,27,0.00,,SKC,0.00,VWS V14.01,2013-09-14 23:43:00,
2013-09-14 16:44:00,88.4,50.2,29.60,WSW,237,6.0,6.0,27,0.00,,SKC,0.00,VWS V14.01,2013-09-14 23:44:00,
2013-09-14 16:45:00,88.2,50.0,29.60,West,263,0.0,6.0,27,0.00,,SKC,0.00,VWS V14.01,2013-09-14 23:45:00,
2013-09-14 16:46:00,88.2,50.0,29.60,SSW,196,0.0,1.0,27,0.00,,SKC,0.00,VWS V14.01,2013-09-14 23:46:00,
2013-09-14 16:47:00,88.2,50.0,29.60,SSW,202,1.0,2.0,27,0.00,,SKC,0.00,VWS V14.01,2013-09-14 23:47:00,
2013-09-14 16:48:00,88.2,51.0,29.60,SW,220,0.0,3.0,28,0.00,,SKC,0.00,VWS V14.01,2013-09-14 23:48:00,
2013-09-14 16:49:00,88.6,50.4,29.60,SSW,203,0.0,0.0,27,0.00,,SKC,0.00,VWS V14.01,2013-09-14 23:49:00,
2013-09-14 16:50:00,88.4,50.2,29.60,SSE,151,0.0,0.0,27,0.00,,SKC,0.00,VWS V14.01,2013-09-14 23:50:00,
2013-09-14 16:51:00,88.6,50.4,29.60,SSE,167,1.0,2.0,27,0.00,,SKC,0.00,VWS V14.01,2013-09-14 23:51:00,
2013-09-14 16:52:00,88.6,50.4,29.60,SE,126,0.0,2.0,27,0.00,,SKC,0.00,VWS V14.01,2013-09-14 23:52:00,
2013-09-14 16:53:00,88.6,50.4,29.60,SSW,203,0.0,0.0,27,0.00,,SKC,0.00,VWS V14.01,2013-09-14 23:53:00,
2013-09-14 16:54:00,88.2,51.0,29.60,WSW,241,3.0,4.0,28,0.00,,SKC,0.00,VWS V14.01,2013-09-14 23:54:00,
2013-09-14 16:55:00,88.6,51.4,29.60,SSE,151,2.0,3.0,28,0.00,,SKC,0.00,VWS V14.01,2013-09-14 23:55:00,
2013-09-14 16:56:00,88.6,51.4,29.60,SW,219,2.0,4.0,28,0.00,,SKC,0.00,VWS V14.01,2013-09-14 23:56:00,
2013-09-14 16:57:00,88.4,51.2,29.60,SSW,212,0.0,2.0,28,0.00,,SKC,0.00,VWS V14.01,2013-09-14 23:57:00,
2013-09-14 16:58:00,88.4,51.2,29.60,SSW,213,1.0,4.0,28,0.00,,SKC,0.00,VWS V14.01,2013-09-14 23:58:00,
2013-09-14 16:59:00,88.2,51.0,29.60,WSW,237,5.0,6.0,28,0.00,,SKC,0.00,VWS V14.01,2013-09-14 23:59:00,
2013-09-14 17:00:00,87.8,51.6,29.60,WSW,240,2.0,4.0,29,0.00,,SKC,0.00,VWS V14.01,2013-09-15 00:00:00,
2013-09-14 17:01:00,88.0,50.8,29.60,SW,219,4.0,4.0,28,0.00,,SKC,0.00,VWS V14.01,2013-09-15 00:01:00,
2013-09-14 17:02:00,88.0,50.8,29.60,SSW,195,0.0,4.0,28,0.00,,SKC,0.00,VWS V14.01,2013-09-15 00:02:00,
2013-09-14 17:03:00,87.8,51.6,29.60,WSW,254,4.0,4.0,29,0.00,,SKC,0.00,VWS V14.01,2013-09-15 00:03:00,
2013-09-14 17:04:00,87.8,51.6,29.60,WSW,240,2.0,4.0,29,0.00,,SKC,0.00,VWS V14.01,2013-09-15 00:04:00,
2013-09-14 17:05:00,87.6,51.5,29.60,SW,215,5.0,7.0,29,0.00,,SKC,0.00,VWS V14.01,2013-09-15 00:05:00,
2013-09-14 17:06:00,87.6,51.5,29.60,SSW,192,0.0,1.0,29,0.00,,SKC,0.00,VWS V14.01,2013-09-15 00:06:00,
2013-09-14 17:07:00,87.6,50.5,29.60,SSW,198,5.0,5.0,28,0.00,,SKC,0.00,VWS V14.01,2013-09-15 00:07:00,
2013-09-14 17:08:00,87.6,50.5,29.60,SW,229,6.0,6.0,28,0.00,,SKC,0.00,VWS V14.01,2013-09-15 00:08:00,
2013-09-14 17:09:00,87.6,51.5,29.60,SW,215,5.0,7.0,29,0.00,,SKC,0.00,VWS V14.01,2013-09-15 00:09:00,
2013-09-14 17:10:00,87.6,50.5,29.60,South,184,0.0,0.0,28,0.00,,SKC,0.00,VWS V14.01,2013-09-15 00:10:00,
2013-09-14 17:11:00,87.6,51.5,29.60,South,178,0.0,0.0,29,0.00,,SKC,0.00,VWS V14.01,2013-09-15 00:11:00,
2013-09-14 17:12:00,87.6,51.5,29.60,SSW,212,0.0,1.0,29,0.00,,SKC,0.00,VWS V14.01,2013-09-15 00:12:00,
2013-09-14 17:13:00,87.6,50.5,29.60,SSE,168,0.0,1.0,28,0.00,,SKC,0.00,VWS V14.01,2013-09-15 00:13:00,
2013-09-14 17:14:00,87.6,50.5,29.60,South,184,0.0,0.0,28,0.00,,SKC,0.00,VWS V14.01,2013-09-15 00:14:00,
2013-09-14 17:15:00,87.6,50.5,29.61,South,184,0.0,0.0,28,0.00,,SKC,0.00,VWS V14.01,2013-09-15 00:15:00,
2013-09-14 17:16:00,87.8,51.6,29.61,South,189,0.0,5.0,29,0.00,,SKC,0.00,VWS V14.01,2013-09-15 00:16:00,
2013-09-14 17:17:00,87.8,50.7,29.61,SSW,213,3.0,3.0,28,0.00,,SKC,0.00,VWS V14.01,2013-09-15 00:17:00,
2013-09-14 17:18:00,87.6,50.5,29.61,SSW,212,0.0,3.0,28,0.00,,SKC,0.00,VWS V14.01,2013-09-15 00:18:00,
2013-09-14 17:19:00,87.6,50.5,29.61,SE,128,5.0,5.0,28,0.00,,SKC,0.00,VWS V14.01,2013-09-15 00:19:00,
2013-09-14 17:20:00,87.8,51.6,29.61,South,189,0.0,5.0,29,0.00,,SKC,0.00,VWS V14.01,2013-09-15 00:20:00,
2013-09-14 17:21:00,87.8,50.7,29.61,WSW,247,1.0,6.0,28,0.00,,SKC,0.00,VWS V14.01,2013-09-15 00:21:00,
2013-09-14 17:22:00,87.8,51.6,29.61,SSE,152,0.0,1.0,29,0.00,,SKC,0.00,VWS V14.01,2013-09-15 00:22:00,
2013-09-14 17:23:00,87.8,51.6,29.61,SSW,192,0.0,0.0,29,0.00,,SKC,0.00,VWS V14.01,2013-09-15 00:23:00,
2013-09-14 17:24:00,87.8,51.6,29.61,SSW,192,0.0,0.0,29,0.00,,SKC,0.00,VWS V14.01,2013-09-15 00:24:00,
2013-09-14 17:25:00,87.8,51.6,29.61,SSE,148,0.0,1.0,29,0.00,,SKC,0.00,VWS V14.01,2013-09-15 00:25:00,
2013-09-14 17:26:00,87.8,51.6,29.61,SSE,152,0.0,1.0,29,0.00,,SKC,0.00,VWS V14.01,2013-09-15 00:26:00,
2013-09-14 17:27:00,88.0,51.8,29.60,SW,216,2.0,2.0,29,0.00,,SKC,0.00,VWS V14.01,2013-09-15 00:27:00,
2013-09-14 17:28:00,88.0,51.8,29.61,South,176,0.0,0.0,29,0.00,,SKC,0.00,VWS V14.01,2013-09-15 00:28:00,
2013-09-14 17:29:00,88.0,51.8,29.61,SW,219,3.0,3.0,29,0.00,,SKC,0.00,VWS V14.01,2013-09-15 00:29:00,
2013-09-14 17:30:00,88.0,50.8,29.60,SSW,212,0.0,3.0,28,0.00,,SKC,0.00,VWS V14.01,2013-09-15 00:30:00,
2013-09-14 17:31:00,88.0,51.8,29.60,SW,216,2.0,2.0,29,0.00,,SKC,0.00,VWS V14.01,2013-09-15 00:31:00,
2013-09-14 17:32:00,87.8,51.6,29.60,SSW,198,2.0,2.0,29,0.00,,SKC,0.00,VWS V14.01,2013-09-15 00:32:00,
2013-09-14 17:33:00,88.0,51.8,29.60,SW,216,0.0,0.0,29,0.00,,SKC,0.00,VWS V14.01,2013-09-15 00:33:00,
2013-09-14 17:34:00,87.8,51.6,29.60,SW,216,0.0,0.0,29,0.00,,SKC,0.00,VWS V14.01,2013-09-15 00:34:00,
2013-09-14 17:35:00,87.8,51.6,29.60,SW,216,0.0,0.0,29,0.00,,SKC,0.00,VWS V14.01,2013-09-15 00:35:00,
2013-09-14 17:36:00,87.8,51.6,29.60,SSW,198,2.0,2.0,29,0.00,,SKC,0.00,VWS V14.01,2013-09-15 00:36:00,
2013-09-14 17:37:00,87.4,52.2,29.60,WSW,250,5.0,5.0,30,0.00,,SKC,0.00,VWS V14.01,2013-09-15 00:37:00,
2013-09-14 17:38:00,87.8,50.7,29.60,SW,215,0.0,0.0,28,0.00,,SKC,0.00,VWS V14.01,2013-09-15 00:38:00,
2013-09-14 17:39:00,87.6,50.5,29.60,SW,224,0.0,3.0,28,0.00,,SKC,0.00,VWS V14.01,2013-09-15 00:39:00,
2013-09-14 17:40:00,87.4,51.3,29.60,WSW,250,1.0,2.0,29,0.00,,SKC,0.00,VWS V14.01,2013-09-15 00:40:00,
2013-09-14 17:41:00,87.4,52.2,29.60,WSW,250,5.0,5.0,30,0.00,,SKC,0.00,VWS V14.01,2013-09-15 00:41:00,
2013-09-14 17:42:00,87.4,51.3,29.60,SSW,209,2.0,5.0,29,0.00,,SKC,0.00,VWS V14.01,2013-09-15 00:42:00,
2013-09-14 17:43:00,87.4,51.3,29.60,South,186,0.0,2.0,29,0.00,,SKC,0.00,VWS V14.01,2013-09-15 00:43:00,
2013-09-14 17:44:00,87.4,51.3,29.60,SSW,198,0.0,1.0,29,0.00,,SKC,0.00,VWS V14.01,2013-09-15 00:44:00,
2013-09-14 17:45:00,87.4,51.3,29.60,SSW,198,0.0,0.0,29,0.00,,SKC,0.00,VWS V14.01,2013-09-15 00:45:00,
2013-09-14 17:46:00,87.4,52.2,29.60,SW,233,2.0,3.0,30,0.00,,SKC,0.00,VWS V14.01,2013-09-15 00:46:00,
2013-09-14 17:47:00,87.4,51.3,29.60,South,186,0.0,2.0,29,0.00,,SKC,0.00,VWS V14.01,2013-09-15 00:47:00,
2013-09-14 17:48:00,87.2,51.1,29.60,South,178,1.0,2.0,29,0.00,,SKC,0.00,VWS V14.01,2013-09-15 00:48:00,
2013-09-14 17:49:00,87.2,52.0,29.60,SW,219,0.0,3.0,30,0.00,,SKC,0.00,VWS V14.01,2013-09-15 00:49:00,
2013-09-14 17:50:00,87.2,52.0,29.60,SW,227,1.0,2.0,30,0.00,,SKC,0.00,VWS V14.01,2013-09-15 00:50:00,
2013-09-14 17:51:00,87.2,51.1,29.60,WSW,240,1.0,5.0,29,0.00,,SKC,0.00,VWS V14.01,2013-09-15 00:51:00,
2013-09-14 17:52:00,87.2,51.1,29.60,South,178,1.0,2.0,29,0.00,,SKC,0.00,VWS V14.01,2013-09-15 00:52:00,
2013-09-14 17:53:00,87.0,51.8,29.60,SE,145,2.0,2.0,30,0.00,,SKC,0.00,VWS V14.01,2013-09-15 00:53:00,
2013-09-14 17:54:00,87.2,52.0,29.60,SW,216,0.0,1.0,30,0.00,,SKC,0.00,VWS V14.01,2013-09-15 00:54:00,
2013-09-14 17:55:00,87.2,52.0,29.60,SSE,164,0.0,2.0,30,0.00,,SKC,0.00,VWS V14.01,2013-09-15 00:55:00,
2013-09-14 17:56:00,87.2,52.0,29.60,SSE,150,0.0,2.0,30,0.00,,SKC,0.00,VWS V14.01,2013-09-15 00:56:00,
2013-09-14 17:57:00,87.0,51.8,29.60,SE,145,2.0,2.0,30,0.00,,SKC,0.00,VWS V14.01,2013-09-15 00:57:00,
2013-09-14 17:58:00,87.0,51.8,29.60,SSE,151,0.0,2.0,30,0.00,,SKC,0.00,VWS V14.01,2013-09-15 00:58:00,
2013-09-14 17:59:00,86.7,52.5,29.60,SSE,148,0.0,2.0,31,0.00,,SKC,0.00,VWS V14.01,2013-09-15 00:59:00,
2013-09-14 18:00:00,87.0,51.8,29.60,SSE,150,0.0,0.0,30,0.00,,SKC,0.00,VWS V14.01,2013-09-15 01:00:00,
2013-09-14 18:01:00,87.0,51.8,29.60,SSE,167,0.0,2.0,30,0.00,,SKC,0.00,VWS V14.01,2013-09-15 01:01:00,
2013-09-14 18:02:00,87.0,51.8,29.60,SSE,158,0.0,2.0,30,0.00,,SKC,0.00,VWS V14.01,2013-09-15 01:02:00,
2013-09-14 18:03:00,86.7,52.5,29.60,SSE,148,0.0,2.0,31,0.00,,SKC,0.00,VWS V14.01,2013-09-15 01:03:00,
2013-09-14 18:04:00,86.7,52.5,29.60,SW,234,2.0,2.0,31,0.00,,SKC,0.00,VWS V14.01,2013-09-15 01:04:00,
2013-09-14 18:05:00,86.7,52.5,29.60,South,182,0.0,1.0,31,0.00,,SKC,0.00,VWS V14.01,2013-09-15 01:05:00,
2013-09-14 18:06:00,86.7,52.5,29.60,SSW,208,0.0,3.0,31,0.00,,SKC,0.00,VWS V14.01,2013-09-15 01:06:00,
2013-09-14 18:07:00,86.7,52.5,29.60,SSW,209,0.0,0.0,31,0.00,,SKC,0.00,VWS V14.01,2013-09-15 01:07:00,
2013-09-14 18:08:00,86.7,52.5,29.60,SW,216,1.0,2.0,31,0.00,,SKC,0.00,VWS V14.01,2013-09-15 01:08:00,
2013-09-14 18:09:00,86.7,52.5,29.60,SW,227,1.0,2.0,31,0.00,,SKC,0.00,VWS V14.01,2013-09-15 01:09:00,
2013-09-14 18:10:00,86.7,52.5,29.60,SSW,206,3.0,3.0,31,0.00,,SKC,0.00,VWS V14.01,2013-09-15 01:10:00,
2013-09-14 18:11:00,86.7,52.5,29.60,SSW,202,3.0,4.0,31,0.00,,SKC,0.00,VWS V14.01,2013-09-15 01:11:00,
2013-09-14 18:12:00,86.7,52.5,29.60,South,191,3.0,5.0,31,0.00,,SKC,0.00,VWS V14.01,2013-09-15 01:12:00,
2013-09-14 18:13:00,86.7,51.6,29.60,SSW,210,1.0,3.0,30,0.00,,SKC,0.00,VWS V14.01,2013-09-15 01:13:00,
2013-09-14 18:14:00,86.7,52.5,29.60,SSW,206,3.0,3.0,31,0.00,,SKC,0.00,VWS V14.01,2013-09-15 01:14:00,
2013-09-14 18:15:00,86.5,52.3,29.60,South,185,0.0,1.0,31,0.00,,SKC,0.00,VWS V14.01,2013-09-15 01:15:00,
2013-09-14 18:16:00,86.5,52.3,29.60,SW,220,0.0,4.0,31,0.00,,SKC,0.00,VWS V14.01,2013-09-15 01:16:00,
2013-09-14 18:17:00,86.5,52.3,29.60,SW,220,0.0,0.0,31,0.00,,SKC,0.00,VWS V14.01,2013-09-15 01:17:00,
2013-09-14 18:18:00,86.5,52.3,29.60,South,172,0.0,0.0,31,0.00,,SKC,0.00,VWS V14.01,2013-09-15 01:18:00,
2013-09-14 18:19:00,86.5,52.3,29.60,South,185,0.0,1.0,31,0.00,,SKC,0.00,VWS V14.01,2013-09-15 01:19:00,
2013-09-14 18:20:00,86.3,52.1,29.60,SSE,158,1.0,1.0,31,0.00,,SKC,0.00,VWS V14.01,2013-09-15 01:20:00,
2013-09-14 18:21:00,86.3,52.1,29.60,SSW,198,1.0,2.0,31,0.00,,SKC,0.00,VWS V14.01,2013-09-15 01:21:00,
2013-09-14 18:22:00,86.3,52.1,29.60,SE,137,2.0,3.0,31,0.00,,SKC,0.00,VWS V14.01,2013-09-15 01:22:00,
2013-09-14 18:23:00,86.3,52.1,29.60,SSE,150,0.0,2.0,31,0.00,,SKC,0.00,VWS V14.01,2013-09-15 01:23:00,
2013-09-14 18:24:00,86.3,52.1,29.60,SSW,202,1.0,1.0,31,0.00,,SKC,0.00,VWS V14.01,2013-09-15 01:24:00,
2013-09-14 18:25:00,86.3,52.1,29.60,SSW,198,1.0,2.0,31,0.00,,SKC,0.00,VWS V14.01,2013-09-15 01:25:00,
2013-09-14 18:26:00,86.1,52.0,29.60,SW,230,0.0,0.0,31,0.00,,SKC,0.00,VWS V14.01,2013-09-15 01:26:00,
2013-09-14 18:27:00,86.1,52.0,29.60,SW,227,1.0,1.0,31,0.00,,SKC,0.00,VWS V14.01,2013-09-15 01:27:00,
2013-09-14 18:28:00,86.1,52.0,29.60,SW,224,0.0,1.0,31,0.00,,SKC,0.00,VWS V14.01,2013-09-15 01:28:00,
2013-09-14 18:29:00,86.1,52.0,29.60,SW,224,0.0,0.0,31,0.00,,SKC,0.00,VWS V14.01,2013-09-15 01:29:00,
2013-09-14 18:30:00,86.1,52.0,29.60,SW,230,0.0,0.0,31,0.00,,SKC,0.00,VWS V14.01,2013-09-15 01:30:00,
2013-09-14 18:31:00,85.9,52.7,29.60,SSW,212,0.0,0.0,32,0.00,,SKC,0.00,VWS V14.01,2013-09-15 01:31:00,
2013-09-14 18:32:00,86.1,52.8,29.60,ESE,110,0.0,0.0,32,0.00,,SKC,0.00,VWS V14.01,2013-09-15 01:32:00,
2013-09-14 18:33:00,86.1,52.8,29.60,SW,226,0.0,1.0,32,0.00,,SKC,0.00,VWS V14.01,2013-09-15 01:33:00,
2013-09-14 18:34:00,86.1,52.0,29.60,SSW,213,0.0,1.0,31,0.00,,SKC,0.00,VWS V14.01,2013-09-15 01:34:00,
2013-09-14 18:35:00,85.9,52.7,29.60,SSW,212,0.0,0.0,32,0.00,,SKC,0.00,VWS V14.01,2013-09-15 01:35:00,
2013-09-14 18:36:00,85.9,52.7,29.60,SSW,212,0.0,0.0,32,0.00,,SKC,0.00,VWS V14.01,2013-09-15 01:36:00,
2013-09-14 18:37:00,85.9,52.7,29.60,South,171,0.0,0.0,32,0.00,,SKC,0.00,VWS V14.01,2013-09-15 01:37:00,
2013-09-14 18:38:00,85.9,52.7,29.60,South,181,0.0,0.0,32,0.00,,SKC,0.00,VWS V14.01,2013-09-15 01:38:00,
2013-09-14 18:39:00,85.9,52.7,29.60,SSW,210,1.0,1.0,32,0.00,,SKC,0.00,VWS V14.01,2013-09-15 01:39:00,
2013-09-14 18:40:00,85.9,52.7,29.60,South,169,0.0,1.0,32,0.00,,SKC,0.00,VWS V14.01,2013-09-15 01:40:00,
2013-09-14 18:41:00,85.9,52.7,29.60,South,171,0.0,0.0,32,0.00,,SKC,0.00,VWS V14.01,2013-09-15 01:41:00,
2013-09-14 18:42:00,85.7,52.5,29.60,SE,144,0.0,0.0,32,0.00,,SKC,0.00,VWS V14.01,2013-09-15 01:42:00,
2013-09-14 18:43:00,85.9,52.7,29.60,SSW,196,0.0,1.0,32,0.00,,SKC,0.00,VWS V14.01,2013-09-15 01:43:00,
2013-09-14 18:44:00,85.7,52.5,29.60,SSE,148,0.0,1.0,32,0.00,,SKC,0.00,VWS V14.01,2013-09-15 01:44:00,
2013-09-14 18:45:00,85.7,52.5,29.60,SE,144,0.0,2.0,32,0.00,,SKC,0.00,VWS V14.01,2013-09-15 01:45:00,
2013-09-14 18:46:00,85.7,52.5,29.60,SE,144,0.0,0.0,32,0.00,,SKC,0.00,VWS V14.01,2013-09-15 01:46:00,
2013-09-14 18:47:00,85.5,52.3,29.60,SSE,167,0.0,0.0,32,0.00,,SKC,0.00,VWS V14.01,2013-09-15 01:47:00,
2013-09-14 18:48:00,85.7,52.5,29.60,SE,144,0.0,0.0,32,0.00,,SKC,0.00,VWS V14.01,2013-09-15 01:48:00,
2013-09-14 18:49:00,85.7,52.5,29.60,SSE,161,0.0,1.0,32,0.00,,SKC,0.00,VWS V14.01,2013-09-15 01:49:00,
2013-09-14 18:50:00,85.5,52.3,29.60,SSE,161,0.0,1.0,32,0.00,,SKC,0.00,VWS V14.01,2013-09-15 01:50:00,
2013-09-14 18:51:00,85.5,52.3,29.60,SSE,167,0.0,0.0,32,0.00,,SKC,0.00,VWS V14.01,2013-09-15 01:51:00,
2013-09-14 18:52:00,85.5,52.3,29.60,SSE,150,0.0,1.0,32,0.00,,SKC,0.00,VWS V14.01,2013-09-15 01:52:00,
2013-09-14 18:53:00,85.1,52.8,29.60,SSW,203,0.0,0.0,33,0.00,,SKC,0.00,VWS V14.01,2013-09-15 01:53:00,
2013-09-14 18:54:00,85.3,53.0,29.60,SSE,151,0.0,1.0,33,0.00,,SKC,0.00,VWS V14.01,2013-09-15 01:54:00,
2013-09-14 18:55:00,85.3,53.0,29.60,SSE,151,0.0,0.0,33,0.00,,SKC,0.00,VWS V14.01,2013-09-15 01:55:00,
2013-09-14 18:56:00,85.1,52.8,29.60,SSE,151,0.0,0.0,33,0.00,,SKC,0.00,VWS V14.01,2013-09-15 01:56:00,
2013-09-14 18:57:00,85.1,52.8,29.60,SSW,203,0.0,0.0,33,0.00,,SKC,0.00,VWS V14.01,2013-09-15 01:57:00,
2013-09-14 18:58:00,84.7,53.3,29.60,SSW,203,0.0,0.0,34,0.00,,SKC,0.00,VWS V14.01,2013-09-15 01:58:00,
2013-09-14 18:59:00,84.9,52.6,29.60,SSW,203,0.0,0.0,33,0.00,,SKC,0.00,VWS V14.01,2013-09-15 01:59:00,
2013-09-14 19:00:00,84.9,52.6,29.60,SSW,203,0.0,0.0,33,0.00,,SKC,0.00,VWS V14.01,2013-09-15 02:00:00,
2013-09-14 19:01:00,84.7,53.3,29.60,SSW,203,0.0,0.0,34,0.00,,SKC,0.00,VWS V14.01,2013-09-15 02:01:00,
2013-09-14 19:02:00,84.7,53.3,29.60,SSW,203,0.0,0.0,34,0.00,,SKC,0.00,VWS V14.01,2013-09-15 02:02:00,
2013-09-14 19:03:00,84.1,53.5,29.60,SSW,205,0.0,1.0,35,0.00,,SKC,0.00,VWS V14.01,2013-09-15 02:03:00,
2013-09-14 19:04:00,84.5,53.9,29.60,SSW,203,0.0,0.0,35,0.00,,SKC,0.00,VWS V14.01,2013-09-15 02:04:00,
2013-09-14 19:05:00,84.3,53.7,29.60,SSW,203,0.0,0.0,35,0.00,,SKC,0.00,VWS V14.01,2013-09-15 02:05:00,
2013-09-14 19:06:00,84.1,53.5,29.60,SSW,203,1.0,1.0,35,0.00,,SKC,0.00,VWS V14.01,2013-09-15 02:06:00,
2013-09-14 19:07:00,84.1,53.5,29.60,SSW,205,0.0,1.0,35,0.00,,SKC,0.00,VWS V14.01,2013-09-15 02:07:00,
2013-09-14 19:08:00,84.0,53.4,29.60,SSW,205,0.0,0.0,35,0.00,,SKC,0.00,VWS V14.01,2013-09-15 02:08:00,
2013-09-14 19:09:00,83.4,52.9,29.60,SSW,205,0.0,0.0,35,0.00,,SKC,0.00,VWS V14.01,2013-09-15 02:09:00,
2013-09-14 19:10:00,83.8,53.3,29.60,SSW,205,0.0,0.0,35,0.00,,SKC,0.00,VWS V14.01,2013-09-15 02:10:00,
2013-09-14 19:11:00,83.6,53.1,29.60,SSW,205,0.0,0.0,35,0.00,,SKC,0.00,VWS V14.01,2013-09-15 02:11:00,
2013-09-14 19:12:00,83.6,53.1,29.60,SSW,205,0.0,0.0,35,0.00,,SKC,0.00,VWS V14.01,2013-09-15 02:12:00,
2013-09-14 19:13:00,83.4,52.9,29.60,SSW,205,0.0,0.0,35,0.00,,SKC,0.00,VWS V14.01,2013-09-15 02:13:00,
2013-09-14 19:14:00,82.8,53.9,29.61,SSW,205,0.0,0.0,37,0.00,,SKC,0.00,VWS V14.01,2013-09-15 02:14:00,
2013-09-14 19:15:00,83.2,52.7,29.61,SSW,205,0.0,0.0,35,0.00,,SKC,0.00,VWS V14.01,2013-09-15 02:15:00,
2013-09-14 19:16:00,83.2,52.7,29.61,SSW,205,0.0,0.0,35,0.00,,SKC,0.00,VWS V14.01,2013-09-15 02:16:00,
2013-09-14 19:17:00,83.0,52.6,29.61,SSW,205,0.0,0.0,35,0.00,,SKC,0.00,VWS V14.01,2013-09-15 02:17:00,
2013-09-14 19:18:00,82.8,53.9,29.61,SSW,205,0.0,0.0,37,0.00,,SKC,0.00,VWS V14.01,2013-09-15 02:18:00,
2013-09-14 19:19:00,82.6,53.7,29.61,SSW,205,0.0,0.0,37,0.00,,SKC,0.00,VWS V14.01,2013-09-15 02:19:00,
2013-09-14 19:20:00,82.2,54.1,29.61,SSW,205,0.0,0.0,38,0.00,,SKC,0.00,VWS V14.01,2013-09-15 02:20:00,
2013-09-14 19:21:00,82.4,54.3,29.61,SSW,205,0.0,0.0,38,0.00,,SKC,0.00,VWS V14.01,2013-09-15 02:21:00,
2013-09-14 19:22:00,82.4,54.3,29.61,SSW,205,0.0,0.0,38,0.00,,SKC,0.00,VWS V14.01,2013-09-15 02:22:00,
2013-09-14 19:23:00,82.4,54.3,29.61,SSW,205,0.0,0.0,38,0.00,,SKC,0.00,VWS V14.01,2013-09-15 02:23:00,
2013-09-14 19:24:00,82.2,54.1,29.61,SSW,205,0.0,0.0,38,0.00,,SKC,0.00,VWS V14.01,2013-09-15 02:24:00,
2013-09-14 19:25:00,81.6,54.3,29.61,SSW,205,0.0,0.0,39,0.00,,SKC,0.00,VWS V14.01,2013-09-15 02:25:00,
2013-09-14 19:26:00,82.0,54.6,29.61,SSW,205,0.0,0.0,39,0.00,,SKC,0.00,VWS V14.01,2013-09-15 02:26:00,
2013-09-14 19:27:00,81.8,54.5,29.61,SSW,205,0.0,0.0,39,0.00,,SKC,0.00,VWS V14.01,2013-09-15 02:27:00,
2013-09-14 19:28:00,81.8,54.5,29.61,SSW,205,0.0,0.0,39,0.00,,SKC,0.00,VWS V14.01,2013-09-15 02:28:00,
2013-09-14 19:29:00,81.6,54.3,29.61,SSW,205,0.0,0.0,39,0.00,,SKC,0.00,VWS V14.01,2013-09-15 02:29:00,
2013-09-14 19:30:00,81.2,53.9,29.61,SSW,205,0.0,0.0,39,0.00,,SKC,0.00,VWS V14.01,2013-09-15 02:30:00,
2013-09-14 19:31:00,81.6,54.3,29.61,SSW,205,0.0,0.0,39,0.00,,SKC,0.00,VWS V14.01,2013-09-15 02:31:00,
2013-09-14 19:32:00,81.4,54.8,29.61,SSW,205,0.0,0.0,40,0.00,,SKC,0.00,VWS V14.01,2013-09-15 02:32:00,
2013-09-14 19:33:00,81.2,53.9,29.61,SSW,205,0.0,0.0,39,0.00,,SKC,0.00,VWS V14.01,2013-09-15 02:33:00,
2013-09-14 19:34:00,81.2,53.9,29.61,SSW,205,0.0,0.0,39,0.00,,SKC,0.00,VWS V14.01,2013-09-15 02:34:00,
2013-09-14 19:35:00,81.1,53.8,29.61,SSW,205,0.0,0.0,39,0.00,,SKC,0.00,VWS V14.01,2013-09-15 02:35:00,
2013-09-14 19:36:00,80.9,54.3,29.61,South,188,0.0,0.0,40,0.00,,SKC,0.00,VWS V14.01,2013-09-15 02:36:00,
2013-09-14 19:37:00,81.1,53.8,29.61,SSW,205,0.0,0.0,39,0.00,,SKC,0.00,VWS V14.01,2013-09-15 02:37:00,
2013-09-14 19:38:00,80.9,54.3,29.61,SSW,205,0.0,0.0,40,0.00,,SKC,0.00,VWS V14.01,2013-09-15 02:38:00,
2013-09-14 19:39:00,80.9,54.3,29.61,SSW,205,0.0,0.0,40,0.00,,SKC,0.00,VWS V14.01,2013-09-15 02:39:00,
2013-09-14 19:40:00,80.9,54.3,29.61,South,188,0.0,0.0,40,0.00,,SKC,0.00,VWS V14.01,2013-09-15 02:40:00,
2013-09-14 19:41:00,80.7,54.2,29.61,SSW,203,0.0,0.0,40,0.00,,SKC,0.00,VWS V14.01,2013-09-15 02:41:00,
2013-09-14 19:42:00,80.3,54.5,29.61,SSW,198,0.0,0.0,41,0.00,,SKC,0.00,VWS V14.01,2013-09-15 02:42:00,
2013-09-14 19:43:00,80.5,54.0,29.61,SSW,203,0.0,0.0,40,0.00,,SKC,0.00,VWS V14.01,2013-09-15 02:43:00,
2013-09-14 19:44:00,80.5,54.0,29.61,SSW,203,0.0,0.0,40,0.00,,SKC,0.00,VWS V14.01,2013-09-15 02:44:00,
2013-09-14 19:45:00,80.3,54.5,29.61,SSW,203,0.0,0.0,41,0.00,,SKC,0.00,VWS V14.01,2013-09-15 02:45:00,
2013-09-14 19:46:00,80.3,54.5,29.61,SSW,198,0.0,0.0,41,0.00,,SKC,0.00,VWS V14.01,2013-09-15 02:46:00,
2013-09-14 19:47:00,79.8,54.7,29.61,SSW,196,0.0,0.0,42,0.00,,SKC,0.00,VWS V14.01,2013-09-15 02:47:00,
2013-09-14 19:48:00,80.1,54.3,29.61,SSW,196,1.0,1.0,41,0.00,,SKC,0.00,VWS V14.01,2013-09-15 02:48:00,
2013-09-14 19:49:00,80.1,54.3,29.61,SSW,196,0.0,1.0,41,0.00,,SKC,0.00,VWS V14.01,2013-09-15 02:49:00,
2013-09-14 19:50:00,80.1,55.0,29.61,SSW,196,0.0,0.0,42,0.00,,SKC,0.00,VWS V14.01,2013-09-15 02:50:00,
2013-09-14 19:51:00,79.8,54.7,29.61,SSW,196,0.0,0.0,42,0.00,,SKC,0.00,VWS V14.01,2013-09-15 02:51:00,
2013-09-14 19:52:00,79.2,54.8,29.61,SSE,152,0.0,2.0,43,0.00,,SKC,0.00,VWS V14.01,2013-09-15 02:52:00,
2013-09-14 19:53:00,79.6,54.5,29.61,South,184,0.0,0.0,42,0.00,,SKC,0.00,VWS V14.01,2013-09-15 02:53:00,
2013-09-14 19:54:00,79.4,54.3,29.61,SSE,155,0.0,2.0,42,0.00,,SKC,0.00,VWS V14.01,2013-09-15 02:54:00,
2013-09-14 19:55:00,79.2,54.8,29.61,SSE,155,0.0,0.0,43,0.00,,SKC,0.00,VWS V14.01,2013-09-15 02:55:00,
2013-09-14 19:56:00,79.2,54.8,29.61,SSE,152,0.0,2.0,43,0.00,,SKC,0.00,VWS V14.01,2013-09-15 02:56:00,
2013-09-14 19:57:00,79.0,54.6,29.61,SSE,152,1.0,1.0,43,0.00,,SKC,0.00,VWS V14.01,2013-09-15 02:57:00,
2013-09-14 19:58:00,78.6,54.3,29.62,SSE,152,0.0,0.0,43,0.00,,SKC,0.00,VWS V14.01,2013-09-15 02:58:00,
2013-09-14 19:59:00,79.0,54.6,29.61,South,171,0.0,0.0,43,0.00,,SKC,0.00,VWS V14.01,2013-09-15 02:59:00,
2013-09-14 20:00:00,78.6,54.3,29.62,SSE,152,0.0,0.0,43,0.00,,SKC,0.00,VWS V14.01,2013-09-15 03:00:00,
2013-09-14 20:01:00,78.6,54.3,29.62,SSE,152,0.0,0.0,43,0.00,,SKC,0.00,VWS V14.01,2013-09-15 03:01:00,
2013-09-14 20:02:00,78.6,54.3,29.62,SSE,152,0.0,0.0,43,0.00,,SKC,0.00,VWS V14.01,2013-09-15 03:02:00,
2013-09-14 20:03:00,77.9,54.9,29.62,SSE,165,0.0,0.0,45,0.00,,SKC,0.00,VWS V14.01,2013-09-15 03:03:00,
2013-09-14 20:04:00,78.1,53.8,29.62,SSE,165,0.0,0.0,43,0.00,,SKC,0.00,VWS V14.01,2013-09-15 03:04:00,
2013-09-14 20:05:00,78.1,55.0,29.62,SSE,165,0.0,0.0,45,0.00,,SKC,0.00,VWS V14.01,2013-09-15 03:05:00,
2013-09-14 20:06:00,77.9,54.9,29.62,SSE,165,0.0,0.0,45,0.00,,SKC,0.00,VWS V14.01,2013-09-15 03:06:00,
2013-09-14 20:07:00,77.9,54.9,29.62,SSE,165,0.0,0.0,45,0.00,,SKC,0.00,VWS V14.01,2013-09-15 03:07:00,
2013-09-14 20:08:00,77.7,54.7,29.62,SSE,165,0.0,0.0,45,0.00,,SKC,0.00,VWS V14.01,2013-09-15 03:08:00,
2013-09-14 20:09:00,77.2,54.8,29.62,SSE,165,0.0,0.0,46,0.00,,SKC,0.00,VWS V14.01,2013-09-15 03:09:00,
2013-09-14 20:10:00,77.7,55.3,29.62,SSE,165,0.0,0.0,46,0.00,,SKC,0.00,VWS V14.01,2013-09-15 03:10:00,
2013-09-14 20:11:00,77.4,55.0,29.62,SSE,165,0.0,0.0,46,0.00,,SKC,0.00,VWS V14.01,2013-09-15 03:11:00,
2013-09-14 20:12:00,77.4,55.0,29.62,SSE,165,0.0,0.0,46,0.00,,SKC,0.00,VWS V14.01,2013-09-15 03:12:00,
2013-09-14 20:13:00,77.2,54.8,29.62,SSE,165,0.0,0.0,46,0.00,,SKC,0.00,VWS V14.01,2013-09-15 03:13:00,
2013-09-14 20:14:00,77.2,54.8,29.62,SSE,165,0.0,0.0,46,0.00,,SKC,0.00,VWS V14.01,2013-09-15 03:14:00,
2013-09-14 20:15:00,76.8,54.5,29.63,SSE,165,0.0,0.0,46,0.00,,SKC,0.00,VWS V14.01,2013-09-15 03:15:00,
2013-09-14 20:16:00,77.0,54.7,29.63,SSE,165,0.0,0.0,46,0.00,,SKC,0.00,VWS V14.01,2013-09-15 03:16:00,
2013-09-14 20:17:00,77.0,54.7,29.63,SSE,165,0.0,1.0,46,0.00,,SKC,0.00,VWS V14.01,2013-09-15 03:17:00,
2013-09-14 20:18:00,76.8,54.5,29.63,SSE,165,0.0,0.0,46,0.00,,SKC,0.00,VWS V14.01,2013-09-15 03:18:00,
2013-09-14 20:19:00,76.8,54.5,29.63,SSE,165,0.0,0.0,46,0.00,,SKC,0.00,VWS V14.01,2013-09-15 03:19:00,
2013-09-14 20:20:00,76.3,54.6,29.63,SSE,165,0.0,1.0,47,0.00,,SKC,0.00,VWS V14.01,2013-09-15 03:20:00,
2013-09-14 20:21:00,76.7,55.0,29.63,SSE,165,0.0,0.0,47,0.00,,SKC,0.00,VWS V14.01,2013-09-15 03:21:00,
2013-09-14 20:22:00,76.5,54.8,29.63,SSE,165,0.0,0.0,47,0.00,,SKC,0.00,VWS V14.01,2013-09-15 03:22:00,
2013-09-14 20:23:00,76.5,54.8,29.63,SSE,165,0.0,0.0,47,0.00,,SKC,0.00,VWS V14.01,2013-09-15 03:23:00,
2013-09-14 20:24:00,76.3,54.6,29.63,SSE,165,0.0,1.0,47,0.00,,SKC,0.00,VWS V14.01,2013-09-15 03:24:00,
2013-09-14 20:25:00,75.8,54.2,29.63,SSE,165,0.0,0.0,47,0.00,,SKC,0.00,VWS V14.01,2013-09-15 03:25:00,
2013-09-14 20:26:00,76.1,54.4,29.63,SSE,165,0.0,1.0,47,0.00,,SKC,0.00,VWS V14.01,2013-09-15 03:26:00,
2013-09-14 20:27:00,76.0,54.3,29.63,SSE,165,0.0,0.0,47,0.00,,SKC,0.00,VWS V14.01,2013-09-15 03:27:00,
2013-09-14 20:28:00,76.0,54.3,29.63,SSE,165,0.0,0.0,47,0.00,,SKC,0.00,VWS V14.01,2013-09-15 03:28:00,
2013-09-14 20:29:00,75.8,54.2,29.63,SSE,165,0.0,0.0,47,0.00,,SKC,0.00,VWS V14.01,2013-09-15 03:29:00,
2013-09-14 20:30:00,75.4,54.4,29.63,SSE,165,0.0,1.0,48,0.00,,SKC,0.00,VWS V14.01,2013-09-15 03:30:00,
2013-09-14 20:31:00,75.6,54.5,29.63,SSE,165,0.0,0.0,48,0.00,,SKC,0.00,VWS V14.01,2013-09-15 03:31:00,
2013-09-14 20:32:00,75.6,54.5,29.63,SSE,165,0.0,0.0,48,0.00,,SKC,0.00,VWS V14.01,2013-09-15 03:32:00,
2013-09-14 20:33:00,75.4,54.4,29.63,SSE,165,0.0,0.0,48,0.00,,SKC,0.00,VWS V14.01,2013-09-15 03:33:00,
2013-09-14 20:34:00,75.4,54.4,29.63,SSE,165,0.0,1.0,48,0.00,,SKC,0.00,VWS V14.01,2013-09-15 03:34:00,
2013-09-14 20:35:00,75.4,54.4,29.63,SSE,165,0.0,0.0,48,0.00,,SKC,0.00,VWS V14.01,2013-09-15 03:35:00,
2013-09-14 20:36:00,74.9,54.5,29.63,South,175,0.0,2.0,49,0.00,,SKC,0.00,VWS V14.01,2013-09-15 03:36:00,
2013-09-14 20:37:00,75.1,54.1,29.63,SSE,162,0.0,2.0,48,0.00,,SKC,0.00,VWS V14.01,2013-09-15 03:37:00,
2013-09-14 20:38:00,75.1,54.1,29.63,SSE,164,0.0,0.0,48,0.00,,SKC,0.00,VWS V14.01,2013-09-15 03:38:00,
2013-09-14 20:39:00,74.9,54.5,29.63,SSE,164,0.0,1.0,49,0.00,,SKC,0.00,VWS V14.01,2013-09-15 03:39:00,
2013-09-14 20:40:00,74.9,54.5,29.63,South,175,0.0,2.0,49,0.00,,SKC,0.00,VWS V14.01,2013-09-15 03:40:00,
2013-09-14 20:41:00,74.4,54.0,29.64,South,182,0.0,1.0,49,0.00,,SKC,0.00,VWS V14.01,2013-09-15 03:41:00,
2013-09-14 20:42:00,74.6,54.2,29.63,SSE,154,0.0,1.0,49,0.00,,SKC,0.00,VWS V14.01,2013-09-15 03:42:00,
2013-09-14 20:43:00,74.6,54.2,29.63,SSE,154,0.0,0.0,49,0.00,,SKC,0.00,VWS V14.01,2013-09-15 03:43:00,
2013-09-14 20:44:00,74.4,54.0,29.63,SSE,154,0.0,0.0,49,0.00,,SKC,0.00,VWS V14.01,2013-09-15 03:44:00,
2013-09-14 20:45:00,74.4,54.0,29.64,South,182,0.0,1.0,49,0.00,,SKC,0.00,VWS V14.01,2013-09-15 03:45:00,
2013-09-14 20:46:00,73.9,54.1,29.64,SSE,151,0.0,0.0,50,0.00,,SKC,0.00,VWS V14.01,2013-09-15 03:46:00,
2013-09-14 20:47:00,74.0,54.2,29.64,SSE,151,0.0,1.0,50,0.00,,SKC,0.00,VWS V14.01,2013-09-15 03:47:00,
2013-09-14 20:48:00,74.0,54.2,29.64,SSE,151,0.0,0.0,50,0.00,,SKC,0.00,VWS V14.01,2013-09-15 03:48:00,
2013-09-14 20:49:00,73.9,54.1,29.64,SSE,151,0.0,0.0,50,0.00,,SKC,0.00,VWS V14.01,2013-09-15 03:49:00,
2013-09-14 20:50:00,73.9,54.1,29.64,SSE,151,0.0,0.0,50,0.00,,SKC,0.00,VWS V14.01,2013-09-15 03:50:00,
2013-09-14 20:51:00,73.5,54.3,29.64,SSE,158,0.0,0.0,51,0.00,,SKC,0.00,VWS V14.01,2013-09-15 03:51:00,
2013-09-14 20:52:00,73.7,53.9,29.64,SSE,158,0.0,0.0,50,0.00,,SKC,0.00,VWS V14.01,2013-09-15 03:52:00,
2013-09-14 20:53:00,73.5,53.7,29.64,SSE,158,0.0,0.0,50,0.00,,SKC,0.00,VWS V14.01,2013-09-15 03:53:00,
2013-09-14 20:54:00,73.5,53.7,29.64,SSE,158,0.0,0.0,50,0.00,,SKC,0.00,VWS V14.01,2013-09-15 03:54:00,
2013-09-14 20:55:00,73.5,54.3,29.64,SSE,158,0.0,0.0,51,0.00,,SKC,0.00,VWS V14.01,2013-09-15 03:55:00,
2013-09-14 20:56:00,73.3,54.1,29.64,SSE,158,0.0,0.0,51,0.00,,SKC,0.00,VWS V14.01,2013-09-15 03:56:00,
2013-09-14 20:57:00,73.0,54.4,29.64,SSE,158,0.0,0.0,52,0.00,,SKC,0.00,VWS V14.01,2013-09-15 03:57:00,
2013-09-14 20:58:00,73.2,54.0,29.64,SSE,158,0.0,0.0,51,0.00,,SKC,0.00,VWS V14.01,2013-09-15 03:58:00,
2013-09-14 20:59:00,73.2,54.0,29.64,SSE,158,0.0,0.0,51,0.00,,SKC,0.00,VWS V14.01,2013-09-15 03:59:00,
2013-09-14 21:00:00,73.2,54.0,29.64,SSE,158,0.0,0.0,51,0.00,,SKC,0.00,VWS V14.01,2013-09-15 04:00:00,
2013-09-14 21:01:00,72.7,54.1,29.64,SSE,158,0.0,0.0,52,0.00,,SKC,0.00,VWS V14.01,2013-09-15 04:01:00,
2013-09-14 21:02:00,73.0,53.8,29.64,SSE,158,0.0,0.0,51,0.00,,SKC,0.00,VWS V14.01,2013-09-15 04:02:00,
2013-09-14 21:03:00,72.5,53.9,29.64,SSE,158,0.0,0.0,52,0.00,,SKC,0.00,VWS V14.01,2013-09-15 04:03:00,
2013-09-14 21:04:00,72.8,54.2,29.64,SSE,158,0.0,0.0,52,0.00,,SKC,0.00,VWS V14.01,2013-09-15 04:04:00,
2013-09-14 21:05:00,72.5,54.4,29.64,SSE,158,0.0,0.0,53,0.00,,SKC,0.00,VWS V14.01,2013-09-15 04:05:00,
2013-09-14 21:06:00,72.7,54.1,29.64,SSE,158,0.0,0.0,52,0.00,,SKC,0.00,VWS V14.01,2013-09-15 04:06:00,
2013-09-14 21:07:00,72.5,53.9,29.64,SSE,158,0.0,0.0,52,0.00,,SKC,0.00,VWS V14.01,2013-09-15 04:07:00,
2013-09-14 21:08:00,72.5,53.9,29.64,SSE,158,0.0,0.0,52,0.00,,SKC,0.00,VWS V14.01,2013-09-15 04:08:00,
2013-09-14 21:09:00,72.5,54.4,29.64,SSE,158,0.0,0.0,53,0.00,,SKC,0.00,VWS V14.01,2013-09-15 04:09:00,
2013-09-14 21:10:00,72.1,54.0,29.64,SSE,158,0.0,0.0,53,0.00,,SKC,0.00,VWS V14.01,2013-09-15 04:10:00,
2013-09-14 21:11:00,72.3,54.2,29.64,SSE,158,0.0,0.0,53,0.00,,SKC,0.00,VWS V14.01,2013-09-15 04:11:00,
2013-09-14 21:12:00,72.0,54.5,29.64,SSE,158,0.0,0.0,54,0.00,,SKC,0.00,VWS V14.01,2013-09-15 04:12:00,
2013-09-14 21:13:00,72.1,54.0,29.64,SSE,158,0.0,0.0,53,0.00,,SKC,0.00,VWS V14.01,2013-09-15 04:13:00,
2013-09-14 21:14:00,72.1,54.0,29.64,SSE,158,0.0,0.0,53,0.00,,SKC,0.00,VWS V14.01,2013-09-15 04:14:00,
2013-09-14 21:15:00,72.0,54.0,29.64,SSE,158,0.0,0.0,53,0.00,,SKC,0.00,VWS V14.01,2013-09-15 04:15:00,
2013-09-14 21:16:00,72.0,54.5,29.64,SSE,158,0.0,0.0,54,0.00,,SKC,0.00,VWS V14.01,2013-09-15 04:16:00,
2013-09-14 21:17:00,71.8,54.3,29.64,SSE,158,0.0,0.0,54,0.00,,SKC,0.00,VWS V14.01,2013-09-15 04:17:00,
2013-09-14 21:18:00,71.5,54.0,29.64,SSE,158,0.0,0.0,54,0.00,,SKC,0.00,VWS V14.01,2013-09-15 04:18:00,
2013-09-14 21:19:00,71.8,54.3,29.64,SSE,158,0.0,1.0,54,0.00,,SKC,0.00,VWS V14.01,2013-09-15 04:19:00,
2013-09-14 21:20:00,71.6,54.1,29.64,SSE,158,0.0,0.0,54,0.00,,SKC,0.00,VWS V14.01,2013-09-15 04:20:00,
2013-09-14 21:21:00,71.6,54.1,29.64,SSE,158,0.0,0.0,54,0.00,,SKC,0.00,VWS V14.01,2013-09-15 04:21:00,
2013-09-14 21:22:00,71.3,53.8,29.64,SSE,158,0.0,0.0,54,0.00,,SKC,0.00,VWS V14.01,2013-09-15 04:22:00,
2013-09-14 21:23:00,71.5,54.0,29.64,SSE,158,0.0,0.0,54,0.00,,SKC,0.00,VWS V14.01,2013-09-15 04:23:00,
2013-09-14 21:24:00,71.5,54.0,29.64,SSE,158,0.0,0.0,54,0.00,,SKC,0.00,VWS V14.01,2013-09-15 04:24:00,
2013-09-14 21:25:00,71.3,53.8,29.64,SSE,158,0.0,0.0,54,0.00,,SKC,0.00,VWS V14.01,2013-09-15 04:25:00,
2013-09-14 21:26:00,71.3,53.8,29.64,SSE,158,0.0,0.0,54,0.00,,SKC,0.00,VWS V14.01,2013-09-15 04:26:00,
2013-09-14 21:27:00,71.1,53.6,29.64,SSE,158,0.0,0.0,54,0.00,,SKC,0.00,VWS V14.01,2013-09-15 04:27:00,
2013-09-14 21:28:00,71.1,53.6,29.64,North,0,0.0,0.0,54,0.00,,SKC,0.00,VWS V14.01,2013-09-15 04:28:00,
2013-09-14 21:29:00,71.1,53.6,29.64,North,0,0.0,0.0,54,0.00,,SKC,0.00,VWS V14.01,2013-09-15 04:29:00,
2013-09-14 21:30:00,70.9,54.0,29.64,North,0,0.0,0.0,55,0.00,,SKC,0.00,VWS V14.01,2013-09-15 04:30:00,
2013-09-14 21:31:00,70.9,54.0,29.64,North,0,0.0,0.0,55,0.00,,SKC,0.00,VWS V14.01,2013-09-15 04:31:00,
2013-09-14 21:32:00,70.9,54.0,29.64,North,0,0.0,0.0,55,0.00,,SKC,0.00,VWS V14.01,2013-09-15 04:32:00,
2013-09-14 21:33:00,70.8,53.8,29.64,North,0,0.0,0.0,55,0.00,,SKC,0.00,VWS V14.01,2013-09-15 04:33:00,
2013-09-14 21:34:00,70.8,53.8,29.64,North,0,0.0,0.0,55,0.00,,SKC,0.00,VWS V14.01,2013-09-15 04:34:00,
2013-09-14 21:35:00,70.8,53.8,29.64,North,0,0.0,0.0,55,0.00,,SKC,0.00,VWS V14.01,2013-09-15 04:35:00,
2013-09-14 21:36:00,70.6,54.2,29.64,North,0,0.0,0.0,56,0.00,,SKC,0.00,VWS V14.01,2013-09-15 04:36:00,
2013-09-14 21:37:00,70.6,54.2,29.64,North,0,0.0,0.0,56,0.00,,SKC,0.00,VWS V14.01,2013-09-15 04:37:00,
2013-09-14 21:38:00,70.4,54.0,29.64,North,0,0.0,0.0,56,0.00,,SKC,0.00,VWS V14.01,2013-09-15 04:38:00,
2013-09-14 21:39:00,70.4,54.0,29.64,North,0,0.0,0.0,56,0.00,,SKC,0.00,VWS V14.01,2013-09-15 04:39:00,
2013-09-14 21:40:00,70.4,54.0,29.64,North,0,0.0,0.0,56,0.00,,SKC,0.00,VWS V14.01,2013-09-15 04:40:00,
2013-09-14 21:41:00,70.4,54.0,29.64,North,0,0.0,0.0,56,0.00,,SKC,0.00,VWS V14.01,2013-09-15 04:41:00,
2013-09-14 21:42:00,70.3,53.9,29.64,North,0,0.0,0.0,56,0.00,,SKC,0.00,VWS V14.01,2013-09-15 04:42:00,
2013-09-14 21:43:00,70.3,53.9,29.64,North,0,0.0,0.0,56,0.00,,SKC,0.00,VWS V14.01,2013-09-15 04:43:00,
2013-09-14 21:44:00,70.1,53.7,29.64,North,0,0.0,0.0,56,0.00,,SKC,0.00,VWS V14.01,2013-09-15 04:44:00,
2013-09-14 21:45:00,70.1,53.7,29.64,North,0,0.0,0.0,56,0.00,,SKC,0.00,VWS V14.01,2013-09-15 04:45:00,
2013-09-14 21:46:00,70.1,54.2,29.64,North,0,0.0,0.0,57,0.00,,FEW200,0.00,VWS V14.01,2013-09-15 04:46:00,
2013-09-14 21:48:00,69.8,53.4,29.64,North,0,0.0,0.0,56,0.00,,SKC,0.00,VWS V14.01,2013-09-15 04:48:00,
2013-09-14 21:49:00,69.9,54.0,29.64,North,0,0.0,0.0,57,0.00,,FEW200,0.00,VWS V14.01,2013-09-15 04:49:00,
2013-09-14 21:50:00,69.8,53.9,29.64,North,0,0.0,0.0,57,0.00,,SKC,0.00,VWS V14.01,2013-09-15 04:50:00,
2013-09-14 21:51:00,69.8,53.9,29.64,North,0,0.0,0.0,57,0.00,,SKC,0.00,VWS V14.01,2013-09-15 04:51:00,
2013-09-14 21:52:00,69.6,53.7,29.64,North,0,0.0,0.0,57,0.00,,SKC,0.00,VWS V14.01,2013-09-15 04:52:00,
2013-09-14 21:53:00,69.6,53.7,29.64,North,0,0.0,0.0,57,0.00,,SKC,0.00,VWS V14.01,2013-09-15 04:53:00,
2013-09-14 21:54:00,69.6,53.7,29.64,East,90,0.0,1.0,57,0.00,,SKC,0.00,VWS V14.01,2013-09-15 04:54:00,
2013-09-14 21:55:00,69.4,53.5,29.64,East,90,0.0,0.0,57,0.00,,SKC,0.00,VWS V14.01,2013-09-15 04:55:00,
2013-09-14 21:56:00,69.4,53.5,29.64,East,90,0.0,0.0,57,0.00,,SKC,0.00,VWS V14.01,2013-09-15 04:56:00,
2013-09-14 21:57:00,69.4,54.0,29.64,East,90,0.0,0.0,58,0.00,,SKC,0.00,VWS V14.01,2013-09-15 04:57:00,
2013-09-14 21:58:00,69.3,53.9,29.64,East,90,0.0,1.0,58,0.00,,SKC,0.00,VWS V14.01,2013-09-15 04:58:00,
2013-09-14 21:59:00,69.3,53.9,29.64,ENE,68,0.0,1.0,58,0.00,,SKC,0.00,VWS V14.01,2013-09-15 04:59:00,
2013-09-14 22:00:00,69.1,53.7,29.64,ENE,68,0.0,0.0,58,0.00,,SKC,0.00,VWS V14.01,2013-09-15 05:00:00,
2013-09-14 22:01:00,69.1,53.7,29.64,ENE,68,0.0,0.0,58,0.00,,SKC,0.00,VWS V14.01,2013-09-15 05:01:00,
2013-09-14 22:02:00,69.1,53.7,29.64,East,90,0.0,2.0,58,0.00,,SKC,0.00,VWS V14.01,2013-09-15 05:02:00,
2013-09-14 22:03:00,68.9,53.5,29.64,ENE,68,0.0,1.0,58,0.00,,SKC,0.00,VWS V14.01,2013-09-15 05:03:00,
2013-09-14 22:04:00,68.9,53.5,29.64,ENE,68,0.0,0.0,58,0.00,,SKC,0.00,VWS V14.01,2013-09-15 05:04:00,
2013-09-14 22:05:00,68.9,53.5,29.64,ENE,68,0.0,0.0,58,0.00,,SKC,0.00,VWS V14.01,2013-09-15 05:05:00,
2013-09-14 22:06:00,68.9,53.5,29.64,ENE,68,0.0,0.0,58,0.00,,SKC,0.00,VWS V14.01,2013-09-15 05:06:00,
2013-09-14 22:07:00,68.8,53.4,29.64,ENE,68,0.0,0.0,58,0.00,,SKC,0.00,VWS V14.01,2013-09-15 05:07:00,
2013-09-14 22:08:00,68.8,53.4,29.64,East,90,0.0,3.0,58,0.00,,SKC,0.00,VWS V14.01,2013-09-15 05:08:00,
2013-09-14 22:09:00,68.8,53.9,29.64,East,90,0.0,0.0,59,0.00,,SKC,0.00,VWS V14.01,2013-09-15 05:09:00,
2013-09-14 22:10:00,68.6,53.7,29.64,East,90,0.0,0.0,59,0.00,,SKC,0.00,VWS V14.01,2013-09-15 05:10:00,
2013-09-14 22:11:00,68.6,53.7,29.64,East,90,0.0,1.0,59,0.00,,SKC,0.00,VWS V14.01,2013-09-15 05:11:00,
2013-09-14 22:12:00,68.6,53.7,29.64,East,90,0.0,0.0,59,0.00,,SKC,0.00,VWS V14.01,2013-09-15 05:12:00,
2013-09-14 22:13:00,68.4,53.5,29.64,East,90,0.0,1.0,59,0.00,,SKC,0.00,VWS V14.01,2013-09-15 05:13:00,
2013-09-14 22:14:00,68.4,53.5,29.64,ENE,68,0.0,3.0,59,0.00,,SKC,0.00,VWS V14.01,2013-09-15 05:14:00,
2013-09-14 22:15:00,68.4,53.5,29.63,ENE,68,0.0,0.0,59,0.00,,SKC,0.00,VWS V14.01,2013-09-15 05:15:00,
2013-09-14 22:16:00,68.3,53.4,29.63,ENE,68,0.0,0.0,59,0.00,,SKC,0.00,VWS V14.01,2013-09-15 05:16:00,
2013-09-14 22:17:00,68.3,53.4,29.63,ENE,68,0.0,0.0,59,0.00,,SKC,0.00,VWS V14.01,2013-09-15 05:17:00,
2013-09-14 22:18:00,68.3,53.4,29.63,ENE,68,0.0,0.0,59,0.00,,SKC,0.00,VWS V14.01,2013-09-15 05:18:00,
2013-09-14 22:19:00,68.3,53.4,29.63,ENE,68,0.0,0.0,59,0.00,,SKC,0.00,VWS V14.01,2013-09-15 05:19:00,
2013-09-14 22:20:00,68.3,53.4,29.63,ENE,68,0.0,0.0,59,0.00,,SKC,0.00,VWS V14.01,2013-09-15 05:20:00,
2013-09-14 22:21:00,68.1,53.2,29.63,ENE,68,0.0,0.0,59,0.00,,SKC,0.00,VWS V14.01,2013-09-15 05:21:00,
2013-09-14 22:22:00,68.1,53.7,29.63,ENE,68,0.0,0.0,60,0.00,,SKC,0.00,VWS V14.01,2013-09-15 05:22:00,
2013-09-14 22:23:00,68.1,53.7,29.63,East,90,0.0,2.0,60,0.00,,SKC,0.00,VWS V14.01,2013-09-15 05:23:00,
2013-09-14 22:24:00,68.1,53.7,29.63,ENE,68,0.0,1.0,60,0.00,,SKC,0.00,VWS V14.01,2013-09-15 05:24:00,
2013-09-14 22:25:00,68.1,53.7,29.63,ENE,68,0.0,1.0,60,0.00,,SKC,0.00,VWS V14.01,2013-09-15 05:25:00,
2013-09-14 22:26:00,67.9,53.5,29.63,ENE,68,0.0,0.0,60,0.00,,SKC,0.00,VWS V14.01,2013-09-15 05:26:00,
2013-09-14 22:27:00,67.9,53.5,29.63,ENE,68,0.0,0.0,60,0.00,,SKC,0.00,VWS V14.01,2013-09-15 05:27:00,
2013-09-14 22:28:00,67.9,53.5,29.63,ENE,68,0.0,0.0,60,0.00,,SKC,0.00,VWS V14.01,2013-09-15 05:28:00,
2013-09-14 22:29:00,67.9,53.5,29.63,ENE,68,0.0,0.0,60,0.00,,SKC,0.00,VWS V14.01,2013-09-15 05:29:00,
2013-09-14 22:30:00,67.9,53.5,29.63,ENE,68,0.0,0.0,60,0.00,,SKC,0.00,VWS V14.01,2013-09-15 05:30:00,
2013-09-14 22:31:00,67.9,54.0,29.63,ENE,68,0.0,0.0,61,0.00,,SKC,0.00,VWS V14.01,2013-09-15 05:31:00,
2013-09-14 22:32:00,67.8,53.4,29.63,ENE,68,0.0,0.0,60,0.00,,SKC,0.00,VWS V14.01,2013-09-15 05:32:00,
2013-09-14 22:33:00,67.8,53.9,29.63,ENE,68,0.0,0.0,61,0.00,,SKC,0.00,VWS V14.01,2013-09-15 05:33:00,
2013-09-14 22:34:00,67.8,53.4,29.63,ENE,68,0.0,0.0,60,0.00,,SKC,0.00,VWS V14.01,2013-09-15 05:34:00,
2013-09-14 22:35:00,67.8,53.9,29.63,ENE,68,0.0,0.0,61,0.00,,SKC,0.00,VWS V14.01,2013-09-15 05:35:00,
2013-09-14 22:36:00,67.8,53.4,29.63,ENE,68,0.0,0.0,60,0.00,,SKC,0.00,VWS V14.01,2013-09-15 05:36:00,
2013-09-14 22:37:00,67.8,53.9,29.63,ENE,68,0.0,0.0,61,0.00,,SKC,0.00,VWS V14.01,2013-09-15 05:37:00,
2013-09-14 22:38:00,67.8,53.9,29.63,ENE,68,0.0,0.0,61,0.00,,SKC,0.00,VWS V14.01,2013-09-15 05:38:00,
2013-09-14 22:39:00,67.8,53.9,29.63,ENE,68,0.0,0.0,61,0.00,,SKC,0.00,VWS V14.01,2013-09-15 05:39:00,
2013-09-14 22:40:00,67.8,53.9,29.63,ENE,68,0.0,0.0,61,0.00,,SKC,0.00,VWS V14.01,2013-09-15 05:40:00,
2013-09-14 22:41:00,67.6,53.7,29.63,ENE,68,0.0,0.0,61,0.00,,SKC,0.00,VWS V14.01,2013-09-15 05:41:00,
2013-09-14 22:42:00,67.6,53.7,29.63,ENE,68,0.0,0.0,61,0.00,,SKC,0.00,VWS V14.01,2013-09-15 05:42:00,
2013-09-14 22:43:00,67.6,53.7,29.63,ENE,68,0.0,0.0,61,0.00,,SKC,0.00,VWS V14.01,2013-09-15 05:43:00,
2013-09-14 22:44:00,67.6,53.7,29.63,ENE,68,0.0,0.0,61,0.00,,SKC,0.00,VWS V14.01,2013-09-15 05:44:00,
2013-09-14 22:45:00,67.6,53.7,29.63,South,180,0.0,1.0,61,0.00,,SKC,0.00,VWS V14.01,2013-09-15 05:45:00,
2013-09-14 22:46:00,67.6,53.7,29.63,South,180,0.0,0.0,61,0.00,,SKC,0.00,VWS V14.01,2013-09-15 05:46:00,
2013-09-14 22:47:00,67.6,53.7,29.63,South,180,0.0,0.0,61,0.00,,SKC,0.00,VWS V14.01,2013-09-15 05:47:00,
2013-09-14 22:48:00,67.4,53.5,29.63,South,180,0.0,0.0,61,0.00,,SKC,0.00,VWS V14.01,2013-09-15 05:48:00,
2013-09-14 22:49:00,67.4,53.5,29.63,South,180,0.0,0.0,61,0.00,,SKC,0.00,VWS V14.01,2013-09-15 05:49:00,
2013-09-14 22:50:00,67.4,53.9,29.63,South,180,0.0,0.0,62,0.00,,SKC,0.00,VWS V14.01,2013-09-15 05:50:00,
2013-09-14 22:51:00,67.4,53.9,29.63,South,180,0.0,0.0,62,0.00,,SKC,0.00,VWS V14.01,2013-09-15 05:51:00,
2013-09-14 22:52:00,67.4,53.9,29.63,South,180,0.0,0.0,62,0.00,,SKC,0.00,VWS V14.01,2013-09-15 05:52:00,
2013-09-14 22:53:00,67.4,53.9,29.63,South,180,0.0,0.0,62,0.00,,SKC,0.00,VWS V14.01,2013-09-15 05:53:00,
2013-09-14 22:54:00,67.3,53.8,29.63,East,90,0.0,1.0,62,0.00,,SKC,0.00,VWS V14.01,2013-09-15 05:54:00,
2013-09-14 22:55:00,67.3,53.8,29.63,East,90,0.0,0.0,62,0.00,,SKC,0.00,VWS V14.01,2013-09-15 05:55:00,
2013-09-14 22:56:00,67.3,53.8,29.63,ENE,68,0.0,1.0,62,0.00,,SKC,0.00,VWS V14.01,2013-09-15 05:56:00,
2013-09-14 22:57:00,67.3,53.8,29.63,ENE,68,0.0,0.0,62,0.00,,SKC,0.00,VWS V14.01,2013-09-15 05:57:00,
2013-09-14 22:58:00,67.3,53.8,29.63,ENE,68,0.0,1.0,62,0.00,,SKC,0.00,VWS V14.01,2013-09-15 05:58:00,
2013-09-14 22:59:00,67.3,53.8,29.63,ENE,68,0.0,0.0,62,0.00,,SKC,0.00,VWS V14.01,2013-09-15 05:59:00,
2013-09-14 23:00:00,67.1,53.7,29.64,ENE,68,0.0,0.0,62,0.00,,SKC,0.00,VWS V14.01,2013-09-15 06:00:00,
2013-09-14 23:01:00,67.1,53.7,29.64,ENE,68,0.0,3.0,62,0.00,,SKC,0.00,VWS V14.01,2013-09-15 06:01:00,
2013-09-14 23:02:00,67.1,53.7,29.64,East,90,0.0,2.0,62,0.00,,SKC,0.00,VWS V14.01,2013-09-15 06:02:00,
2013-09-14 23:03:00,67.1,53.7,29.64,ENE,68,0.0,1.0,62,0.00,,SKC,0.00,VWS V14.01,2013-09-15 06:03:00,
2013-09-14 23:04:00,67.1,53.7,29.64,ENE,68,0.0,0.0,62,0.00,,SKC,0.00,VWS V14.01,2013-09-15 06:04:00,
2013-09-14 23:05:00,67.1,53.7,29.64,ENE,68,0.0,0.0,62,0.00,,SKC,0.00,VWS V14.01,2013-09-15 06:05:00,
2013-09-14 23:06:00,67.1,53.7,29.64,East,90,0.0,1.0,62,0.00,,SKC,0.00,VWS V14.01,2013-09-15 06:06:00,
2013-09-14 23:07:00,66.9,53.5,29.64,ENE,68,0.0,1.0,62,0.00,,SKC,0.00,VWS V14.01,2013-09-15 06:07:00,
2013-09-14 23:08:00,66.9,53.5,29.64,ENE,68,0.0,0.0,62,0.00,,SKC,0.00,VWS V14.01,2013-09-15 06:08:00,
2013-09-14 23:09:00,66.9,53.5,29.64,ENE,68,0.0,0.0,62,0.00,,SKC,0.00,VWS V14.01,2013-09-15 06:09:00,
2013-09-14 23:10:00,66.9,53.5,29.64,ENE,68,0.0,0.0,62,0.00,,SKC,0.00,VWS V14.01,2013-09-15 06:10:00,
2013-09-14 23:11:00,66.9,53.9,29.64,East,90,0.0,3.0,63,0.00,,SKC,0.00,VWS V14.01,2013-09-15 06:11:00,
2013-09-14 23:12:00,66.9,53.9,29.64,East,90,0.0,2.0,63,0.00,,SKC,0.00,VWS V14.01,2013-09-15 06:12:00,
2013-09-14 23:13:00,66.9,53.9,29.64,ENE,68,0.0,2.0,63,0.00,,SKC,0.00,VWS V14.01,2013-09-15 06:13:00,
2013-09-14 23:14:00,66.9,53.9,29.64,East,90,0.0,2.0,63,0.00,,SKC,0.00,VWS V14.01,2013-09-15 06:14:00,
2013-09-14 23:15:00,66.9,53.9,29.63,East,90,0.0,0.0,63,0.00,,SKC,0.00,VWS V14.01,2013-09-15 06:15:00,
2013-09-14 23:16:00,66.9,53.9,29.63,East,90,0.0,0.0,63,0.00,,SKC,0.00,VWS V14.01,2013-09-15 06:16:00,
2013-09-14 23:17:00,66.8,53.8,29.63,East,90,0.0,0.0,63,0.00,,SKC,0.00,VWS V14.01,2013-09-15 06:17:00,
2013-09-14 23:18:00,66.8,53.8,29.63,East,90,0.0,1.0,63,0.00,,SKC,0.00,VWS V14.01,2013-09-15 06:18:00,
2013-09-14 23:19:00,66.8,53.8,29.63,ENE,68,0.0,1.0,63,0.00,,SKC,0.00,VWS V14.01,2013-09-15 06:19:00,
2013-09-14 23:20:00,66.8,53.8,29.63,East,90,0.0,1.0,63,0.00,,SKC,0.00,VWS V14.01,2013-09-15 06:20:00,
2013-09-14 23:21:00,66.8,53.8,29.63,East,90,0.0,2.0,63,0.00,,SKC,0.00,VWS V14.01,2013-09-15 06:21:00,
2013-09-14 23:22:00,66.8,53.8,29.63,ENE,68,0.0,2.0,63,0.00,,SKC,0.00,VWS V14.01,2013-09-15 06:22:00,
2013-09-14 23:23:00,66.6,53.6,29.63,East,90,0.0,2.0,63,0.00,,SKC,0.00,VWS V14.01,2013-09-15 06:23:00,
2013-09-14 23:24:00,66.6,53.6,29.63,East,90,0.0,1.0,63,0.00,,SKC,0.00,VWS V14.01,2013-09-15 06:24:00,
2013-09-14 23:25:00,66.6,53.6,29.63,East,90,0.0,1.0,63,0.00,,SKC,0.00,VWS V14.01,2013-09-15 06:25:00,
2013-09-14 23:26:00,66.6,53.6,29.63,East,90,0.0,1.0,63,0.00,,SKC,0.00,VWS V14.01,2013-09-15 06:26:00,
2013-09-14 23:27:00,66.6,53.6,29.63,East,90,1.0,2.0,63,0.00,,SKC,0.00,VWS V14.01,2013-09-15 06:27:00,
2013-09-14 23:28:00,66.6,53.6,29.63,East,90,1.0,3.0,63,0.00,,SKC,0.00,VWS V14.01,2013-09-15 06:28:00,
2013-09-14 23:29:00,66.6,53.6,29.63,East,90,0.0,1.0,63,0.00,,SKC,0.00,VWS V14.01,2013-09-15 06:29:00,
2013-09-14 23:30:00,66.6,53.6,29.63,ENE,68,0.0,2.0,63,0.00,,SKC,0.00,VWS V14.01,2013-09-15 06:30:00,
2013-09-14 23:31:00,66.6,53.6,29.63,East,90,0.0,1.0,63,0.00,,SKC,0.00,VWS V14.01,2013-09-15 06:31:00,
2013-09-14 23:32:00,66.6,53.6,29.63,East,90,0.0,1.0,63,0.00,,SKC,0.00,VWS V14.01,2013-09-15 06:32:00,
2013-09-14 23:33:00,66.6,53.6,29.63,East,90,0.0,0.0,63,0.00,,SKC,0.00,VWS V14.01,2013-09-15 06:33:00,
2013-09-14 23:34:00,66.4,53.4,29.63,ENE,68,0.0,1.0,63,0.00,,SKC,0.00,VWS V14.01,2013-09-15 06:34:00,
2013-09-14 23:35:00,66.6,53.6,29.63,East,90,0.0,1.0,63,0.00,,SKC,0.00,VWS V14.01,2013-09-15 06:35:00,
2013-09-14 23:36:00,66.6,54.1,29.63,East,90,0.0,2.0,64,0.00,,SKC,0.00,VWS V14.01,2013-09-15 06:36:00,
2013-09-14 23:37:00,66.6,54.1,29.63,ENE,68,0.0,2.0,64,0.00,,SKC,0.00,VWS V14.01,2013-09-15 06:37:00,
2013-09-14 23:38:00,66.4,53.9,29.63,East,90,0.0,1.0,64,0.00,,SKC,0.00,VWS V14.01,2013-09-15 06:38:00,
2013-09-14 23:39:00,66.4,53.9,29.63,East,90,0.0,1.0,64,0.00,,SKC,0.00,VWS V14.01,2013-09-15 06:39:00,
2013-09-14 23:40:00,66.6,54.1,29.63,East,90,0.0,1.0,64,0.00,,SKC,0.00,VWS V14.01,2013-09-15 06:40:00,
2013-09-14 23:41:00,66.6,54.1,29.63,East,90,0.0,2.0,64,0.00,,SKC,0.00,VWS V14.01,2013-09-15 06:41:00,
2013-09-14 23:42:00,66.6,54.1,29.63,East,90,2.0,3.0,64,0.00,,SKC,0.00,VWS V14.01,2013-09-15 06:42:00,
2013-09-14 23:43:00,66.4,53.9,29.63,ESE,112,1.0,3.0,64,0.00,,SKC,0.00,VWS V14.01,2013-09-15 06:43:00,
2013-09-14 23:44:00,66.6,53.6,29.63,East,90,0.0,2.0,63,0.00,,SKC,0.00,VWS V14.01,2013-09-15 06:44:00,
2013-09-14 23:45:00,66.6,53.6,29.63,East,90,1.0,2.0,63,0.00,,SKC,0.00,VWS V14.01,2013-09-15 06:45:00,
2013-09-14 23:46:00,66.6,54.1,29.63,East,90,1.0,3.0,64,0.00,,SKC,0.00,VWS V14.01,2013-09-15 06:46:00,
2013-09-14 23:47:00,66.6,54.1,29.63,ESE,112,1.0,3.0,64,0.00,,SKC,0.00,VWS V14.01,2013-09-15 06:47:00,
2013-09-14 23:48:00,66.6,53.6,29.63,East,90,0.0,2.0,63,0.00,,SKC,0.00,VWS V14.01,2013-09-15 06:48:00,
2013-09-14 23:49:00,66.6,53.6,29.63,East,90,0.0,1.0,63,0.00,,SKC,0.00,VWS V14.01,2013-09-15 06:49:00,
2013-09-14 23:50:00,66.6,53.6,29.63,East,90,0.0,1.0,63,0.00,,SKC,0.00,VWS V14.01,2013-09-15 06:50:00,
2013-09-14 23:51:00,66.6,53.6,29.63,East,90,1.0,2.0,63,0.00,,SKC,0.00,VWS V14.01,2013-09-15 06:51:00,
2013-09-14 23:52:00,66.6,53.6,29.63,East,90,0.0,0.0,63,0.00,,SKC,0.00,VWS V14.01,2013-09-15 06:52:00,
2013-09-14 23:53:00,66.6,53.6,29.63,East,90,0.0,2.0,63,0.00,,SKC,0.00,VWS V14.01,2013-09-15 06:53:00,
2013-09-14 23:54:00,66.6,53.6,29.63,ESE,112,0.0,2.0,63,0.00,,SKC,0.00,VWS V14.01,2013-09-15 06:54:00,
2013-09-14 23:55:00,66.6,53.6,29.63,ESE,112,0.0,0.0,63,0.00,,SKC,0.00,VWS V14.01,2013-09-15 06:55:00,
2013-09-14 23:56:00,66.4,53.4,29.63,ENE,68,0.0,1.0,63,0.00,,SKC,0.00,VWS V14.01,2013-09-15 06:56:00,
2013-09-14 23:57:00,66.4,53.4,29.63,East,90,0.0,1.0,63,0.00,,SKC,0.00,VWS V14.01,2013-09-15 06:57:00,
2013-09-14 23:58:00,66.4,53.4,29.63,ENE,68,0.0,1.0,63,0.00,,SKC,0.00,VWS V14.01,2013-09-15 06:58:00,
2013-09-14 23:59:00,66.4,53.9,29.63,ESE,112,1.0,2.0,64,0.00,,SKC,0.00,VWS V14.01,2013-09-15 06:59:00,